<?xml version="1.0" encoding="UTF-8" standalone="no" ?>
<gpx xmlns="http://www.topografix.com/GPX/1/1" xmlns:xsi="http://www.w3.org/2001/XMLSchema-instance" xsi:schemaLocation="http://www.topografix.com/GPX/1/1 http://www.topografix.com/GPX/1/1/gpx.xsd" version="1.1" creator="VisuGPX - https://www.visugpx.com">
  <metadata>
    <name>circuit vtt vichel beaulieu parentignat les15</name>
    <desc><![CDATA[praticable m^m par temps de pluie circuit assez roulant 
vent 50 a l\'aller mais poussif au retour]]></desc>
  </metadata>
  <trk>
    <name><![CDATA[2012-11-03 10:51]]></name>
    <desc><![CDATA[<h1>OruxMaps</h1><br /><hr align="center" width="480" style="height: 2px; width: 517px"/><h2>Nom: 2012-11-03 10:51</h2><br /><p>Temps de départ: 11/03/2012 10:51</p><p>Temps d'arrivée: 11/03/2012 13:20</p><p>Distance: 45,8 km (02:29)</p><p>Temps déplacement: 02:22</p><p>Vitesse moyenne: 18,4 km/h</p><p>Vitesse moyenne: 19,3 km/h</p><p>Vitess Max.: 48 km/h</p><p>Altitude minimale: 370 m</p><p>Altitude maximale: 570 m</p><p>Vitesse d'élévation: 622,2 m/h</p><p>Vitesse de descente: -751,2 m/h</p><p>Gain Altitude: 644 m</p><p>Perte Altitude: -652 m</p><p>Temps d'élévation: 01:02</p><p>Temps de descente: 00:52</p><hr align="center" width="480" style="height: 2px; width: 517px"/>]]></desc>
    <trkseg>
      <trkpt lat="45.50674" lon="3.22268">
        <ele>548</ele>
        <time>2012-11-03T09:51:08Z</time>
      </trkpt>
      <trkpt lat="45.50661" lon="3.22287">
        <ele>543</ele>
        <time>2012-11-03T09:54:03Z</time>
      </trkpt>
      <trkpt lat="45.50661" lon="3.22313">
        <ele>543</ele>
        <time>2012-11-03T09:54:09Z</time>
      </trkpt>
      <trkpt lat="45.50649" lon="3.22336">
        <ele>542</ele>
        <time>2012-11-03T09:54:15Z</time>
      </trkpt>
      <trkpt lat="45.50632" lon="3.2235">
        <ele>541</ele>
        <time>2012-11-03T09:54:22Z</time>
      </trkpt>
      <trkpt lat="45.50613" lon="3.22344">
        <ele>540</ele>
        <time>2012-11-03T09:54:30Z</time>
      </trkpt>
      <trkpt lat="45.50609" lon="3.2237">
        <ele>539</ele>
        <time>2012-11-03T09:54:37Z</time>
      </trkpt>
      <trkpt lat="45.50606" lon="3.22399">
        <ele>538</ele>
        <time>2012-11-03T09:54:43Z</time>
      </trkpt>
      <trkpt lat="45.50604" lon="3.22428">
        <ele>537</ele>
        <time>2012-11-03T09:54:48Z</time>
      </trkpt>
      <trkpt lat="45.50606" lon="3.22454">
        <ele>537</ele>
        <time>2012-11-03T09:54:52Z</time>
      </trkpt>
      <trkpt lat="45.50608" lon="3.22484">
        <ele>537</ele>
        <time>2012-11-03T09:54:57Z</time>
      </trkpt>
      <trkpt lat="45.5061" lon="3.22512">
        <ele>537</ele>
        <time>2012-11-03T09:55:02Z</time>
      </trkpt>
      <trkpt lat="45.50611" lon="3.22539">
        <ele>537</ele>
        <time>2012-11-03T09:55:07Z</time>
      </trkpt>
      <trkpt lat="45.50609" lon="3.22564">
        <ele>537</ele>
        <time>2012-11-03T09:55:11Z</time>
      </trkpt>
      <trkpt lat="45.50606" lon="3.22595">
        <ele>537</ele>
        <time>2012-11-03T09:55:16Z</time>
      </trkpt>
      <trkpt lat="45.50604" lon="3.22621">
        <ele>537</ele>
        <time>2012-11-03T09:55:20Z</time>
      </trkpt>
      <trkpt lat="45.50603" lon="3.22649">
        <ele>537</ele>
        <time>2012-11-03T09:55:24Z</time>
      </trkpt>
      <trkpt lat="45.50601" lon="3.22675">
        <ele>538</ele>
        <time>2012-11-03T09:55:29Z</time>
      </trkpt>
      <trkpt lat="45.50599" lon="3.22704">
        <ele>540</ele>
        <time>2012-11-03T09:55:34Z</time>
      </trkpt>
      <trkpt lat="45.50597" lon="3.22734">
        <ele>541</ele>
        <time>2012-11-03T09:55:40Z</time>
      </trkpt>
      <trkpt lat="45.50594" lon="3.22761">
        <ele>544</ele>
        <time>2012-11-03T09:55:46Z</time>
      </trkpt>
      <trkpt lat="45.50582" lon="3.22784">
        <ele>544</ele>
        <time>2012-11-03T09:55:54Z</time>
      </trkpt>
      <trkpt lat="45.50579" lon="3.22812">
        <ele>547</ele>
        <time>2012-11-03T09:56:01Z</time>
      </trkpt>
      <trkpt lat="45.50556" lon="3.22819">
        <ele>547</ele>
        <time>2012-11-03T09:56:15Z</time>
      </trkpt>
      <trkpt lat="45.50539" lon="3.22806">
        <ele>546</ele>
        <time>2012-11-03T09:56:20Z</time>
      </trkpt>
      <trkpt lat="45.50522" lon="3.22791">
        <ele>545</ele>
        <time>2012-11-03T09:56:23Z</time>
      </trkpt>
      <trkpt lat="45.50507" lon="3.22771">
        <ele>543</ele>
        <time>2012-11-03T09:56:26Z</time>
      </trkpt>
      <trkpt lat="45.50493" lon="3.22752">
        <ele>541</ele>
        <time>2012-11-03T09:56:29Z</time>
      </trkpt>
      <trkpt lat="45.50482" lon="3.22731">
        <ele>538</ele>
        <time>2012-11-03T09:56:33Z</time>
      </trkpt>
      <trkpt lat="45.50471" lon="3.2271">
        <ele>537</ele>
        <time>2012-11-03T09:56:35Z</time>
      </trkpt>
      <trkpt lat="45.50453" lon="3.22695">
        <ele>536</ele>
        <time>2012-11-03T09:56:38Z</time>
      </trkpt>
      <trkpt lat="45.50432" lon="3.22674">
        <ele>535</ele>
        <time>2012-11-03T09:56:41Z</time>
      </trkpt>
      <trkpt lat="45.50419" lon="3.22656">
        <ele>531</ele>
        <time>2012-11-03T09:56:44Z</time>
      </trkpt>
      <trkpt lat="45.50404" lon="3.22638">
        <ele>530</ele>
        <time>2012-11-03T09:56:47Z</time>
      </trkpt>
      <trkpt lat="45.50392" lon="3.22612">
        <ele>528</ele>
        <time>2012-11-03T09:56:50Z</time>
      </trkpt>
      <trkpt lat="45.50375" lon="3.22589">
        <ele>528</ele>
        <time>2012-11-03T09:56:52Z</time>
      </trkpt>
      <trkpt lat="45.50364" lon="3.22568">
        <ele>524</ele>
        <time>2012-11-03T09:56:55Z</time>
      </trkpt>
      <trkpt lat="45.50352" lon="3.22545">
        <ele>523</ele>
        <time>2012-11-03T09:57:00Z</time>
      </trkpt>
      <trkpt lat="45.50337" lon="3.22527">
        <ele>522</ele>
        <time>2012-11-03T09:57:07Z</time>
      </trkpt>
      <trkpt lat="45.50322" lon="3.22511">
        <ele>522</ele>
        <time>2012-11-03T09:57:12Z</time>
      </trkpt>
      <trkpt lat="45.50305" lon="3.22497">
        <ele>517</ele>
        <time>2012-11-03T09:57:17Z</time>
      </trkpt>
      <trkpt lat="45.50287" lon="3.22483">
        <ele>517</ele>
        <time>2012-11-03T09:57:20Z</time>
      </trkpt>
      <trkpt lat="45.50269" lon="3.22476">
        <ele>517</ele>
        <time>2012-11-03T09:57:23Z</time>
      </trkpt>
      <trkpt lat="45.5025" lon="3.22459">
        <ele>514</ele>
        <time>2012-11-03T09:57:27Z</time>
      </trkpt>
      <trkpt lat="45.50233" lon="3.22446">
        <ele>513</ele>
        <time>2012-11-03T09:57:30Z</time>
      </trkpt>
      <trkpt lat="45.50218" lon="3.22424">
        <ele>512</ele>
        <time>2012-11-03T09:57:33Z</time>
      </trkpt>
      <trkpt lat="45.50207" lon="3.22397">
        <ele>507</ele>
        <time>2012-11-03T09:57:36Z</time>
      </trkpt>
      <trkpt lat="45.50199" lon="3.22373">
        <ele>506</ele>
        <time>2012-11-03T09:57:39Z</time>
      </trkpt>
      <trkpt lat="45.50194" lon="3.22347">
        <ele>505</ele>
        <time>2012-11-03T09:57:45Z</time>
      </trkpt>
      <trkpt lat="45.50173" lon="3.22332">
        <ele>502</ele>
        <time>2012-11-03T09:57:49Z</time>
      </trkpt>
      <trkpt lat="45.50152" lon="3.2232">
        <ele>499</ele>
        <time>2012-11-03T09:57:52Z</time>
      </trkpt>
      <trkpt lat="45.50129" lon="3.22308">
        <ele>498</ele>
        <time>2012-11-03T09:57:55Z</time>
      </trkpt>
      <trkpt lat="45.50107" lon="3.22285">
        <ele>497</ele>
        <time>2012-11-03T09:57:58Z</time>
      </trkpt>
      <trkpt lat="45.501" lon="3.2226">
        <ele>495</ele>
        <time>2012-11-03T09:58:00Z</time>
      </trkpt>
      <trkpt lat="45.50091" lon="3.22232">
        <ele>492</ele>
        <time>2012-11-03T09:58:02Z</time>
      </trkpt>
      <trkpt lat="45.50083" lon="3.22209">
        <ele>488</ele>
        <time>2012-11-03T09:58:04Z</time>
      </trkpt>
      <trkpt lat="45.50072" lon="3.22183">
        <ele>487</ele>
        <time>2012-11-03T09:58:07Z</time>
      </trkpt>
      <trkpt lat="45.50054" lon="3.22175">
        <ele>487</ele>
        <time>2012-11-03T09:58:13Z</time>
      </trkpt>
      <trkpt lat="45.50036" lon="3.2219">
        <ele>486</ele>
        <time>2012-11-03T09:58:20Z</time>
      </trkpt>
      <trkpt lat="45.50015" lon="3.22185">
        <ele>485</ele>
        <time>2012-11-03T09:58:26Z</time>
      </trkpt>
      <trkpt lat="45.49997" lon="3.22187">
        <ele>483</ele>
        <time>2012-11-03T09:58:30Z</time>
      </trkpt>
      <trkpt lat="45.49977" lon="3.22183">
        <ele>483</ele>
        <time>2012-11-03T09:58:34Z</time>
      </trkpt>
      <trkpt lat="45.49957" lon="3.22179">
        <ele>482</ele>
        <time>2012-11-03T09:58:38Z</time>
      </trkpt>
      <trkpt lat="45.49936" lon="3.22178">
        <ele>481</ele>
        <time>2012-11-03T09:58:42Z</time>
      </trkpt>
      <trkpt lat="45.49913" lon="3.22178">
        <ele>480</ele>
        <time>2012-11-03T09:58:46Z</time>
      </trkpt>
      <trkpt lat="45.49893" lon="3.22177">
        <ele>480</ele>
        <time>2012-11-03T09:58:49Z</time>
      </trkpt>
      <trkpt lat="45.4987" lon="3.22174">
        <ele>480</ele>
        <time>2012-11-03T09:58:53Z</time>
      </trkpt>
      <trkpt lat="45.49852" lon="3.22172">
        <ele>478</ele>
        <time>2012-11-03T09:58:57Z</time>
      </trkpt>
      <trkpt lat="45.49832" lon="3.22174">
        <ele>477</ele>
        <time>2012-11-03T09:59:01Z</time>
      </trkpt>
      <trkpt lat="45.49813" lon="3.22179">
        <ele>478</ele>
        <time>2012-11-03T09:59:05Z</time>
      </trkpt>
      <trkpt lat="45.49795" lon="3.22188">
        <ele>478</ele>
        <time>2012-11-03T09:59:10Z</time>
      </trkpt>
      <trkpt lat="45.49774" lon="3.22196">
        <ele>478</ele>
        <time>2012-11-03T09:59:16Z</time>
      </trkpt>
      <trkpt lat="45.49753" lon="3.22198">
        <ele>478</ele>
        <time>2012-11-03T09:59:22Z</time>
      </trkpt>
      <trkpt lat="45.49732" lon="3.22197">
        <ele>477</ele>
        <time>2012-11-03T09:59:27Z</time>
      </trkpt>
      <trkpt lat="45.49714" lon="3.22195">
        <ele>477</ele>
        <time>2012-11-03T09:59:31Z</time>
      </trkpt>
      <trkpt lat="45.49691" lon="3.22193">
        <ele>477</ele>
        <time>2012-11-03T09:59:36Z</time>
      </trkpt>
      <trkpt lat="45.49672" lon="3.22191">
        <ele>477</ele>
        <time>2012-11-03T09:59:40Z</time>
      </trkpt>
      <trkpt lat="45.49652" lon="3.2219">
        <ele>476</ele>
        <time>2012-11-03T09:59:44Z</time>
      </trkpt>
      <trkpt lat="45.49633" lon="3.22185">
        <ele>476</ele>
        <time>2012-11-03T09:59:48Z</time>
      </trkpt>
      <trkpt lat="45.49612" lon="3.22182">
        <ele>476</ele>
        <time>2012-11-03T09:59:52Z</time>
      </trkpt>
      <trkpt lat="45.49591" lon="3.22181">
        <ele>475</ele>
        <time>2012-11-03T09:59:57Z</time>
      </trkpt>
      <trkpt lat="45.4957" lon="3.22184">
        <ele>475</ele>
        <time>2012-11-03T10:00:02Z</time>
      </trkpt>
      <trkpt lat="45.4955" lon="3.22187">
        <ele>475</ele>
        <time>2012-11-03T10:00:07Z</time>
      </trkpt>
      <trkpt lat="45.4953" lon="3.22192">
        <ele>475</ele>
        <time>2012-11-03T10:00:12Z</time>
      </trkpt>
      <trkpt lat="45.49509" lon="3.22197">
        <ele>474</ele>
        <time>2012-11-03T10:00:17Z</time>
      </trkpt>
      <trkpt lat="45.49488" lon="3.22199">
        <ele>473</ele>
        <time>2012-11-03T10:00:22Z</time>
      </trkpt>
      <trkpt lat="45.49466" lon="3.22201">
        <ele>473</ele>
        <time>2012-11-03T10:00:27Z</time>
      </trkpt>
      <trkpt lat="45.49444" lon="3.22203">
        <ele>473</ele>
        <time>2012-11-03T10:00:32Z</time>
      </trkpt>
      <trkpt lat="45.49423" lon="3.22209">
        <ele>473</ele>
        <time>2012-11-03T10:00:37Z</time>
      </trkpt>
      <trkpt lat="45.49403" lon="3.22215">
        <ele>472</ele>
        <time>2012-11-03T10:00:42Z</time>
      </trkpt>
      <trkpt lat="45.49382" lon="3.2222">
        <ele>472</ele>
        <time>2012-11-03T10:00:47Z</time>
      </trkpt>
      <trkpt lat="45.49362" lon="3.2223">
        <ele>473</ele>
        <time>2012-11-03T10:00:53Z</time>
      </trkpt>
      <trkpt lat="45.49344" lon="3.22236">
        <ele>473</ele>
        <time>2012-11-03T10:00:58Z</time>
      </trkpt>
      <trkpt lat="45.49326" lon="3.22243">
        <ele>474</ele>
        <time>2012-11-03T10:01:03Z</time>
      </trkpt>
      <trkpt lat="45.49308" lon="3.22247">
        <ele>473</ele>
        <time>2012-11-03T10:01:08Z</time>
      </trkpt>
      <trkpt lat="45.49291" lon="3.2226">
        <ele>476</ele>
        <time>2012-11-03T10:01:14Z</time>
      </trkpt>
      <trkpt lat="45.49292" lon="3.22288">
        <ele>477</ele>
        <time>2012-11-03T10:01:20Z</time>
      </trkpt>
      <trkpt lat="45.49294" lon="3.22314">
        <ele>478</ele>
        <time>2012-11-03T10:01:27Z</time>
      </trkpt>
      <trkpt lat="45.49279" lon="3.22332">
        <ele>478</ele>
        <time>2012-11-03T10:01:37Z</time>
      </trkpt>
      <trkpt lat="45.49259" lon="3.22335">
        <ele>481</ele>
        <time>2012-11-03T10:01:42Z</time>
      </trkpt>
      <trkpt lat="45.49239" lon="3.22336">
        <ele>480</ele>
        <time>2012-11-03T10:01:46Z</time>
      </trkpt>
      <trkpt lat="45.49218" lon="3.22339">
        <ele>480</ele>
        <time>2012-11-03T10:01:52Z</time>
      </trkpt>
      <trkpt lat="45.49198" lon="3.22344">
        <ele>480</ele>
        <time>2012-11-03T10:01:56Z</time>
      </trkpt>
      <trkpt lat="45.49179" lon="3.22348">
        <ele>479</ele>
        <time>2012-11-03T10:02:01Z</time>
      </trkpt>
      <trkpt lat="45.49162" lon="3.22354">
        <ele>477</ele>
        <time>2012-11-03T10:02:05Z</time>
      </trkpt>
      <trkpt lat="45.49143" lon="3.22357">
        <ele>477</ele>
        <time>2012-11-03T10:02:09Z</time>
      </trkpt>
      <trkpt lat="45.49122" lon="3.22362">
        <ele>477</ele>
        <time>2012-11-03T10:02:14Z</time>
      </trkpt>
      <trkpt lat="45.49103" lon="3.22363">
        <ele>476</ele>
        <time>2012-11-03T10:02:18Z</time>
      </trkpt>
      <trkpt lat="45.49081" lon="3.22363">
        <ele>474</ele>
        <time>2012-11-03T10:02:22Z</time>
      </trkpt>
      <trkpt lat="45.49062" lon="3.22363">
        <ele>473</ele>
        <time>2012-11-03T10:02:25Z</time>
      </trkpt>
      <trkpt lat="45.49042" lon="3.22366">
        <ele>473</ele>
        <time>2012-11-03T10:02:28Z</time>
      </trkpt>
      <trkpt lat="45.49023" lon="3.22369">
        <ele>473</ele>
        <time>2012-11-03T10:02:31Z</time>
      </trkpt>
      <trkpt lat="45.49004" lon="3.22373">
        <ele>473</ele>
        <time>2012-11-03T10:02:34Z</time>
      </trkpt>
      <trkpt lat="45.48985" lon="3.22379">
        <ele>471</ele>
        <time>2012-11-03T10:02:37Z</time>
      </trkpt>
      <trkpt lat="45.48963" lon="3.22384">
        <ele>471</ele>
        <time>2012-11-03T10:02:41Z</time>
      </trkpt>
      <trkpt lat="45.4894" lon="3.22387">
        <ele>470</ele>
        <time>2012-11-03T10:02:45Z</time>
      </trkpt>
      <trkpt lat="45.48921" lon="3.22381">
        <ele>470</ele>
        <time>2012-11-03T10:02:49Z</time>
      </trkpt>
      <trkpt lat="45.48901" lon="3.22372">
        <ele>468</ele>
        <time>2012-11-03T10:02:53Z</time>
      </trkpt>
      <trkpt lat="45.48879" lon="3.22368">
        <ele>467</ele>
        <time>2012-11-03T10:02:57Z</time>
      </trkpt>
      <trkpt lat="45.48861" lon="3.22363">
        <ele>467</ele>
        <time>2012-11-03T10:03:00Z</time>
      </trkpt>
      <trkpt lat="45.48842" lon="3.22361">
        <ele>466</ele>
        <time>2012-11-03T10:03:03Z</time>
      </trkpt>
      <trkpt lat="45.48822" lon="3.22353">
        <ele>464</ele>
        <time>2012-11-03T10:03:06Z</time>
      </trkpt>
      <trkpt lat="45.48801" lon="3.22345">
        <ele>463</ele>
        <time>2012-11-03T10:03:09Z</time>
      </trkpt>
      <trkpt lat="45.48779" lon="3.22339">
        <ele>462</ele>
        <time>2012-11-03T10:03:12Z</time>
      </trkpt>
      <trkpt lat="45.48759" lon="3.22335">
        <ele>460</ele>
        <time>2012-11-03T10:03:15Z</time>
      </trkpt>
      <trkpt lat="45.48738" lon="3.2233">
        <ele>456</ele>
        <time>2012-11-03T10:03:18Z</time>
      </trkpt>
      <trkpt lat="45.48717" lon="3.22328">
        <ele>454</ele>
        <time>2012-11-03T10:03:21Z</time>
      </trkpt>
      <trkpt lat="45.48696" lon="3.22324">
        <ele>453</ele>
        <time>2012-11-03T10:03:24Z</time>
      </trkpt>
      <trkpt lat="45.48674" lon="3.2232">
        <ele>453</ele>
        <time>2012-11-03T10:03:27Z</time>
      </trkpt>
      <trkpt lat="45.48653" lon="3.22315">
        <ele>451</ele>
        <time>2012-11-03T10:03:30Z</time>
      </trkpt>
      <trkpt lat="45.48633" lon="3.22311">
        <ele>450</ele>
        <time>2012-11-03T10:03:33Z</time>
      </trkpt>
      <trkpt lat="45.48609" lon="3.22306">
        <ele>450</ele>
        <time>2012-11-03T10:03:37Z</time>
      </trkpt>
      <trkpt lat="45.48591" lon="3.22298">
        <ele>449</ele>
        <time>2012-11-03T10:03:40Z</time>
      </trkpt>
      <trkpt lat="45.48571" lon="3.22285">
        <ele>447</ele>
        <time>2012-11-03T10:03:43Z</time>
      </trkpt>
      <trkpt lat="45.48553" lon="3.22274">
        <ele>447</ele>
        <time>2012-11-03T10:03:46Z</time>
      </trkpt>
      <trkpt lat="45.48534" lon="3.22265">
        <ele>446</ele>
        <time>2012-11-03T10:03:49Z</time>
      </trkpt>
      <trkpt lat="45.48524" lon="3.22236">
        <ele>442</ele>
        <time>2012-11-03T10:03:53Z</time>
      </trkpt>
      <trkpt lat="45.48524" lon="3.22208">
        <ele>441</ele>
        <time>2012-11-03T10:03:56Z</time>
      </trkpt>
      <trkpt lat="45.48521" lon="3.22177">
        <ele>440</ele>
        <time>2012-11-03T10:03:59Z</time>
      </trkpt>
      <trkpt lat="45.4852" lon="3.22145">
        <ele>439</ele>
        <time>2012-11-03T10:04:02Z</time>
      </trkpt>
      <trkpt lat="45.48517" lon="3.22112">
        <ele>439</ele>
        <time>2012-11-03T10:04:05Z</time>
      </trkpt>
      <trkpt lat="45.48516" lon="3.22081">
        <ele>438</ele>
        <time>2012-11-03T10:04:08Z</time>
      </trkpt>
      <trkpt lat="45.48511" lon="3.22053">
        <ele>438</ele>
        <time>2012-11-03T10:04:12Z</time>
      </trkpt>
      <trkpt lat="45.48489" lon="3.2205">
        <ele>434</ele>
        <time>2012-11-03T10:04:17Z</time>
      </trkpt>
      <trkpt lat="45.48466" lon="3.22059">
        <ele>434</ele>
        <time>2012-11-03T10:04:21Z</time>
      </trkpt>
      <trkpt lat="45.48446" lon="3.22066">
        <ele>433</ele>
        <time>2012-11-03T10:04:24Z</time>
      </trkpt>
      <trkpt lat="45.48426" lon="3.22073">
        <ele>433</ele>
        <time>2012-11-03T10:04:27Z</time>
      </trkpt>
      <trkpt lat="45.48405" lon="3.22079">
        <ele>431</ele>
        <time>2012-11-03T10:04:30Z</time>
      </trkpt>
      <trkpt lat="45.48384" lon="3.22088">
        <ele>432</ele>
        <time>2012-11-03T10:04:33Z</time>
      </trkpt>
      <trkpt lat="45.48362" lon="3.22096">
        <ele>432</ele>
        <time>2012-11-03T10:04:36Z</time>
      </trkpt>
      <trkpt lat="45.48343" lon="3.22104">
        <ele>432</ele>
        <time>2012-11-03T10:04:39Z</time>
      </trkpt>
      <trkpt lat="45.48324" lon="3.22108">
        <ele>432</ele>
        <time>2012-11-03T10:04:42Z</time>
      </trkpt>
      <trkpt lat="45.48306" lon="3.22106">
        <ele>432</ele>
        <time>2012-11-03T10:04:45Z</time>
      </trkpt>
      <trkpt lat="45.48284" lon="3.22103">
        <ele>432</ele>
        <time>2012-11-03T10:04:49Z</time>
      </trkpt>
      <trkpt lat="45.48266" lon="3.22098">
        <ele>432</ele>
        <time>2012-11-03T10:04:52Z</time>
      </trkpt>
      <trkpt lat="45.48243" lon="3.2209">
        <ele>431</ele>
        <time>2012-11-03T10:04:56Z</time>
      </trkpt>
      <trkpt lat="45.48223" lon="3.22086">
        <ele>432</ele>
        <time>2012-11-03T10:04:59Z</time>
      </trkpt>
      <trkpt lat="45.48202" lon="3.22087">
        <ele>432</ele>
        <time>2012-11-03T10:05:02Z</time>
      </trkpt>
      <trkpt lat="45.48181" lon="3.22089">
        <ele>431</ele>
        <time>2012-11-03T10:05:04Z</time>
      </trkpt>
      <trkpt lat="45.48159" lon="3.2209">
        <ele>430</ele>
        <time>2012-11-03T10:05:08Z</time>
      </trkpt>
      <trkpt lat="45.48138" lon="3.2209">
        <ele>431</ele>
        <time>2012-11-03T10:05:11Z</time>
      </trkpt>
      <trkpt lat="45.48116" lon="3.22092">
        <ele>430</ele>
        <time>2012-11-03T10:05:14Z</time>
      </trkpt>
      <trkpt lat="45.48095" lon="3.22093">
        <ele>430</ele>
        <time>2012-11-03T10:05:16Z</time>
      </trkpt>
      <trkpt lat="45.48072" lon="3.22088">
        <ele>429</ele>
        <time>2012-11-03T10:05:20Z</time>
      </trkpt>
      <trkpt lat="45.48052" lon="3.22073">
        <ele>426</ele>
        <time>2012-11-03T10:05:23Z</time>
      </trkpt>
      <trkpt lat="45.4803" lon="3.22063">
        <ele>426</ele>
        <time>2012-11-03T10:05:26Z</time>
      </trkpt>
      <trkpt lat="45.48012" lon="3.22066">
        <ele>426</ele>
        <time>2012-11-03T10:05:29Z</time>
      </trkpt>
      <trkpt lat="45.47993" lon="3.22069">
        <ele>426</ele>
        <time>2012-11-03T10:05:32Z</time>
      </trkpt>
      <trkpt lat="45.47971" lon="3.22067">
        <ele>426</ele>
        <time>2012-11-03T10:05:36Z</time>
      </trkpt>
      <trkpt lat="45.4795" lon="3.2207">
        <ele>426</ele>
        <time>2012-11-03T10:05:40Z</time>
      </trkpt>
      <trkpt lat="45.47928" lon="3.22072">
        <ele>426</ele>
        <time>2012-11-03T10:05:43Z</time>
      </trkpt>
      <trkpt lat="45.47905" lon="3.22059">
        <ele>425</ele>
        <time>2012-11-03T10:05:46Z</time>
      </trkpt>
      <trkpt lat="45.47886" lon="3.22056">
        <ele>424</ele>
        <time>2012-11-03T10:05:48Z</time>
      </trkpt>
      <trkpt lat="45.47861" lon="3.22051">
        <ele>424</ele>
        <time>2012-11-03T10:05:52Z</time>
      </trkpt>
      <trkpt lat="45.47842" lon="3.22047">
        <ele>423</ele>
        <time>2012-11-03T10:05:55Z</time>
      </trkpt>
      <trkpt lat="45.4782" lon="3.22042">
        <ele>422</ele>
        <time>2012-11-03T10:05:58Z</time>
      </trkpt>
      <trkpt lat="45.47797" lon="3.22035">
        <ele>422</ele>
        <time>2012-11-03T10:06:01Z</time>
      </trkpt>
      <trkpt lat="45.47776" lon="3.2203">
        <ele>422</ele>
        <time>2012-11-03T10:06:04Z</time>
      </trkpt>
      <trkpt lat="45.47753" lon="3.22026">
        <ele>421</ele>
        <time>2012-11-03T10:06:07Z</time>
      </trkpt>
      <trkpt lat="45.47732" lon="3.22025">
        <ele>421</ele>
        <time>2012-11-03T10:06:09Z</time>
      </trkpt>
      <trkpt lat="45.47711" lon="3.22023">
        <ele>420</ele>
        <time>2012-11-03T10:06:12Z</time>
      </trkpt>
      <trkpt lat="45.47688" lon="3.22024">
        <ele>420</ele>
        <time>2012-11-03T10:06:16Z</time>
      </trkpt>
      <trkpt lat="45.47668" lon="3.22023">
        <ele>419</ele>
        <time>2012-11-03T10:06:19Z</time>
      </trkpt>
      <trkpt lat="45.47647" lon="3.2202">
        <ele>418</ele>
        <time>2012-11-03T10:06:22Z</time>
      </trkpt>
      <trkpt lat="45.47628" lon="3.22023">
        <ele>418</ele>
        <time>2012-11-03T10:06:25Z</time>
      </trkpt>
      <trkpt lat="45.47609" lon="3.22028">
        <ele>418</ele>
        <time>2012-11-03T10:06:28Z</time>
      </trkpt>
      <trkpt lat="45.47588" lon="3.22033">
        <ele>418</ele>
        <time>2012-11-03T10:06:31Z</time>
      </trkpt>
      <trkpt lat="45.47564" lon="3.22038">
        <ele>416</ele>
        <time>2012-11-03T10:06:35Z</time>
      </trkpt>
      <trkpt lat="45.47544" lon="3.22045">
        <ele>416</ele>
        <time>2012-11-03T10:06:38Z</time>
      </trkpt>
      <trkpt lat="45.47524" lon="3.2205">
        <ele>416</ele>
        <time>2012-11-03T10:06:41Z</time>
      </trkpt>
      <trkpt lat="45.47505" lon="3.2206">
        <ele>416</ele>
        <time>2012-11-03T10:06:44Z</time>
      </trkpt>
      <trkpt lat="45.47483" lon="3.22066">
        <ele>414</ele>
        <time>2012-11-03T10:06:47Z</time>
      </trkpt>
      <trkpt lat="45.47462" lon="3.22071">
        <ele>414</ele>
        <time>2012-11-03T10:06:50Z</time>
      </trkpt>
      <trkpt lat="45.47442" lon="3.22077">
        <ele>413</ele>
        <time>2012-11-03T10:06:53Z</time>
      </trkpt>
      <trkpt lat="45.47423" lon="3.22087">
        <ele>415</ele>
        <time>2012-11-03T10:06:56Z</time>
      </trkpt>
      <trkpt lat="45.47405" lon="3.22095">
        <ele>414</ele>
        <time>2012-11-03T10:06:59Z</time>
      </trkpt>
      <trkpt lat="45.47386" lon="3.22106">
        <ele>414</ele>
        <time>2012-11-03T10:07:02Z</time>
      </trkpt>
      <trkpt lat="45.47368" lon="3.22116">
        <ele>413</ele>
        <time>2012-11-03T10:07:05Z</time>
      </trkpt>
      <trkpt lat="45.47349" lon="3.22126">
        <ele>413</ele>
        <time>2012-11-03T10:07:08Z</time>
      </trkpt>
      <trkpt lat="45.47331" lon="3.22138">
        <ele>412</ele>
        <time>2012-11-03T10:07:11Z</time>
      </trkpt>
      <trkpt lat="45.47314" lon="3.22151">
        <ele>412</ele>
        <time>2012-11-03T10:07:14Z</time>
      </trkpt>
      <trkpt lat="45.47296" lon="3.22167">
        <ele>411</ele>
        <time>2012-11-03T10:07:17Z</time>
      </trkpt>
      <trkpt lat="45.47278" lon="3.22183">
        <ele>413</ele>
        <time>2012-11-03T10:07:20Z</time>
      </trkpt>
      <trkpt lat="45.4726" lon="3.222">
        <ele>412</ele>
        <time>2012-11-03T10:07:23Z</time>
      </trkpt>
      <trkpt lat="45.47243" lon="3.22215">
        <ele>410</ele>
        <time>2012-11-03T10:07:26Z</time>
      </trkpt>
      <trkpt lat="45.47225" lon="3.22231">
        <ele>410</ele>
        <time>2012-11-03T10:07:29Z</time>
      </trkpt>
      <trkpt lat="45.47206" lon="3.22245">
        <ele>409</ele>
        <time>2012-11-03T10:07:32Z</time>
      </trkpt>
      <trkpt lat="45.47186" lon="3.22261">
        <ele>409</ele>
        <time>2012-11-03T10:07:35Z</time>
      </trkpt>
      <trkpt lat="45.4717" lon="3.22278">
        <ele>409</ele>
        <time>2012-11-03T10:07:38Z</time>
      </trkpt>
      <trkpt lat="45.47153" lon="3.22293">
        <ele>408</ele>
        <time>2012-11-03T10:07:41Z</time>
      </trkpt>
      <trkpt lat="45.47146" lon="3.22323">
        <ele>408</ele>
        <time>2012-11-03T10:07:45Z</time>
      </trkpt>
      <trkpt lat="45.47136" lon="3.22355">
        <ele>407</ele>
        <time>2012-11-03T10:07:49Z</time>
      </trkpt>
      <trkpt lat="45.47127" lon="3.22382">
        <ele>407</ele>
        <time>2012-11-03T10:07:52Z</time>
      </trkpt>
      <trkpt lat="45.47118" lon="3.22407">
        <ele>407</ele>
        <time>2012-11-03T10:07:55Z</time>
      </trkpt>
      <trkpt lat="45.47109" lon="3.22433">
        <ele>407</ele>
        <time>2012-11-03T10:07:58Z</time>
      </trkpt>
      <trkpt lat="45.47101" lon="3.2246">
        <ele>407</ele>
        <time>2012-11-03T10:08:01Z</time>
      </trkpt>
      <trkpt lat="45.47094" lon="3.22486">
        <ele>407</ele>
        <time>2012-11-03T10:08:04Z</time>
      </trkpt>
      <trkpt lat="45.47084" lon="3.22508">
        <ele>407</ele>
        <time>2012-11-03T10:08:07Z</time>
      </trkpt>
      <trkpt lat="45.47077" lon="3.22535">
        <ele>407</ele>
        <time>2012-11-03T10:08:10Z</time>
      </trkpt>
      <trkpt lat="45.47073" lon="3.22563">
        <ele>407</ele>
        <time>2012-11-03T10:08:13Z</time>
      </trkpt>
      <trkpt lat="45.47074" lon="3.22595">
        <ele>407</ele>
        <time>2012-11-03T10:08:16Z</time>
      </trkpt>
      <trkpt lat="45.47075" lon="3.22628">
        <ele>407</ele>
        <time>2012-11-03T10:08:19Z</time>
      </trkpt>
      <trkpt lat="45.47075" lon="3.22658">
        <ele>407</ele>
        <time>2012-11-03T10:08:22Z</time>
      </trkpt>
      <trkpt lat="45.47075" lon="3.22687">
        <ele>406</ele>
        <time>2012-11-03T10:08:25Z</time>
      </trkpt>
      <trkpt lat="45.47076" lon="3.22717">
        <ele>406</ele>
        <time>2012-11-03T10:08:28Z</time>
      </trkpt>
      <trkpt lat="45.47074" lon="3.22746">
        <ele>405</ele>
        <time>2012-11-03T10:08:31Z</time>
      </trkpt>
      <trkpt lat="45.47074" lon="3.22778">
        <ele>404</ele>
        <time>2012-11-03T10:08:34Z</time>
      </trkpt>
      <trkpt lat="45.47075" lon="3.22805">
        <ele>404</ele>
        <time>2012-11-03T10:08:37Z</time>
      </trkpt>
      <trkpt lat="45.47076" lon="3.22834">
        <ele>404</ele>
        <time>2012-11-03T10:08:40Z</time>
      </trkpt>
      <trkpt lat="45.47081" lon="3.2286">
        <ele>404</ele>
        <time>2012-11-03T10:08:43Z</time>
      </trkpt>
      <trkpt lat="45.47091" lon="3.22887">
        <ele>406</ele>
        <time>2012-11-03T10:08:46Z</time>
      </trkpt>
      <trkpt lat="45.47103" lon="3.22914">
        <ele>405</ele>
        <time>2012-11-03T10:08:49Z</time>
      </trkpt>
      <trkpt lat="45.47114" lon="3.22939">
        <ele>405</ele>
        <time>2012-11-03T10:08:52Z</time>
      </trkpt>
      <trkpt lat="45.47124" lon="3.22964">
        <ele>405</ele>
        <time>2012-11-03T10:08:55Z</time>
      </trkpt>
      <trkpt lat="45.47133" lon="3.22991">
        <ele>405</ele>
        <time>2012-11-03T10:08:58Z</time>
      </trkpt>
      <trkpt lat="45.47141" lon="3.23016">
        <ele>405</ele>
        <time>2012-11-03T10:09:01Z</time>
      </trkpt>
      <trkpt lat="45.47146" lon="3.23048">
        <ele>404</ele>
        <time>2012-11-03T10:09:05Z</time>
      </trkpt>
      <trkpt lat="45.47131" lon="3.2307">
        <ele>404</ele>
        <time>2012-11-03T10:09:09Z</time>
      </trkpt>
      <trkpt lat="45.47112" lon="3.23087">
        <ele>403</ele>
        <time>2012-11-03T10:09:13Z</time>
      </trkpt>
      <trkpt lat="45.47094" lon="3.23108">
        <ele>403</ele>
        <time>2012-11-03T10:09:17Z</time>
      </trkpt>
      <trkpt lat="45.47078" lon="3.23128">
        <ele>403</ele>
        <time>2012-11-03T10:09:21Z</time>
      </trkpt>
      <trkpt lat="45.47061" lon="3.23148">
        <ele>403</ele>
        <time>2012-11-03T10:09:26Z</time>
      </trkpt>
      <trkpt lat="45.47045" lon="3.23168">
        <ele>402</ele>
        <time>2012-11-03T10:09:31Z</time>
      </trkpt>
      <trkpt lat="45.47027" lon="3.23189">
        <ele>403</ele>
        <time>2012-11-03T10:09:36Z</time>
      </trkpt>
      <trkpt lat="45.47011" lon="3.23203">
        <ele>403</ele>
        <time>2012-11-03T10:09:39Z</time>
      </trkpt>
      <trkpt lat="45.46992" lon="3.23221">
        <ele>404</ele>
        <time>2012-11-03T10:09:43Z</time>
      </trkpt>
      <trkpt lat="45.46975" lon="3.23238">
        <ele>404</ele>
        <time>2012-11-03T10:09:47Z</time>
      </trkpt>
      <trkpt lat="45.46958" lon="3.23254">
        <ele>405</ele>
        <time>2012-11-03T10:09:52Z</time>
      </trkpt>
      <trkpt lat="45.46943" lon="3.23271">
        <ele>406</ele>
        <time>2012-11-03T10:09:58Z</time>
      </trkpt>
      <trkpt lat="45.46929" lon="3.23291">
        <ele>407</ele>
        <time>2012-11-03T10:10:04Z</time>
      </trkpt>
      <trkpt lat="45.46913" lon="3.23306">
        <ele>408</ele>
        <time>2012-11-03T10:10:10Z</time>
      </trkpt>
      <trkpt lat="45.46896" lon="3.23315">
        <ele>408</ele>
        <time>2012-11-03T10:10:16Z</time>
      </trkpt>
      <trkpt lat="45.46877" lon="3.23322">
        <ele>408</ele>
        <time>2012-11-03T10:10:22Z</time>
      </trkpt>
      <trkpt lat="45.46857" lon="3.2333">
        <ele>409</ele>
        <time>2012-11-03T10:10:28Z</time>
      </trkpt>
      <trkpt lat="45.46837" lon="3.23335">
        <ele>410</ele>
        <time>2012-11-03T10:10:33Z</time>
      </trkpt>
      <trkpt lat="45.46818" lon="3.23342">
        <ele>411</ele>
        <time>2012-11-03T10:10:38Z</time>
      </trkpt>
      <trkpt lat="45.46798" lon="3.23354">
        <ele>412</ele>
        <time>2012-11-03T10:10:43Z</time>
      </trkpt>
      <trkpt lat="45.46781" lon="3.23364">
        <ele>412</ele>
        <time>2012-11-03T10:10:47Z</time>
      </trkpt>
      <trkpt lat="45.46764" lon="3.23376">
        <ele>413</ele>
        <time>2012-11-03T10:10:51Z</time>
      </trkpt>
      <trkpt lat="45.46747" lon="3.23387">
        <ele>412</ele>
        <time>2012-11-03T10:10:55Z</time>
      </trkpt>
      <trkpt lat="45.4673" lon="3.23399">
        <ele>413</ele>
        <time>2012-11-03T10:10:59Z</time>
      </trkpt>
      <trkpt lat="45.46713" lon="3.2341">
        <ele>413</ele>
        <time>2012-11-03T10:11:03Z</time>
      </trkpt>
      <trkpt lat="45.46694" lon="3.23419">
        <ele>414</ele>
        <time>2012-11-03T10:11:07Z</time>
      </trkpt>
      <trkpt lat="45.46675" lon="3.23428">
        <ele>414</ele>
        <time>2012-11-03T10:11:11Z</time>
      </trkpt>
      <trkpt lat="45.46656" lon="3.23439">
        <ele>413</ele>
        <time>2012-11-03T10:11:15Z</time>
      </trkpt>
      <trkpt lat="45.46637" lon="3.23448">
        <ele>413</ele>
        <time>2012-11-03T10:11:19Z</time>
      </trkpt>
      <trkpt lat="45.46619" lon="3.23456">
        <ele>413</ele>
        <time>2012-11-03T10:11:23Z</time>
      </trkpt>
      <trkpt lat="45.46596" lon="3.23468">
        <ele>413</ele>
        <time>2012-11-03T10:11:27Z</time>
      </trkpt>
      <trkpt lat="45.46579" lon="3.23482">
        <ele>411</ele>
        <time>2012-11-03T10:11:30Z</time>
      </trkpt>
      <trkpt lat="45.46564" lon="3.23505">
        <ele>412</ele>
        <time>2012-11-03T10:11:33Z</time>
      </trkpt>
      <trkpt lat="45.4655" lon="3.23526">
        <ele>411</ele>
        <time>2012-11-03T10:11:36Z</time>
      </trkpt>
      <trkpt lat="45.46537" lon="3.23546">
        <ele>411</ele>
        <time>2012-11-03T10:11:39Z</time>
      </trkpt>
      <trkpt lat="45.46521" lon="3.23566">
        <ele>411</ele>
        <time>2012-11-03T10:11:41Z</time>
      </trkpt>
      <trkpt lat="45.46502" lon="3.23586">
        <ele>409</ele>
        <time>2012-11-03T10:11:46Z</time>
      </trkpt>
      <trkpt lat="45.46486" lon="3.236">
        <ele>408</ele>
        <time>2012-11-03T10:11:49Z</time>
      </trkpt>
      <trkpt lat="45.46472" lon="3.23618">
        <ele>408</ele>
        <time>2012-11-03T10:11:52Z</time>
      </trkpt>
      <trkpt lat="45.46456" lon="3.23635">
        <ele>408</ele>
        <time>2012-11-03T10:11:55Z</time>
      </trkpt>
      <trkpt lat="45.46441" lon="3.23658">
        <ele>407</ele>
        <time>2012-11-03T10:11:59Z</time>
      </trkpt>
      <trkpt lat="45.46426" lon="3.23672">
        <ele>407</ele>
        <time>2012-11-03T10:12:02Z</time>
      </trkpt>
      <trkpt lat="45.4641" lon="3.23686">
        <ele>406</ele>
        <time>2012-11-03T10:12:05Z</time>
      </trkpt>
      <trkpt lat="45.46393" lon="3.23698">
        <ele>405</ele>
        <time>2012-11-03T10:12:08Z</time>
      </trkpt>
      <trkpt lat="45.46371" lon="3.23712">
        <ele>405</ele>
        <time>2012-11-03T10:12:12Z</time>
      </trkpt>
      <trkpt lat="45.46354" lon="3.23722">
        <ele>405</ele>
        <time>2012-11-03T10:12:15Z</time>
      </trkpt>
      <trkpt lat="45.46334" lon="3.23735">
        <ele>405</ele>
        <time>2012-11-03T10:12:19Z</time>
      </trkpt>
      <trkpt lat="45.46317" lon="3.23747">
        <ele>405</ele>
        <time>2012-11-03T10:12:22Z</time>
      </trkpt>
      <trkpt lat="45.46298" lon="3.23762">
        <ele>404</ele>
        <time>2012-11-03T10:12:26Z</time>
      </trkpt>
      <trkpt lat="45.46278" lon="3.23775">
        <ele>404</ele>
        <time>2012-11-03T10:12:30Z</time>
      </trkpt>
      <trkpt lat="45.46261" lon="3.23787">
        <ele>404</ele>
        <time>2012-11-03T10:12:33Z</time>
      </trkpt>
      <trkpt lat="45.46245" lon="3.23804">
        <ele>404</ele>
        <time>2012-11-03T10:12:37Z</time>
      </trkpt>
      <trkpt lat="45.46224" lon="3.23818">
        <ele>404</ele>
        <time>2012-11-03T10:12:41Z</time>
      </trkpt>
      <trkpt lat="45.46202" lon="3.23831">
        <ele>404</ele>
        <time>2012-11-03T10:12:45Z</time>
      </trkpt>
      <trkpt lat="45.46185" lon="3.23841">
        <ele>404</ele>
        <time>2012-11-03T10:12:48Z</time>
      </trkpt>
      <trkpt lat="45.46167" lon="3.23849">
        <ele>404</ele>
        <time>2012-11-03T10:12:51Z</time>
      </trkpt>
      <trkpt lat="45.46149" lon="3.23856">
        <ele>405</ele>
        <time>2012-11-03T10:12:54Z</time>
      </trkpt>
      <trkpt lat="45.4613" lon="3.23865">
        <ele>406</ele>
        <time>2012-11-03T10:12:57Z</time>
      </trkpt>
      <trkpt lat="45.46112" lon="3.23872">
        <ele>406</ele>
        <time>2012-11-03T10:12:59Z</time>
      </trkpt>
      <trkpt lat="45.46094" lon="3.23878">
        <ele>407</ele>
        <time>2012-11-03T10:13:03Z</time>
      </trkpt>
      <trkpt lat="45.46072" lon="3.23879">
        <ele>408</ele>
        <time>2012-11-03T10:13:07Z</time>
      </trkpt>
      <trkpt lat="45.4605" lon="3.23883">
        <ele>408</ele>
        <time>2012-11-03T10:13:11Z</time>
      </trkpt>
      <trkpt lat="45.46033" lon="3.23892">
        <ele>408</ele>
        <time>2012-11-03T10:13:16Z</time>
      </trkpt>
      <trkpt lat="45.46023" lon="3.23866">
        <ele>408</ele>
        <time>2012-11-03T10:13:25Z</time>
      </trkpt>
      <trkpt lat="45.46028" lon="3.2384">
        <ele>408</ele>
        <time>2012-11-03T10:13:29Z</time>
      </trkpt>
      <trkpt lat="45.46022" lon="3.23809">
        <ele>408</ele>
        <time>2012-11-03T10:13:33Z</time>
      </trkpt>
      <trkpt lat="45.46027" lon="3.23781">
        <ele>407</ele>
        <time>2012-11-03T10:13:38Z</time>
      </trkpt>
      <trkpt lat="45.46041" lon="3.23765">
        <ele>407</ele>
        <time>2012-11-03T10:13:43Z</time>
      </trkpt>
      <trkpt lat="45.46055" lon="3.23742">
        <ele>406</ele>
        <time>2012-11-03T10:13:48Z</time>
      </trkpt>
      <trkpt lat="45.46061" lon="3.23717">
        <ele>406</ele>
        <time>2012-11-03T10:13:52Z</time>
      </trkpt>
      <trkpt lat="45.46066" lon="3.23688">
        <ele>406</ele>
        <time>2012-11-03T10:13:56Z</time>
      </trkpt>
      <trkpt lat="45.46069" lon="3.23657">
        <ele>406</ele>
        <time>2012-11-03T10:14:00Z</time>
      </trkpt>
      <trkpt lat="45.46073" lon="3.23631">
        <ele>407</ele>
        <time>2012-11-03T10:14:04Z</time>
      </trkpt>
      <trkpt lat="45.46072" lon="3.23602">
        <ele>407</ele>
        <time>2012-11-03T10:14:08Z</time>
      </trkpt>
      <trkpt lat="45.4608" lon="3.2357">
        <ele>407</ele>
        <time>2012-11-03T10:14:12Z</time>
      </trkpt>
      <trkpt lat="45.46088" lon="3.23541">
        <ele>406</ele>
        <time>2012-11-03T10:14:16Z</time>
      </trkpt>
      <trkpt lat="45.46098" lon="3.23517">
        <ele>406</ele>
        <time>2012-11-03T10:14:20Z</time>
      </trkpt>
      <trkpt lat="45.46114" lon="3.23503">
        <ele>406</ele>
        <time>2012-11-03T10:14:23Z</time>
      </trkpt>
      <trkpt lat="45.46116" lon="3.23477">
        <ele>406</ele>
        <time>2012-11-03T10:14:26Z</time>
      </trkpt>
      <trkpt lat="45.46117" lon="3.23445">
        <ele>406</ele>
        <time>2012-11-03T10:14:30Z</time>
      </trkpt>
      <trkpt lat="45.46115" lon="3.23413">
        <ele>407</ele>
        <time>2012-11-03T10:14:34Z</time>
      </trkpt>
      <trkpt lat="45.46109" lon="3.23385">
        <ele>407</ele>
        <time>2012-11-03T10:14:38Z</time>
      </trkpt>
      <trkpt lat="45.46102" lon="3.23358">
        <ele>407</ele>
        <time>2012-11-03T10:14:42Z</time>
      </trkpt>
      <trkpt lat="45.4609" lon="3.23334">
        <ele>407</ele>
        <time>2012-11-03T10:14:46Z</time>
      </trkpt>
      <trkpt lat="45.46078" lon="3.23314">
        <ele>407</ele>
        <time>2012-11-03T10:14:50Z</time>
      </trkpt>
      <trkpt lat="45.46065" lon="3.23296">
        <ele>407</ele>
        <time>2012-11-03T10:14:54Z</time>
      </trkpt>
      <trkpt lat="45.4605" lon="3.23278">
        <ele>406</ele>
        <time>2012-11-03T10:14:58Z</time>
      </trkpt>
      <trkpt lat="45.46037" lon="3.2326">
        <ele>407</ele>
        <time>2012-11-03T10:15:02Z</time>
      </trkpt>
      <trkpt lat="45.46023" lon="3.23235">
        <ele>407</ele>
        <time>2012-11-03T10:15:07Z</time>
      </trkpt>
      <trkpt lat="45.46005" lon="3.23225">
        <ele>407</ele>
        <time>2012-11-03T10:15:12Z</time>
      </trkpt>
      <trkpt lat="45.45989" lon="3.23244">
        <ele>407</ele>
        <time>2012-11-03T10:15:17Z</time>
      </trkpt>
      <trkpt lat="45.45977" lon="3.23266">
        <ele>407</ele>
        <time>2012-11-03T10:15:21Z</time>
      </trkpt>
      <trkpt lat="45.45964" lon="3.23285">
        <ele>407</ele>
        <time>2012-11-03T10:15:24Z</time>
      </trkpt>
      <trkpt lat="45.45921" lon="3.23354">
        <ele>407</ele>
        <time>2012-11-03T10:15:36Z</time>
      </trkpt>
      <trkpt lat="45.4592" lon="3.23383">
        <ele>407</ele>
        <time>2012-11-03T10:15:39Z</time>
      </trkpt>
      <trkpt lat="45.45912" lon="3.23414">
        <ele>408</ele>
        <time>2012-11-03T10:15:43Z</time>
      </trkpt>
      <trkpt lat="45.45906" lon="3.23445">
        <ele>409</ele>
        <time>2012-11-03T10:15:47Z</time>
      </trkpt>
      <trkpt lat="45.45903" lon="3.23478">
        <ele>409</ele>
        <time>2012-11-03T10:15:51Z</time>
      </trkpt>
      <trkpt lat="45.45896" lon="3.23505">
        <ele>409</ele>
        <time>2012-11-03T10:15:55Z</time>
      </trkpt>
      <trkpt lat="45.45891" lon="3.23537">
        <ele>409</ele>
        <time>2012-11-03T10:15:59Z</time>
      </trkpt>
      <trkpt lat="45.45882" lon="3.23564">
        <ele>409</ele>
        <time>2012-11-03T10:16:03Z</time>
      </trkpt>
      <trkpt lat="45.45865" lon="3.23575">
        <ele>410</ele>
        <time>2012-11-03T10:16:07Z</time>
      </trkpt>
      <trkpt lat="45.45847" lon="3.23588">
        <ele>410</ele>
        <time>2012-11-03T10:16:11Z</time>
      </trkpt>
      <trkpt lat="45.45835" lon="3.23568">
        <ele>410</ele>
        <time>2012-11-03T10:16:19Z</time>
      </trkpt>
      <trkpt lat="45.45829" lon="3.23537">
        <ele>411</ele>
        <time>2012-11-03T10:16:24Z</time>
      </trkpt>
      <trkpt lat="45.45822" lon="3.23509">
        <ele>411</ele>
        <time>2012-11-03T10:16:28Z</time>
      </trkpt>
      <trkpt lat="45.45816" lon="3.23478">
        <ele>411</ele>
        <time>2012-11-03T10:16:32Z</time>
      </trkpt>
      <trkpt lat="45.4581" lon="3.23449">
        <ele>412</ele>
        <time>2012-11-03T10:16:36Z</time>
      </trkpt>
      <trkpt lat="45.45801" lon="3.23419">
        <ele>412</ele>
        <time>2012-11-03T10:16:40Z</time>
      </trkpt>
      <trkpt lat="45.45796" lon="3.23389">
        <ele>412</ele>
        <time>2012-11-03T10:16:44Z</time>
      </trkpt>
      <trkpt lat="45.4579" lon="3.23361">
        <ele>411</ele>
        <time>2012-11-03T10:16:48Z</time>
      </trkpt>
      <trkpt lat="45.45785" lon="3.23331">
        <ele>412</ele>
        <time>2012-11-03T10:16:52Z</time>
      </trkpt>
      <trkpt lat="45.4578" lon="3.23301">
        <ele>412</ele>
        <time>2012-11-03T10:16:57Z</time>
      </trkpt>
      <trkpt lat="45.45775" lon="3.23272">
        <ele>412</ele>
        <time>2012-11-03T10:17:01Z</time>
      </trkpt>
      <trkpt lat="45.45765" lon="3.23245">
        <ele>412</ele>
        <time>2012-11-03T10:17:05Z</time>
      </trkpt>
      <trkpt lat="45.45759" lon="3.23219">
        <ele>412</ele>
        <time>2012-11-03T10:17:10Z</time>
      </trkpt>
      <trkpt lat="45.45755" lon="3.23193">
        <ele>412</ele>
        <time>2012-11-03T10:17:14Z</time>
      </trkpt>
      <trkpt lat="45.45751" lon="3.23162">
        <ele>412</ele>
        <time>2012-11-03T10:17:19Z</time>
      </trkpt>
      <trkpt lat="45.45748" lon="3.23131">
        <ele>412</ele>
        <time>2012-11-03T10:17:23Z</time>
      </trkpt>
      <trkpt lat="45.45735" lon="3.23107">
        <ele>413</ele>
        <time>2012-11-03T10:17:29Z</time>
      </trkpt>
      <trkpt lat="45.45728" lon="3.23079">
        <ele>413</ele>
        <time>2012-11-03T10:17:36Z</time>
      </trkpt>
      <trkpt lat="45.45726" lon="3.23053">
        <ele>413</ele>
        <time>2012-11-03T10:17:40Z</time>
      </trkpt>
      <trkpt lat="45.45718" lon="3.23025">
        <ele>413</ele>
        <time>2012-11-03T10:17:44Z</time>
      </trkpt>
      <trkpt lat="45.45712" lon="3.22996">
        <ele>413</ele>
        <time>2012-11-03T10:17:48Z</time>
      </trkpt>
      <trkpt lat="45.45708" lon="3.22969">
        <ele>413</ele>
        <time>2012-11-03T10:17:52Z</time>
      </trkpt>
      <trkpt lat="45.45703" lon="3.22939">
        <ele>414</ele>
        <time>2012-11-03T10:17:56Z</time>
      </trkpt>
      <trkpt lat="45.45697" lon="3.22909">
        <ele>414</ele>
        <time>2012-11-03T10:18:00Z</time>
      </trkpt>
      <trkpt lat="45.45692" lon="3.2288">
        <ele>414</ele>
        <time>2012-11-03T10:18:04Z</time>
      </trkpt>
      <trkpt lat="45.45687" lon="3.22854">
        <ele>414</ele>
        <time>2012-11-03T10:18:08Z</time>
      </trkpt>
      <trkpt lat="45.45683" lon="3.22826">
        <ele>414</ele>
        <time>2012-11-03T10:18:12Z</time>
      </trkpt>
      <trkpt lat="45.45678" lon="3.22802">
        <ele>414</ele>
        <time>2012-11-03T10:18:16Z</time>
      </trkpt>
      <trkpt lat="45.4567" lon="3.22775">
        <ele>413</ele>
        <time>2012-11-03T10:18:20Z</time>
      </trkpt>
      <trkpt lat="45.45665" lon="3.22744">
        <ele>413</ele>
        <time>2012-11-03T10:18:25Z</time>
      </trkpt>
      <trkpt lat="45.45661" lon="3.22717">
        <ele>414</ele>
        <time>2012-11-03T10:18:29Z</time>
      </trkpt>
      <trkpt lat="45.45657" lon="3.22688">
        <ele>414</ele>
        <time>2012-11-03T10:18:34Z</time>
      </trkpt>
      <trkpt lat="45.45655" lon="3.22662">
        <ele>414</ele>
        <time>2012-11-03T10:18:38Z</time>
      </trkpt>
      <trkpt lat="45.45648" lon="3.22632">
        <ele>414</ele>
        <time>2012-11-03T10:18:43Z</time>
      </trkpt>
      <trkpt lat="45.45642" lon="3.22607">
        <ele>415</ele>
        <time>2012-11-03T10:18:47Z</time>
      </trkpt>
      <trkpt lat="45.45638" lon="3.2258">
        <ele>415</ele>
        <time>2012-11-03T10:18:51Z</time>
      </trkpt>
      <trkpt lat="45.45623" lon="3.22555">
        <ele>415</ele>
        <time>2012-11-03T10:18:56Z</time>
      </trkpt>
      <trkpt lat="45.4561" lon="3.22538">
        <ele>416</ele>
        <time>2012-11-03T10:19:00Z</time>
      </trkpt>
      <trkpt lat="45.45593" lon="3.22518">
        <ele>416</ele>
        <time>2012-11-03T10:19:04Z</time>
      </trkpt>
      <trkpt lat="45.45582" lon="3.22492">
        <ele>416</ele>
        <time>2012-11-03T10:19:08Z</time>
      </trkpt>
      <trkpt lat="45.45571" lon="3.22471">
        <ele>416</ele>
        <time>2012-11-03T10:19:12Z</time>
      </trkpt>
      <trkpt lat="45.45557" lon="3.22446">
        <ele>416</ele>
        <time>2012-11-03T10:19:17Z</time>
      </trkpt>
      <trkpt lat="45.4556" lon="3.22419">
        <ele>416</ele>
        <time>2012-11-03T10:19:24Z</time>
      </trkpt>
      <trkpt lat="45.45574" lon="3.22401">
        <ele>416</ele>
        <time>2012-11-03T10:19:29Z</time>
      </trkpt>
      <trkpt lat="45.45569" lon="3.22374">
        <ele>416</ele>
        <time>2012-11-03T10:19:33Z</time>
      </trkpt>
      <trkpt lat="45.45561" lon="3.22348">
        <ele>416</ele>
        <time>2012-11-03T10:19:37Z</time>
      </trkpt>
      <trkpt lat="45.45552" lon="3.22323">
        <ele>417</ele>
        <time>2012-11-03T10:19:41Z</time>
      </trkpt>
      <trkpt lat="45.45543" lon="3.22297">
        <ele>417</ele>
        <time>2012-11-03T10:19:45Z</time>
      </trkpt>
      <trkpt lat="45.45535" lon="3.22265">
        <ele>417</ele>
        <time>2012-11-03T10:19:50Z</time>
      </trkpt>
      <trkpt lat="45.45531" lon="3.22236">
        <ele>418</ele>
        <time>2012-11-03T10:19:54Z</time>
      </trkpt>
      <trkpt lat="45.45518" lon="3.22207">
        <ele>418</ele>
        <time>2012-11-03T10:19:59Z</time>
      </trkpt>
      <trkpt lat="45.45514" lon="3.22183">
        <ele>418</ele>
        <time>2012-11-03T10:20:03Z</time>
      </trkpt>
      <trkpt lat="45.45507" lon="3.22157">
        <ele>418</ele>
        <time>2012-11-03T10:20:07Z</time>
      </trkpt>
      <trkpt lat="45.45492" lon="3.22138">
        <ele>418</ele>
        <time>2012-11-03T10:20:11Z</time>
      </trkpt>
      <trkpt lat="45.45474" lon="3.22132">
        <ele>418</ele>
        <time>2012-11-03T10:20:16Z</time>
      </trkpt>
      <trkpt lat="45.45455" lon="3.22128">
        <ele>417</ele>
        <time>2012-11-03T10:20:23Z</time>
      </trkpt>
      <trkpt lat="45.45437" lon="3.22121">
        <ele>418</ele>
        <time>2012-11-03T10:20:30Z</time>
      </trkpt>
      <trkpt lat="45.45416" lon="3.22119">
        <ele>418</ele>
        <time>2012-11-03T10:20:37Z</time>
      </trkpt>
      <trkpt lat="45.45393" lon="3.22116">
        <ele>418</ele>
        <time>2012-11-03T10:20:43Z</time>
      </trkpt>
      <trkpt lat="45.45372" lon="3.2211">
        <ele>418</ele>
        <time>2012-11-03T10:20:48Z</time>
      </trkpt>
      <trkpt lat="45.45352" lon="3.22103">
        <ele>418</ele>
        <time>2012-11-03T10:20:53Z</time>
      </trkpt>
      <trkpt lat="45.45333" lon="3.22098">
        <ele>419</ele>
        <time>2012-11-03T10:20:58Z</time>
      </trkpt>
      <trkpt lat="45.45313" lon="3.22096">
        <ele>419</ele>
        <time>2012-11-03T10:21:02Z</time>
      </trkpt>
      <trkpt lat="45.45294" lon="3.22085">
        <ele>420</ele>
        <time>2012-11-03T10:21:08Z</time>
      </trkpt>
      <trkpt lat="45.45279" lon="3.22068">
        <ele>420</ele>
        <time>2012-11-03T10:21:15Z</time>
      </trkpt>
      <trkpt lat="45.45265" lon="3.22044">
        <ele>420</ele>
        <time>2012-11-03T10:21:22Z</time>
      </trkpt>
      <trkpt lat="45.45254" lon="3.2202">
        <ele>420</ele>
        <time>2012-11-03T10:21:27Z</time>
      </trkpt>
      <trkpt lat="45.45244" lon="3.21998">
        <ele>420</ele>
        <time>2012-11-03T10:21:32Z</time>
      </trkpt>
      <trkpt lat="45.45231" lon="3.21974">
        <ele>420</ele>
        <time>2012-11-03T10:21:37Z</time>
      </trkpt>
      <trkpt lat="45.45212" lon="3.21965">
        <ele>420</ele>
        <time>2012-11-03T10:21:43Z</time>
      </trkpt>
      <trkpt lat="45.45194" lon="3.21954">
        <ele>420</ele>
        <time>2012-11-03T10:21:49Z</time>
      </trkpt>
      <trkpt lat="45.45173" lon="3.2195">
        <ele>421</ele>
        <time>2012-11-03T10:21:54Z</time>
      </trkpt>
      <trkpt lat="45.45152" lon="3.21949">
        <ele>421</ele>
        <time>2012-11-03T10:21:59Z</time>
      </trkpt>
      <trkpt lat="45.45132" lon="3.21945">
        <ele>421</ele>
        <time>2012-11-03T10:22:04Z</time>
      </trkpt>
      <trkpt lat="45.45113" lon="3.21935">
        <ele>421</ele>
        <time>2012-11-03T10:22:09Z</time>
      </trkpt>
      <trkpt lat="45.45094" lon="3.21927">
        <ele>422</ele>
        <time>2012-11-03T10:22:14Z</time>
      </trkpt>
      <trkpt lat="45.45074" lon="3.21918">
        <ele>422</ele>
        <time>2012-11-03T10:22:20Z</time>
      </trkpt>
      <trkpt lat="45.45055" lon="3.21908">
        <ele>423</ele>
        <time>2012-11-03T10:22:26Z</time>
      </trkpt>
      <trkpt lat="45.45035" lon="3.21898">
        <ele>423</ele>
        <time>2012-11-03T10:22:32Z</time>
      </trkpt>
      <trkpt lat="45.45015" lon="3.21888">
        <ele>424</ele>
        <time>2012-11-03T10:22:38Z</time>
      </trkpt>
      <trkpt lat="45.44995" lon="3.21877">
        <ele>425</ele>
        <time>2012-11-03T10:22:44Z</time>
      </trkpt>
      <trkpt lat="45.44976" lon="3.21869">
        <ele>425</ele>
        <time>2012-11-03T10:22:51Z</time>
      </trkpt>
      <trkpt lat="45.44957" lon="3.21859">
        <ele>425</ele>
        <time>2012-11-03T10:22:57Z</time>
      </trkpt>
      <trkpt lat="45.4494" lon="3.21849">
        <ele>426</ele>
        <time>2012-11-03T10:23:02Z</time>
      </trkpt>
      <trkpt lat="45.44924" lon="3.21836">
        <ele>427</ele>
        <time>2012-11-03T10:23:07Z</time>
      </trkpt>
      <trkpt lat="45.44905" lon="3.21824">
        <ele>427</ele>
        <time>2012-11-03T10:23:12Z</time>
      </trkpt>
      <trkpt lat="45.44887" lon="3.21817">
        <ele>427</ele>
        <time>2012-11-03T10:23:18Z</time>
      </trkpt>
      <trkpt lat="45.44868" lon="3.21809">
        <ele>427</ele>
        <time>2012-11-03T10:23:22Z</time>
      </trkpt>
      <trkpt lat="45.44849" lon="3.21802">
        <ele>427</ele>
        <time>2012-11-03T10:23:28Z</time>
      </trkpt>
      <trkpt lat="45.44829" lon="3.21796">
        <ele>428</ele>
        <time>2012-11-03T10:23:33Z</time>
      </trkpt>
      <trkpt lat="45.44808" lon="3.21795">
        <ele>428</ele>
        <time>2012-11-03T10:23:38Z</time>
      </trkpt>
      <trkpt lat="45.44789" lon="3.21788">
        <ele>428</ele>
        <time>2012-11-03T10:23:43Z</time>
      </trkpt>
      <trkpt lat="45.44771" lon="3.21783">
        <ele>429</ele>
        <time>2012-11-03T10:23:49Z</time>
      </trkpt>
      <trkpt lat="45.44752" lon="3.21767">
        <ele>429</ele>
        <time>2012-11-03T10:23:55Z</time>
      </trkpt>
      <trkpt lat="45.44735" lon="3.21754">
        <ele>429</ele>
        <time>2012-11-03T10:24:01Z</time>
      </trkpt>
      <trkpt lat="45.44718" lon="3.21743">
        <ele>429</ele>
        <time>2012-11-03T10:24:07Z</time>
      </trkpt>
      <trkpt lat="45.447" lon="3.2173">
        <ele>429</ele>
        <time>2012-11-03T10:24:12Z</time>
      </trkpt>
      <trkpt lat="45.44682" lon="3.21715">
        <ele>429</ele>
        <time>2012-11-03T10:24:17Z</time>
      </trkpt>
      <trkpt lat="45.44664" lon="3.21702">
        <ele>429</ele>
        <time>2012-11-03T10:24:22Z</time>
      </trkpt>
      <trkpt lat="45.44646" lon="3.21689">
        <ele>429</ele>
        <time>2012-11-03T10:24:27Z</time>
      </trkpt>
      <trkpt lat="45.44629" lon="3.21677">
        <ele>429</ele>
        <time>2012-11-03T10:24:32Z</time>
      </trkpt>
      <trkpt lat="45.4461" lon="3.21663">
        <ele>430</ele>
        <time>2012-11-03T10:24:38Z</time>
      </trkpt>
      <trkpt lat="45.44592" lon="3.21647">
        <ele>430</ele>
        <time>2012-11-03T10:24:43Z</time>
      </trkpt>
      <trkpt lat="45.44577" lon="3.21632">
        <ele>430</ele>
        <time>2012-11-03T10:24:48Z</time>
      </trkpt>
      <trkpt lat="45.4456" lon="3.21616">
        <ele>430</ele>
        <time>2012-11-03T10:24:54Z</time>
      </trkpt>
      <trkpt lat="45.44542" lon="3.21601">
        <ele>430</ele>
        <time>2012-11-03T10:24:59Z</time>
      </trkpt>
      <trkpt lat="45.44526" lon="3.21587">
        <ele>430</ele>
        <time>2012-11-03T10:25:03Z</time>
      </trkpt>
      <trkpt lat="45.44508" lon="3.21575">
        <ele>430</ele>
        <time>2012-11-03T10:25:08Z</time>
      </trkpt>
      <trkpt lat="45.44488" lon="3.21565">
        <ele>431</ele>
        <time>2012-11-03T10:25:14Z</time>
      </trkpt>
      <trkpt lat="45.44467" lon="3.21557">
        <ele>431</ele>
        <time>2012-11-03T10:25:19Z</time>
      </trkpt>
      <trkpt lat="45.44447" lon="3.21549">
        <ele>432</ele>
        <time>2012-11-03T10:25:24Z</time>
      </trkpt>
      <trkpt lat="45.44428" lon="3.21537">
        <ele>432</ele>
        <time>2012-11-03T10:25:29Z</time>
      </trkpt>
      <trkpt lat="45.44411" lon="3.2153">
        <ele>433</ele>
        <time>2012-11-03T10:25:34Z</time>
      </trkpt>
      <trkpt lat="45.44392" lon="3.21529">
        <ele>433</ele>
        <time>2012-11-03T10:25:39Z</time>
      </trkpt>
      <trkpt lat="45.44372" lon="3.21528">
        <ele>433</ele>
        <time>2012-11-03T10:25:50Z</time>
      </trkpt>
      <trkpt lat="45.44354" lon="3.2153">
        <ele>433</ele>
        <time>2012-11-03T10:25:57Z</time>
      </trkpt>
      <trkpt lat="45.44346" lon="3.21553">
        <ele>433</ele>
        <time>2012-11-03T10:26:02Z</time>
      </trkpt>
      <trkpt lat="45.44347" lon="3.21581">
        <ele>433</ele>
        <time>2012-11-03T10:26:06Z</time>
      </trkpt>
      <trkpt lat="45.44346" lon="3.21608">
        <ele>432</ele>
        <time>2012-11-03T10:26:10Z</time>
      </trkpt>
      <trkpt lat="45.44343" lon="3.21634">
        <ele>432</ele>
        <time>2012-11-03T10:26:14Z</time>
      </trkpt>
      <trkpt lat="45.44332" lon="3.21656">
        <ele>432</ele>
        <time>2012-11-03T10:26:18Z</time>
      </trkpt>
      <trkpt lat="45.44315" lon="3.21669">
        <ele>433</ele>
        <time>2012-11-03T10:26:23Z</time>
      </trkpt>
      <trkpt lat="45.44296" lon="3.21682">
        <ele>434</ele>
        <time>2012-11-03T10:26:29Z</time>
      </trkpt>
      <trkpt lat="45.44278" lon="3.21693">
        <ele>434</ele>
        <time>2012-11-03T10:26:35Z</time>
      </trkpt>
      <trkpt lat="45.4426" lon="3.21703">
        <ele>434</ele>
        <time>2012-11-03T10:26:40Z</time>
      </trkpt>
      <trkpt lat="45.44242" lon="3.21714">
        <ele>436</ele>
        <time>2012-11-03T10:26:45Z</time>
      </trkpt>
      <trkpt lat="45.44224" lon="3.21726">
        <ele>436</ele>
        <time>2012-11-03T10:26:51Z</time>
      </trkpt>
      <trkpt lat="45.44206" lon="3.21739">
        <ele>436</ele>
        <time>2012-11-03T10:26:57Z</time>
      </trkpt>
      <trkpt lat="45.44188" lon="3.21749">
        <ele>437</ele>
        <time>2012-11-03T10:27:03Z</time>
      </trkpt>
      <trkpt lat="45.4417" lon="3.21759">
        <ele>438</ele>
        <time>2012-11-03T10:27:09Z</time>
      </trkpt>
      <trkpt lat="45.44152" lon="3.21768">
        <ele>441</ele>
        <time>2012-11-03T10:27:15Z</time>
      </trkpt>
      <trkpt lat="45.44134" lon="3.21774">
        <ele>442</ele>
        <time>2012-11-03T10:27:21Z</time>
      </trkpt>
      <trkpt lat="45.44113" lon="3.21779">
        <ele>442</ele>
        <time>2012-11-03T10:27:29Z</time>
      </trkpt>
      <trkpt lat="45.44093" lon="3.21782">
        <ele>443</ele>
        <time>2012-11-03T10:27:36Z</time>
      </trkpt>
      <trkpt lat="45.44073" lon="3.21788">
        <ele>447</ele>
        <time>2012-11-03T10:27:43Z</time>
      </trkpt>
      <trkpt lat="45.44054" lon="3.21789">
        <ele>448</ele>
        <time>2012-11-03T10:27:50Z</time>
      </trkpt>
      <trkpt lat="45.44035" lon="3.21793">
        <ele>449</ele>
        <time>2012-11-03T10:27:57Z</time>
      </trkpt>
      <trkpt lat="45.44015" lon="3.21796">
        <ele>450</ele>
        <time>2012-11-03T10:28:04Z</time>
      </trkpt>
      <trkpt lat="45.43996" lon="3.21802">
        <ele>454</ele>
        <time>2012-11-03T10:28:11Z</time>
      </trkpt>
      <trkpt lat="45.43977" lon="3.21811">
        <ele>455</ele>
        <time>2012-11-03T10:28:18Z</time>
      </trkpt>
      <trkpt lat="45.43961" lon="3.21823">
        <ele>456</ele>
        <time>2012-11-03T10:28:25Z</time>
      </trkpt>
      <trkpt lat="45.43944" lon="3.21839">
        <ele>458</ele>
        <time>2012-11-03T10:28:33Z</time>
      </trkpt>
      <trkpt lat="45.43927" lon="3.21848">
        <ele>459</ele>
        <time>2012-11-03T10:28:40Z</time>
      </trkpt>
      <trkpt lat="45.4391" lon="3.21832">
        <ele>459</ele>
        <time>2012-11-03T10:28:47Z</time>
      </trkpt>
      <trkpt lat="45.43892" lon="3.2182">
        <ele>460</ele>
        <time>2012-11-03T10:28:53Z</time>
      </trkpt>
      <trkpt lat="45.43875" lon="3.21811">
        <ele>461</ele>
        <time>2012-11-03T10:28:59Z</time>
      </trkpt>
      <trkpt lat="45.43857" lon="3.21805">
        <ele>462</ele>
        <time>2012-11-03T10:29:04Z</time>
      </trkpt>
      <trkpt lat="45.43839" lon="3.21798">
        <ele>462</ele>
        <time>2012-11-03T10:29:09Z</time>
      </trkpt>
      <trkpt lat="45.43821" lon="3.2179">
        <ele>467</ele>
        <time>2012-11-03T10:29:14Z</time>
      </trkpt>
      <trkpt lat="45.43803" lon="3.21776">
        <ele>468</ele>
        <time>2012-11-03T10:29:19Z</time>
      </trkpt>
      <trkpt lat="45.43786" lon="3.21768">
        <ele>469</ele>
        <time>2012-11-03T10:29:24Z</time>
      </trkpt>
      <trkpt lat="45.43766" lon="3.21764">
        <ele>470</ele>
        <time>2012-11-03T10:29:30Z</time>
      </trkpt>
      <trkpt lat="45.43745" lon="3.21767">
        <ele>474</ele>
        <time>2012-11-03T10:29:35Z</time>
      </trkpt>
      <trkpt lat="45.43726" lon="3.21772">
        <ele>475</ele>
        <time>2012-11-03T10:29:42Z</time>
      </trkpt>
      <trkpt lat="45.43718" lon="3.21795">
        <ele>475</ele>
        <time>2012-11-03T10:29:47Z</time>
      </trkpt>
      <trkpt lat="45.4372" lon="3.21821">
        <ele>475</ele>
        <time>2012-11-03T10:29:53Z</time>
      </trkpt>
      <trkpt lat="45.4373" lon="3.21845">
        <ele>476</ele>
        <time>2012-11-03T10:29:58Z</time>
      </trkpt>
      <trkpt lat="45.43739" lon="3.21873">
        <ele>476</ele>
        <time>2012-11-03T10:30:03Z</time>
      </trkpt>
      <trkpt lat="45.43747" lon="3.21899">
        <ele>477</ele>
        <time>2012-11-03T10:30:08Z</time>
      </trkpt>
      <trkpt lat="45.43755" lon="3.21922">
        <ele>475</ele>
        <time>2012-11-03T10:30:14Z</time>
      </trkpt>
      <trkpt lat="45.43766" lon="3.21952">
        <ele>474</ele>
        <time>2012-11-03T10:31:46Z</time>
      </trkpt>
      <trkpt lat="45.43776" lon="3.21978">
        <ele>474</ele>
        <time>2012-11-03T10:31:50Z</time>
      </trkpt>
      <trkpt lat="45.43783" lon="3.22001">
        <ele>476</ele>
        <time>2012-11-03T10:31:54Z</time>
      </trkpt>
      <trkpt lat="45.43791" lon="3.2203">
        <ele>475</ele>
        <time>2012-11-03T10:31:59Z</time>
      </trkpt>
      <trkpt lat="45.43799" lon="3.22056">
        <ele>475</ele>
        <time>2012-11-03T10:32:03Z</time>
      </trkpt>
      <trkpt lat="45.4381" lon="3.22084">
        <ele>474</ele>
        <time>2012-11-03T10:32:07Z</time>
      </trkpt>
      <trkpt lat="45.43822" lon="3.22111">
        <ele>474</ele>
        <time>2012-11-03T10:32:11Z</time>
      </trkpt>
      <trkpt lat="45.43832" lon="3.22134">
        <ele>474</ele>
        <time>2012-11-03T10:32:14Z</time>
      </trkpt>
      <trkpt lat="45.43846" lon="3.22163">
        <ele>470</ele>
        <time>2012-11-03T10:32:18Z</time>
      </trkpt>
      <trkpt lat="45.43859" lon="3.22187">
        <ele>469</ele>
        <time>2012-11-03T10:32:21Z</time>
      </trkpt>
      <trkpt lat="45.4387" lon="3.22213">
        <ele>468</ele>
        <time>2012-11-03T10:32:24Z</time>
      </trkpt>
      <trkpt lat="45.43884" lon="3.22241">
        <ele>467</ele>
        <time>2012-11-03T10:32:27Z</time>
      </trkpt>
      <trkpt lat="45.43897" lon="3.2227">
        <ele>467</ele>
        <time>2012-11-03T10:32:30Z</time>
      </trkpt>
      <trkpt lat="45.43909" lon="3.22302">
        <ele>466</ele>
        <time>2012-11-03T10:32:33Z</time>
      </trkpt>
      <trkpt lat="45.43922" lon="3.22332">
        <ele>464</ele>
        <time>2012-11-03T10:32:36Z</time>
      </trkpt>
      <trkpt lat="45.43939" lon="3.2236">
        <ele>463</ele>
        <time>2012-11-03T10:32:39Z</time>
      </trkpt>
      <trkpt lat="45.43955" lon="3.22387">
        <ele>463</ele>
        <time>2012-11-03T10:32:42Z</time>
      </trkpt>
      <trkpt lat="45.43965" lon="3.22408">
        <ele>462</ele>
        <time>2012-11-03T10:32:44Z</time>
      </trkpt>
      <trkpt lat="45.43976" lon="3.22442">
        <ele>463</ele>
        <time>2012-11-03T10:32:47Z</time>
      </trkpt>
      <trkpt lat="45.43986" lon="3.22475">
        <ele>463</ele>
        <time>2012-11-03T10:32:50Z</time>
      </trkpt>
      <trkpt lat="45.44" lon="3.22505">
        <ele>463</ele>
        <time>2012-11-03T10:32:53Z</time>
      </trkpt>
      <trkpt lat="45.44011" lon="3.22536">
        <ele>461</ele>
        <time>2012-11-03T10:32:56Z</time>
      </trkpt>
      <trkpt lat="45.44019" lon="3.22566">
        <ele>461</ele>
        <time>2012-11-03T10:32:59Z</time>
      </trkpt>
      <trkpt lat="45.44027" lon="3.22595">
        <ele>461</ele>
        <time>2012-11-03T10:33:02Z</time>
      </trkpt>
      <trkpt lat="45.44033" lon="3.22622">
        <ele>461</ele>
        <time>2012-11-03T10:33:05Z</time>
      </trkpt>
      <trkpt lat="45.44031" lon="3.22648">
        <ele>462</ele>
        <time>2012-11-03T10:33:08Z</time>
      </trkpt>
      <trkpt lat="45.44028" lon="3.22681">
        <ele>462</ele>
        <time>2012-11-03T10:33:12Z</time>
      </trkpt>
      <trkpt lat="45.44022" lon="3.22711">
        <ele>463</ele>
        <time>2012-11-03T10:33:16Z</time>
      </trkpt>
      <trkpt lat="45.4402" lon="3.22738">
        <ele>463</ele>
        <time>2012-11-03T10:33:20Z</time>
      </trkpt>
      <trkpt lat="45.44021" lon="3.22768">
        <ele>463</ele>
        <time>2012-11-03T10:33:24Z</time>
      </trkpt>
      <trkpt lat="45.44023" lon="3.22801">
        <ele>463</ele>
        <time>2012-11-03T10:33:28Z</time>
      </trkpt>
      <trkpt lat="45.44029" lon="3.22833">
        <ele>463</ele>
        <time>2012-11-03T10:33:32Z</time>
      </trkpt>
      <trkpt lat="45.44034" lon="3.22867">
        <ele>462</ele>
        <time>2012-11-03T10:33:36Z</time>
      </trkpt>
      <trkpt lat="45.44037" lon="3.229">
        <ele>462</ele>
        <time>2012-11-03T10:33:40Z</time>
      </trkpt>
      <trkpt lat="45.44038" lon="3.22931">
        <ele>463</ele>
        <time>2012-11-03T10:33:44Z</time>
      </trkpt>
      <trkpt lat="45.44038" lon="3.22961">
        <ele>463</ele>
        <time>2012-11-03T10:33:48Z</time>
      </trkpt>
      <trkpt lat="45.44037" lon="3.22993">
        <ele>463</ele>
        <time>2012-11-03T10:33:52Z</time>
      </trkpt>
      <trkpt lat="45.44036" lon="3.23022">
        <ele>464</ele>
        <time>2012-11-03T10:33:56Z</time>
      </trkpt>
      <trkpt lat="45.44032" lon="3.23051">
        <ele>463</ele>
        <time>2012-11-03T10:34:00Z</time>
      </trkpt>
      <trkpt lat="45.44027" lon="3.23081">
        <ele>464</ele>
        <time>2012-11-03T10:34:04Z</time>
      </trkpt>
      <trkpt lat="45.44021" lon="3.2311">
        <ele>463</ele>
        <time>2012-11-03T10:34:08Z</time>
      </trkpt>
      <trkpt lat="45.44015" lon="3.2314">
        <ele>463</ele>
        <time>2012-11-03T10:34:12Z</time>
      </trkpt>
      <trkpt lat="45.4401" lon="3.23171">
        <ele>464</ele>
        <time>2012-11-03T10:34:16Z</time>
      </trkpt>
      <trkpt lat="45.44004" lon="3.23203">
        <ele>462</ele>
        <time>2012-11-03T10:34:20Z</time>
      </trkpt>
      <trkpt lat="45.44" lon="3.23235">
        <ele>466</ele>
        <time>2012-11-03T10:34:24Z</time>
      </trkpt>
      <trkpt lat="45.43995" lon="3.23265">
        <ele>466</ele>
        <time>2012-11-03T10:34:28Z</time>
      </trkpt>
      <trkpt lat="45.43989" lon="3.23292">
        <ele>466</ele>
        <time>2012-11-03T10:34:32Z</time>
      </trkpt>
      <trkpt lat="45.43983" lon="3.23318">
        <ele>466</ele>
        <time>2012-11-03T10:34:37Z</time>
      </trkpt>
      <trkpt lat="45.43978" lon="3.23348">
        <ele>465</ele>
        <time>2012-11-03T10:34:42Z</time>
      </trkpt>
      <trkpt lat="45.43973" lon="3.23374">
        <ele>465</ele>
        <time>2012-11-03T10:34:47Z</time>
      </trkpt>
      <trkpt lat="45.43965" lon="3.23403">
        <ele>465</ele>
        <time>2012-11-03T10:34:52Z</time>
      </trkpt>
      <trkpt lat="45.43958" lon="3.23433">
        <ele>465</ele>
        <time>2012-11-03T10:34:57Z</time>
      </trkpt>
      <trkpt lat="45.43947" lon="3.23457">
        <ele>465</ele>
        <time>2012-11-03T10:35:02Z</time>
      </trkpt>
      <trkpt lat="45.4393" lon="3.23467">
        <ele>466</ele>
        <time>2012-11-03T10:35:08Z</time>
      </trkpt>
      <trkpt lat="45.43912" lon="3.23477">
        <ele>472</ele>
        <time>2012-11-03T10:35:14Z</time>
      </trkpt>
      <trkpt lat="45.43901" lon="3.23501">
        <ele>471</ele>
        <time>2012-11-03T10:35:20Z</time>
      </trkpt>
      <trkpt lat="45.43893" lon="3.23524">
        <ele>472</ele>
        <time>2012-11-03T10:35:26Z</time>
      </trkpt>
      <trkpt lat="45.43878" lon="3.23541">
        <ele>473</ele>
        <time>2012-11-03T10:35:32Z</time>
      </trkpt>
      <trkpt lat="45.43863" lon="3.23558">
        <ele>474</ele>
        <time>2012-11-03T10:35:38Z</time>
      </trkpt>
      <trkpt lat="45.43851" lon="3.2358">
        <ele>476</ele>
        <time>2012-11-03T10:35:45Z</time>
      </trkpt>
      <trkpt lat="45.43845" lon="3.23604">
        <ele>475</ele>
        <time>2012-11-03T10:35:51Z</time>
      </trkpt>
      <trkpt lat="45.43839" lon="3.23632">
        <ele>475</ele>
        <time>2012-11-03T10:35:58Z</time>
      </trkpt>
      <trkpt lat="45.43831" lon="3.23658">
        <ele>480</ele>
        <time>2012-11-03T10:36:05Z</time>
      </trkpt>
      <trkpt lat="45.43824" lon="3.23684">
        <ele>480</ele>
        <time>2012-11-03T10:36:12Z</time>
      </trkpt>
      <trkpt lat="45.43809" lon="3.23703">
        <ele>482</ele>
        <time>2012-11-03T10:36:20Z</time>
      </trkpt>
      <trkpt lat="45.4379" lon="3.23711">
        <ele>483</ele>
        <time>2012-11-03T10:36:28Z</time>
      </trkpt>
      <trkpt lat="45.43773" lon="3.23718">
        <ele>484</ele>
        <time>2012-11-03T10:36:36Z</time>
      </trkpt>
      <trkpt lat="45.43754" lon="3.23728">
        <ele>485</ele>
        <time>2012-11-03T10:36:45Z</time>
      </trkpt>
      <trkpt lat="45.43737" lon="3.23736">
        <ele>491</ele>
        <time>2012-11-03T10:36:53Z</time>
      </trkpt>
      <trkpt lat="45.43719" lon="3.23748">
        <ele>493</ele>
        <time>2012-11-03T10:37:03Z</time>
      </trkpt>
      <trkpt lat="45.43704" lon="3.23765">
        <ele>493</ele>
        <time>2012-11-03T10:37:12Z</time>
      </trkpt>
      <trkpt lat="45.43694" lon="3.23786">
        <ele>494</ele>
        <time>2012-11-03T10:37:21Z</time>
      </trkpt>
      <trkpt lat="45.43684" lon="3.23808">
        <ele>494</ele>
        <time>2012-11-03T10:37:28Z</time>
      </trkpt>
      <trkpt lat="45.43668" lon="3.23827">
        <ele>496</ele>
        <time>2012-11-03T10:37:35Z</time>
      </trkpt>
      <trkpt lat="45.43653" lon="3.23846">
        <ele>498</ele>
        <time>2012-11-03T10:37:41Z</time>
      </trkpt>
      <trkpt lat="45.43639" lon="3.23864">
        <ele>498</ele>
        <time>2012-11-03T10:37:47Z</time>
      </trkpt>
      <trkpt lat="45.43623" lon="3.23883">
        <ele>498</ele>
        <time>2012-11-03T10:37:53Z</time>
      </trkpt>
      <trkpt lat="45.43614" lon="3.23907">
        <ele>498</ele>
        <time>2012-11-03T10:37:59Z</time>
      </trkpt>
      <trkpt lat="45.43607" lon="3.23935">
        <ele>497</ele>
        <time>2012-11-03T10:38:05Z</time>
      </trkpt>
      <trkpt lat="45.43605" lon="3.23964">
        <ele>496</ele>
        <time>2012-11-03T10:38:11Z</time>
      </trkpt>
      <trkpt lat="45.43606" lon="3.23995">
        <ele>497</ele>
        <time>2012-11-03T10:38:16Z</time>
      </trkpt>
      <trkpt lat="45.43607" lon="3.24021">
        <ele>496</ele>
        <time>2012-11-03T10:38:20Z</time>
      </trkpt>
      <trkpt lat="45.43598" lon="3.24044">
        <ele>496</ele>
        <time>2012-11-03T10:38:24Z</time>
      </trkpt>
      <trkpt lat="45.4358" lon="3.24054">
        <ele>502</ele>
        <time>2012-11-03T10:38:29Z</time>
      </trkpt>
      <trkpt lat="45.43561" lon="3.24061">
        <ele>503</ele>
        <time>2012-11-03T10:38:35Z</time>
      </trkpt>
      <trkpt lat="45.43542" lon="3.24065">
        <ele>504</ele>
        <time>2012-11-03T10:38:41Z</time>
      </trkpt>
      <trkpt lat="45.43523" lon="3.24067">
        <ele>504</ele>
        <time>2012-11-03T10:38:47Z</time>
      </trkpt>
      <trkpt lat="45.43505" lon="3.24072">
        <ele>505</ele>
        <time>2012-11-03T10:38:53Z</time>
      </trkpt>
      <trkpt lat="45.43487" lon="3.24084">
        <ele>507</ele>
        <time>2012-11-03T10:39:01Z</time>
      </trkpt>
      <trkpt lat="45.43468" lon="3.24096">
        <ele>509</ele>
        <time>2012-11-03T10:39:10Z</time>
      </trkpt>
      <trkpt lat="45.43452" lon="3.24111">
        <ele>510</ele>
        <time>2012-11-03T10:39:18Z</time>
      </trkpt>
      <trkpt lat="45.43436" lon="3.24126">
        <ele>510</ele>
        <time>2012-11-03T10:39:25Z</time>
      </trkpt>
      <trkpt lat="45.43421" lon="3.24147">
        <ele>510</ele>
        <time>2012-11-03T10:39:32Z</time>
      </trkpt>
      <trkpt lat="45.43408" lon="3.24165">
        <ele>513</ele>
        <time>2012-11-03T10:39:38Z</time>
      </trkpt>
      <trkpt lat="45.43393" lon="3.24182">
        <ele>513</ele>
        <time>2012-11-03T10:39:44Z</time>
      </trkpt>
      <trkpt lat="45.43376" lon="3.24199">
        <ele>514</ele>
        <time>2012-11-03T10:39:50Z</time>
      </trkpt>
      <trkpt lat="45.4336" lon="3.24213">
        <ele>514</ele>
        <time>2012-11-03T10:39:56Z</time>
      </trkpt>
      <trkpt lat="45.43342" lon="3.24225">
        <ele>514</ele>
        <time>2012-11-03T10:40:03Z</time>
      </trkpt>
      <trkpt lat="45.43324" lon="3.24234">
        <ele>518</ele>
        <time>2012-11-03T10:40:09Z</time>
      </trkpt>
      <trkpt lat="45.43305" lon="3.24244">
        <ele>520</ele>
        <time>2012-11-03T10:40:16Z</time>
      </trkpt>
      <trkpt lat="45.43288" lon="3.24251">
        <ele>519</ele>
        <time>2012-11-03T10:40:23Z</time>
      </trkpt>
      <trkpt lat="45.4327" lon="3.24259">
        <ele>520</ele>
        <time>2012-11-03T10:40:30Z</time>
      </trkpt>
      <trkpt lat="45.43253" lon="3.2427">
        <ele>521</ele>
        <time>2012-11-03T10:40:38Z</time>
      </trkpt>
      <trkpt lat="45.43234" lon="3.24281">
        <ele>525</ele>
        <time>2012-11-03T10:40:46Z</time>
      </trkpt>
      <trkpt lat="45.43216" lon="3.2429">
        <ele>526</ele>
        <time>2012-11-03T10:40:54Z</time>
      </trkpt>
      <trkpt lat="45.43199" lon="3.243">
        <ele>526</ele>
        <time>2012-11-03T10:41:01Z</time>
      </trkpt>
      <trkpt lat="45.43182" lon="3.24311">
        <ele>527</ele>
        <time>2012-11-03T10:41:08Z</time>
      </trkpt>
      <trkpt lat="45.43163" lon="3.24321">
        <ele>530</ele>
        <time>2012-11-03T10:41:15Z</time>
      </trkpt>
      <trkpt lat="45.43146" lon="3.24329">
        <ele>532</ele>
        <time>2012-11-03T10:41:22Z</time>
      </trkpt>
      <trkpt lat="45.43128" lon="3.24339">
        <ele>531</ele>
        <time>2012-11-03T10:41:29Z</time>
      </trkpt>
      <trkpt lat="45.43111" lon="3.24351">
        <ele>532</ele>
        <time>2012-11-03T10:41:37Z</time>
      </trkpt>
      <trkpt lat="45.43095" lon="3.24362">
        <ele>533</ele>
        <time>2012-11-03T10:41:47Z</time>
      </trkpt>
      <trkpt lat="45.43077" lon="3.24371">
        <ele>539</ele>
        <time>2012-11-03T10:41:59Z</time>
      </trkpt>
      <trkpt lat="45.43059" lon="3.24375">
        <ele>540</ele>
        <time>2012-11-03T10:42:11Z</time>
      </trkpt>
      <trkpt lat="45.43039" lon="3.24375">
        <ele>541</ele>
        <time>2012-11-03T10:42:23Z</time>
      </trkpt>
      <trkpt lat="45.43021" lon="3.2437">
        <ele>542</ele>
        <time>2012-11-03T10:42:34Z</time>
      </trkpt>
      <trkpt lat="45.43003" lon="3.24365">
        <ele>543</ele>
        <time>2012-11-03T10:42:44Z</time>
      </trkpt>
      <trkpt lat="45.42984" lon="3.24361">
        <ele>547</ele>
        <time>2012-11-03T10:42:54Z</time>
      </trkpt>
      <trkpt lat="45.42967" lon="3.24353">
        <ele>548</ele>
        <time>2012-11-03T10:43:02Z</time>
      </trkpt>
      <trkpt lat="45.42947" lon="3.24345">
        <ele>548</ele>
        <time>2012-11-03T10:43:12Z</time>
      </trkpt>
      <trkpt lat="45.4293" lon="3.24335">
        <ele>549</ele>
        <time>2012-11-03T10:43:19Z</time>
      </trkpt>
      <trkpt lat="45.42913" lon="3.24324">
        <ele>552</ele>
        <time>2012-11-03T10:43:27Z</time>
      </trkpt>
      <trkpt lat="45.42896" lon="3.24314">
        <ele>554</ele>
        <time>2012-11-03T10:43:33Z</time>
      </trkpt>
      <trkpt lat="45.42877" lon="3.24305">
        <ele>554</ele>
        <time>2012-11-03T10:43:39Z</time>
      </trkpt>
      <trkpt lat="45.42858" lon="3.24295">
        <ele>555</ele>
        <time>2012-11-03T10:43:46Z</time>
      </trkpt>
      <trkpt lat="45.42841" lon="3.24278">
        <ele>556</ele>
        <time>2012-11-03T10:43:52Z</time>
      </trkpt>
      <trkpt lat="45.42829" lon="3.24257">
        <ele>557</ele>
        <time>2012-11-03T10:43:58Z</time>
      </trkpt>
      <trkpt lat="45.42812" lon="3.24244">
        <ele>560</ele>
        <time>2012-11-03T10:44:03Z</time>
      </trkpt>
      <trkpt lat="45.42798" lon="3.24227">
        <ele>560</ele>
        <time>2012-11-03T10:44:08Z</time>
      </trkpt>
      <trkpt lat="45.42781" lon="3.24214">
        <ele>561</ele>
        <time>2012-11-03T10:44:15Z</time>
      </trkpt>
      <trkpt lat="45.42761" lon="3.24216">
        <ele>561</ele>
        <time>2012-11-03T10:44:21Z</time>
      </trkpt>
      <trkpt lat="45.42741" lon="3.24206">
        <ele>565</ele>
        <time>2012-11-03T10:44:27Z</time>
      </trkpt>
      <trkpt lat="45.4272" lon="3.24213">
        <ele>565</ele>
        <time>2012-11-03T10:44:33Z</time>
      </trkpt>
      <trkpt lat="45.42709" lon="3.24234">
        <ele>564</ele>
        <time>2012-11-03T10:44:36Z</time>
      </trkpt>
      <trkpt lat="45.42696" lon="3.24263">
        <ele>559</ele>
        <time>2012-11-03T10:44:39Z</time>
      </trkpt>
      <trkpt lat="45.42682" lon="3.24295">
        <ele>557</ele>
        <time>2012-11-03T10:44:41Z</time>
      </trkpt>
      <trkpt lat="45.42671" lon="3.24319">
        <ele>554</ele>
        <time>2012-11-03T10:44:44Z</time>
      </trkpt>
      <trkpt lat="45.4266" lon="3.24344">
        <ele>551</ele>
        <time>2012-11-03T10:44:46Z</time>
      </trkpt>
      <trkpt lat="45.42648" lon="3.24371">
        <ele>549</ele>
        <time>2012-11-03T10:44:48Z</time>
      </trkpt>
      <trkpt lat="45.42636" lon="3.24398">
        <ele>547</ele>
        <time>2012-11-03T10:44:50Z</time>
      </trkpt>
      <trkpt lat="45.42621" lon="3.24425">
        <ele>540</ele>
        <time>2012-11-03T10:44:52Z</time>
      </trkpt>
      <trkpt lat="45.42605" lon="3.24448">
        <ele>540</ele>
        <time>2012-11-03T10:44:54Z</time>
      </trkpt>
      <trkpt lat="45.42588" lon="3.24469">
        <ele>538</ele>
        <time>2012-11-03T10:44:56Z</time>
      </trkpt>
      <trkpt lat="45.42576" lon="3.24501">
        <ele>533</ele>
        <time>2012-11-03T10:44:59Z</time>
      </trkpt>
      <trkpt lat="45.42558" lon="3.24522">
        <ele>532</ele>
        <time>2012-11-03T10:45:02Z</time>
      </trkpt>
      <trkpt lat="45.42541" lon="3.24541">
        <ele>532</ele>
        <time>2012-11-03T10:45:05Z</time>
      </trkpt>
      <trkpt lat="45.42524" lon="3.24561">
        <ele>531</ele>
        <time>2012-11-03T10:45:08Z</time>
      </trkpt>
      <trkpt lat="45.42505" lon="3.2457">
        <ele>530</ele>
        <time>2012-11-03T10:45:11Z</time>
      </trkpt>
      <trkpt lat="45.42486" lon="3.24579">
        <ele>530</ele>
        <time>2012-11-03T10:45:14Z</time>
      </trkpt>
      <trkpt lat="45.42466" lon="3.24586">
        <ele>524</ele>
        <time>2012-11-03T10:45:17Z</time>
      </trkpt>
      <trkpt lat="45.42445" lon="3.24592">
        <ele>524</ele>
        <time>2012-11-03T10:45:20Z</time>
      </trkpt>
      <trkpt lat="45.42424" lon="3.24597">
        <ele>524</ele>
        <time>2012-11-03T10:45:23Z</time>
      </trkpt>
      <trkpt lat="45.42401" lon="3.24605">
        <ele>523</ele>
        <time>2012-11-03T10:45:26Z</time>
      </trkpt>
      <trkpt lat="45.42379" lon="3.24613">
        <ele>523</ele>
        <time>2012-11-03T10:45:29Z</time>
      </trkpt>
      <trkpt lat="45.42358" lon="3.24625">
        <ele>522</ele>
        <time>2012-11-03T10:45:32Z</time>
      </trkpt>
      <trkpt lat="45.42339" lon="3.24643">
        <ele>521</ele>
        <time>2012-11-03T10:45:35Z</time>
      </trkpt>
      <trkpt lat="45.42323" lon="3.24667">
        <ele>517</ele>
        <time>2012-11-03T10:45:38Z</time>
      </trkpt>
      <trkpt lat="45.42307" lon="3.24691">
        <ele>515</ele>
        <time>2012-11-03T10:45:41Z</time>
      </trkpt>
      <trkpt lat="45.4229" lon="3.2471">
        <ele>514</ele>
        <time>2012-11-03T10:45:44Z</time>
      </trkpt>
      <trkpt lat="45.4227" lon="3.24726">
        <ele>513</ele>
        <time>2012-11-03T10:45:47Z</time>
      </trkpt>
      <trkpt lat="45.42248" lon="3.24734">
        <ele>511</ele>
        <time>2012-11-03T10:45:50Z</time>
      </trkpt>
      <trkpt lat="45.42226" lon="3.2474">
        <ele>510</ele>
        <time>2012-11-03T10:45:53Z</time>
      </trkpt>
      <trkpt lat="45.42205" lon="3.24754">
        <ele>503</ele>
        <time>2012-11-03T10:45:56Z</time>
      </trkpt>
      <trkpt lat="45.4219" lon="3.24769">
        <ele>502</ele>
        <time>2012-11-03T10:45:58Z</time>
      </trkpt>
      <trkpt lat="45.42175" lon="3.24785">
        <ele>501</ele>
        <time>2012-11-03T10:46:00Z</time>
      </trkpt>
      <trkpt lat="45.4216" lon="3.24803">
        <ele>497</ele>
        <time>2012-11-03T10:46:02Z</time>
      </trkpt>
      <trkpt lat="45.42145" lon="3.24819">
        <ele>496</ele>
        <time>2012-11-03T10:46:04Z</time>
      </trkpt>
      <trkpt lat="45.4213" lon="3.24836">
        <ele>493</ele>
        <time>2012-11-03T10:46:06Z</time>
      </trkpt>
      <trkpt lat="45.42109" lon="3.24856">
        <ele>492</ele>
        <time>2012-11-03T10:46:09Z</time>
      </trkpt>
      <trkpt lat="45.4209" lon="3.24876">
        <ele>492</ele>
        <time>2012-11-03T10:46:12Z</time>
      </trkpt>
      <trkpt lat="45.42071" lon="3.24891">
        <ele>491</ele>
        <time>2012-11-03T10:46:15Z</time>
      </trkpt>
      <trkpt lat="45.42051" lon="3.24903">
        <ele>491</ele>
        <time>2012-11-03T10:46:18Z</time>
      </trkpt>
      <trkpt lat="45.42032" lon="3.24913">
        <ele>491</ele>
        <time>2012-11-03T10:46:21Z</time>
      </trkpt>
      <trkpt lat="45.42013" lon="3.24922">
        <ele>490</ele>
        <time>2012-11-03T10:46:24Z</time>
      </trkpt>
      <trkpt lat="45.41996" lon="3.24932">
        <ele>490</ele>
        <time>2012-11-03T10:46:27Z</time>
      </trkpt>
      <trkpt lat="45.41979" lon="3.24942">
        <ele>490</ele>
        <time>2012-11-03T10:46:30Z</time>
      </trkpt>
      <trkpt lat="45.41957" lon="3.24954">
        <ele>490</ele>
        <time>2012-11-03T10:46:34Z</time>
      </trkpt>
      <trkpt lat="45.41938" lon="3.24964">
        <ele>490</ele>
        <time>2012-11-03T10:46:38Z</time>
      </trkpt>
      <trkpt lat="45.41919" lon="3.24973">
        <ele>489</ele>
        <time>2012-11-03T10:46:48Z</time>
      </trkpt>
      <trkpt lat="45.41901" lon="3.24987">
        <ele>491</ele>
        <time>2012-11-03T10:46:53Z</time>
      </trkpt>
      <trkpt lat="45.41885" lon="3.25004">
        <ele>491</ele>
        <time>2012-11-03T10:46:58Z</time>
      </trkpt>
      <trkpt lat="45.41868" lon="3.25015">
        <ele>492</ele>
        <time>2012-11-03T10:47:03Z</time>
      </trkpt>
      <trkpt lat="45.41852" lon="3.25029">
        <ele>493</ele>
        <time>2012-11-03T10:47:08Z</time>
      </trkpt>
      <trkpt lat="45.41836" lon="3.25046">
        <ele>493</ele>
        <time>2012-11-03T10:47:14Z</time>
      </trkpt>
      <trkpt lat="45.41824" lon="3.25067">
        <ele>496</ele>
        <time>2012-11-03T10:47:20Z</time>
      </trkpt>
      <trkpt lat="45.41811" lon="3.25088">
        <ele>497</ele>
        <time>2012-11-03T10:47:26Z</time>
      </trkpt>
      <trkpt lat="45.41798" lon="3.25108">
        <ele>497</ele>
        <time>2012-11-03T10:47:32Z</time>
      </trkpt>
      <trkpt lat="45.41784" lon="3.25128">
        <ele>498</ele>
        <time>2012-11-03T10:47:38Z</time>
      </trkpt>
      <trkpt lat="45.41773" lon="3.25149">
        <ele>498</ele>
        <time>2012-11-03T10:47:44Z</time>
      </trkpt>
      <trkpt lat="45.41774" lon="3.25175">
        <ele>498</ele>
        <time>2012-11-03T10:47:52Z</time>
      </trkpt>
      <trkpt lat="45.41779" lon="3.25203">
        <ele>498</ele>
        <time>2012-11-03T10:47:57Z</time>
      </trkpt>
      <trkpt lat="45.41782" lon="3.2523">
        <ele>497</ele>
        <time>2012-11-03T10:48:01Z</time>
      </trkpt>
      <trkpt lat="45.41786" lon="3.25258">
        <ele>497</ele>
        <time>2012-11-03T10:48:05Z</time>
      </trkpt>
      <trkpt lat="45.4179" lon="3.25291">
        <ele>497</ele>
        <time>2012-11-03T10:48:09Z</time>
      </trkpt>
      <trkpt lat="45.41795" lon="3.25324">
        <ele>497</ele>
        <time>2012-11-03T10:48:13Z</time>
      </trkpt>
      <trkpt lat="45.41799" lon="3.2535">
        <ele>496</ele>
        <time>2012-11-03T10:48:16Z</time>
      </trkpt>
      <trkpt lat="45.41803" lon="3.25376">
        <ele>495</ele>
        <time>2012-11-03T10:48:19Z</time>
      </trkpt>
      <trkpt lat="45.41808" lon="3.25402">
        <ele>495</ele>
        <time>2012-11-03T10:48:22Z</time>
      </trkpt>
      <trkpt lat="45.41813" lon="3.2543">
        <ele>493</ele>
        <time>2012-11-03T10:48:25Z</time>
      </trkpt>
      <trkpt lat="45.4182" lon="3.25458">
        <ele>493</ele>
        <time>2012-11-03T10:48:28Z</time>
      </trkpt>
      <trkpt lat="45.41827" lon="3.25485">
        <ele>492</ele>
        <time>2012-11-03T10:48:31Z</time>
      </trkpt>
      <trkpt lat="45.41835" lon="3.25512">
        <ele>489</ele>
        <time>2012-11-03T10:48:34Z</time>
      </trkpt>
      <trkpt lat="45.41842" lon="3.2554">
        <ele>488</ele>
        <time>2012-11-03T10:48:37Z</time>
      </trkpt>
      <trkpt lat="45.4185" lon="3.25569">
        <ele>488</ele>
        <time>2012-11-03T10:48:40Z</time>
      </trkpt>
      <trkpt lat="45.41858" lon="3.25597">
        <ele>487</ele>
        <time>2012-11-03T10:48:43Z</time>
      </trkpt>
      <trkpt lat="45.41865" lon="3.25623">
        <ele>487</ele>
        <time>2012-11-03T10:48:46Z</time>
      </trkpt>
      <trkpt lat="45.41872" lon="3.25651">
        <ele>486</ele>
        <time>2012-11-03T10:48:49Z</time>
      </trkpt>
      <trkpt lat="45.4188" lon="3.2568">
        <ele>486</ele>
        <time>2012-11-03T10:48:52Z</time>
      </trkpt>
      <trkpt lat="45.41887" lon="3.25709">
        <ele>486</ele>
        <time>2012-11-03T10:48:55Z</time>
      </trkpt>
      <trkpt lat="45.41894" lon="3.25736">
        <ele>485</ele>
        <time>2012-11-03T10:48:58Z</time>
      </trkpt>
      <trkpt lat="45.41902" lon="3.25765">
        <ele>485</ele>
        <time>2012-11-03T10:49:01Z</time>
      </trkpt>
      <trkpt lat="45.41909" lon="3.25794">
        <ele>484</ele>
        <time>2012-11-03T10:49:04Z</time>
      </trkpt>
      <trkpt lat="45.41917" lon="3.25824">
        <ele>482</ele>
        <time>2012-11-03T10:49:07Z</time>
      </trkpt>
      <trkpt lat="45.41925" lon="3.25855">
        <ele>481</ele>
        <time>2012-11-03T10:49:10Z</time>
      </trkpt>
      <trkpt lat="45.41931" lon="3.25883">
        <ele>480</ele>
        <time>2012-11-03T10:49:13Z</time>
      </trkpt>
      <trkpt lat="45.41935" lon="3.25912">
        <ele>480</ele>
        <time>2012-11-03T10:49:16Z</time>
      </trkpt>
      <trkpt lat="45.41939" lon="3.25941">
        <ele>479</ele>
        <time>2012-11-03T10:49:19Z</time>
      </trkpt>
      <trkpt lat="45.41943" lon="3.2597">
        <ele>479</ele>
        <time>2012-11-03T10:49:22Z</time>
      </trkpt>
      <trkpt lat="45.41949" lon="3.26002">
        <ele>478</ele>
        <time>2012-11-03T10:49:25Z</time>
      </trkpt>
      <trkpt lat="45.41957" lon="3.26033">
        <ele>478</ele>
        <time>2012-11-03T10:49:28Z</time>
      </trkpt>
      <trkpt lat="45.41963" lon="3.26064">
        <ele>477</ele>
        <time>2012-11-03T10:49:31Z</time>
      </trkpt>
      <trkpt lat="45.41968" lon="3.26096">
        <ele>476</ele>
        <time>2012-11-03T10:49:34Z</time>
      </trkpt>
      <trkpt lat="45.41971" lon="3.26129">
        <ele>476</ele>
        <time>2012-11-03T10:49:37Z</time>
      </trkpt>
      <trkpt lat="45.41972" lon="3.26162">
        <ele>476</ele>
        <time>2012-11-03T10:49:40Z</time>
      </trkpt>
      <trkpt lat="45.41972" lon="3.26191">
        <ele>475</ele>
        <time>2012-11-03T10:49:43Z</time>
      </trkpt>
      <trkpt lat="45.4197" lon="3.26218">
        <ele>475</ele>
        <time>2012-11-03T10:49:46Z</time>
      </trkpt>
      <trkpt lat="45.4197" lon="3.26245">
        <ele>474</ele>
        <time>2012-11-03T10:49:49Z</time>
      </trkpt>
      <trkpt lat="45.4197" lon="3.26278">
        <ele>474</ele>
        <time>2012-11-03T10:49:53Z</time>
      </trkpt>
      <trkpt lat="45.41971" lon="3.26309">
        <ele>473</ele>
        <time>2012-11-03T10:49:57Z</time>
      </trkpt>
      <trkpt lat="45.4197" lon="3.26341">
        <ele>472</ele>
        <time>2012-11-03T10:50:01Z</time>
      </trkpt>
      <trkpt lat="45.41968" lon="3.26367">
        <ele>472</ele>
        <time>2012-11-03T10:50:04Z</time>
      </trkpt>
      <trkpt lat="45.41968" lon="3.26393">
        <ele>472</ele>
        <time>2012-11-03T10:50:07Z</time>
      </trkpt>
      <trkpt lat="45.41968" lon="3.2642">
        <ele>470</ele>
        <time>2012-11-03T10:50:10Z</time>
      </trkpt>
      <trkpt lat="45.41968" lon="3.26447">
        <ele>470</ele>
        <time>2012-11-03T10:50:13Z</time>
      </trkpt>
      <trkpt lat="45.41967" lon="3.26473">
        <ele>470</ele>
        <time>2012-11-03T10:50:16Z</time>
      </trkpt>
      <trkpt lat="45.41968" lon="3.26499">
        <ele>470</ele>
        <time>2012-11-03T10:50:19Z</time>
      </trkpt>
      <trkpt lat="45.41966" lon="3.26533">
        <ele>469</ele>
        <time>2012-11-03T10:50:23Z</time>
      </trkpt>
      <trkpt lat="45.41966" lon="3.26567">
        <ele>469</ele>
        <time>2012-11-03T10:50:27Z</time>
      </trkpt>
      <trkpt lat="45.41967" lon="3.26601">
        <ele>467</ele>
        <time>2012-11-03T10:50:31Z</time>
      </trkpt>
      <trkpt lat="45.41966" lon="3.26627">
        <ele>467</ele>
        <time>2012-11-03T10:50:34Z</time>
      </trkpt>
      <trkpt lat="45.41964" lon="3.26653">
        <ele>466</ele>
        <time>2012-11-03T10:50:37Z</time>
      </trkpt>
      <trkpt lat="45.4196" lon="3.26678">
        <ele>465</ele>
        <time>2012-11-03T10:50:41Z</time>
      </trkpt>
      <trkpt lat="45.4197" lon="3.26704">
        <ele>464</ele>
        <time>2012-11-03T10:50:47Z</time>
      </trkpt>
      <trkpt lat="45.4199" lon="3.26716">
        <ele>463</ele>
        <time>2012-11-03T10:50:51Z</time>
      </trkpt>
      <trkpt lat="45.42008" lon="3.26728">
        <ele>461</ele>
        <time>2012-11-03T10:50:54Z</time>
      </trkpt>
      <trkpt lat="45.42026" lon="3.26743">
        <ele>460</ele>
        <time>2012-11-03T10:50:57Z</time>
      </trkpt>
      <trkpt lat="45.42048" lon="3.26758">
        <ele>459</ele>
        <time>2012-11-03T10:51:00Z</time>
      </trkpt>
      <trkpt lat="45.42068" lon="3.26773">
        <ele>458</ele>
        <time>2012-11-03T10:51:03Z</time>
      </trkpt>
      <trkpt lat="45.42089" lon="3.26788">
        <ele>457</ele>
        <time>2012-11-03T10:51:06Z</time>
      </trkpt>
      <trkpt lat="45.4211" lon="3.26804">
        <ele>457</ele>
        <time>2012-11-03T10:51:09Z</time>
      </trkpt>
      <trkpt lat="45.42131" lon="3.2681">
        <ele>457</ele>
        <time>2012-11-03T10:51:12Z</time>
      </trkpt>
      <trkpt lat="45.4215" lon="3.26801">
        <ele>457</ele>
        <time>2012-11-03T10:51:15Z</time>
      </trkpt>
      <trkpt lat="45.42172" lon="3.26792">
        <ele>457</ele>
        <time>2012-11-03T10:51:19Z</time>
      </trkpt>
      <trkpt lat="45.42192" lon="3.26785">
        <ele>458</ele>
        <time>2012-11-03T10:51:23Z</time>
      </trkpt>
      <trkpt lat="45.4221" lon="3.26774">
        <ele>458</ele>
        <time>2012-11-03T10:51:27Z</time>
      </trkpt>
      <trkpt lat="45.42225" lon="3.26791">
        <ele>458</ele>
        <time>2012-11-03T10:51:33Z</time>
      </trkpt>
      <trkpt lat="45.42223" lon="3.26817">
        <ele>458</ele>
        <time>2012-11-03T10:51:38Z</time>
      </trkpt>
      <trkpt lat="45.4222" lon="3.26845">
        <ele>458</ele>
        <time>2012-11-03T10:51:43Z</time>
      </trkpt>
      <trkpt lat="45.42222" lon="3.26873">
        <ele>458</ele>
        <time>2012-11-03T10:51:48Z</time>
      </trkpt>
      <trkpt lat="45.42227" lon="3.269">
        <ele>458</ele>
        <time>2012-11-03T10:51:53Z</time>
      </trkpt>
      <trkpt lat="45.4223" lon="3.26929">
        <ele>457</ele>
        <time>2012-11-03T10:51:58Z</time>
      </trkpt>
      <trkpt lat="45.4223" lon="3.26956">
        <ele>457</ele>
        <time>2012-11-03T10:52:02Z</time>
      </trkpt>
      <trkpt lat="45.42227" lon="3.26987">
        <ele>457</ele>
        <time>2012-11-03T10:52:06Z</time>
      </trkpt>
      <trkpt lat="45.42224" lon="3.27012">
        <ele>456</ele>
        <time>2012-11-03T10:52:09Z</time>
      </trkpt>
      <trkpt lat="45.42222" lon="3.27038">
        <ele>456</ele>
        <time>2012-11-03T10:52:12Z</time>
      </trkpt>
      <trkpt lat="45.4222" lon="3.27069">
        <ele>456</ele>
        <time>2012-11-03T10:52:16Z</time>
      </trkpt>
      <trkpt lat="45.42222" lon="3.27102">
        <ele>456</ele>
        <time>2012-11-03T10:52:20Z</time>
      </trkpt>
      <trkpt lat="45.42232" lon="3.27131">
        <ele>456</ele>
        <time>2012-11-03T10:52:24Z</time>
      </trkpt>
      <trkpt lat="45.42247" lon="3.27155">
        <ele>457</ele>
        <time>2012-11-03T10:52:28Z</time>
      </trkpt>
      <trkpt lat="45.4226" lon="3.2718">
        <ele>457</ele>
        <time>2012-11-03T10:52:32Z</time>
      </trkpt>
      <trkpt lat="45.42272" lon="3.27207">
        <ele>458</ele>
        <time>2012-11-03T10:52:36Z</time>
      </trkpt>
      <trkpt lat="45.42289" lon="3.27231">
        <ele>458</ele>
        <time>2012-11-03T10:52:40Z</time>
      </trkpt>
      <trkpt lat="45.42305" lon="3.27242">
        <ele>458</ele>
        <time>2012-11-03T10:52:43Z</time>
      </trkpt>
      <trkpt lat="45.42325" lon="3.27248">
        <ele>459</ele>
        <time>2012-11-03T10:52:47Z</time>
      </trkpt>
      <trkpt lat="45.42344" lon="3.27251">
        <ele>459</ele>
        <time>2012-11-03T10:52:52Z</time>
      </trkpt>
      <trkpt lat="45.42362" lon="3.27258">
        <ele>459</ele>
        <time>2012-11-03T10:52:58Z</time>
      </trkpt>
      <trkpt lat="45.42368" lon="3.27284">
        <ele>460</ele>
        <time>2012-11-03T10:53:05Z</time>
      </trkpt>
      <trkpt lat="45.42365" lon="3.27315">
        <ele>460</ele>
        <time>2012-11-03T10:53:10Z</time>
      </trkpt>
      <trkpt lat="45.42363" lon="3.27341">
        <ele>463</ele>
        <time>2012-11-03T10:53:14Z</time>
      </trkpt>
      <trkpt lat="45.42361" lon="3.27369">
        <ele>463</ele>
        <time>2012-11-03T10:53:18Z</time>
      </trkpt>
      <trkpt lat="45.42359" lon="3.27396">
        <ele>464</ele>
        <time>2012-11-03T10:53:22Z</time>
      </trkpt>
      <trkpt lat="45.42359" lon="3.27423">
        <ele>467</ele>
        <time>2012-11-03T10:53:26Z</time>
      </trkpt>
      <trkpt lat="45.42358" lon="3.2745">
        <ele>467</ele>
        <time>2012-11-03T10:53:30Z</time>
      </trkpt>
      <trkpt lat="45.42356" lon="3.27478">
        <ele>467</ele>
        <time>2012-11-03T10:53:34Z</time>
      </trkpt>
      <trkpt lat="45.42357" lon="3.27505">
        <ele>469</ele>
        <time>2012-11-03T10:53:38Z</time>
      </trkpt>
      <trkpt lat="45.42359" lon="3.27531">
        <ele>469</ele>
        <time>2012-11-03T10:53:42Z</time>
      </trkpt>
      <trkpt lat="45.4236" lon="3.27557">
        <ele>470</ele>
        <time>2012-11-03T10:53:46Z</time>
      </trkpt>
      <trkpt lat="45.42363" lon="3.27584">
        <ele>472</ele>
        <time>2012-11-03T10:53:50Z</time>
      </trkpt>
      <trkpt lat="45.42365" lon="3.2761">
        <ele>473</ele>
        <time>2012-11-03T10:53:54Z</time>
      </trkpt>
      <trkpt lat="45.42367" lon="3.27635">
        <ele>474</ele>
        <time>2012-11-03T10:53:58Z</time>
      </trkpt>
      <trkpt lat="45.42366" lon="3.27663">
        <ele>474</ele>
        <time>2012-11-03T10:54:02Z</time>
      </trkpt>
      <trkpt lat="45.42364" lon="3.27694">
        <ele>476</ele>
        <time>2012-11-03T10:54:07Z</time>
      </trkpt>
      <trkpt lat="45.42361" lon="3.27725">
        <ele>476</ele>
        <time>2012-11-03T10:54:12Z</time>
      </trkpt>
      <trkpt lat="45.42355" lon="3.27754">
        <ele>477</ele>
        <time>2012-11-03T10:54:17Z</time>
      </trkpt>
      <trkpt lat="45.42348" lon="3.27782">
        <ele>477</ele>
        <time>2012-11-03T10:54:22Z</time>
      </trkpt>
      <trkpt lat="45.42342" lon="3.27807">
        <ele>477</ele>
        <time>2012-11-03T10:54:26Z</time>
      </trkpt>
      <trkpt lat="45.42332" lon="3.2783">
        <ele>476</ele>
        <time>2012-11-03T10:54:30Z</time>
      </trkpt>
      <trkpt lat="45.42316" lon="3.27852">
        <ele>476</ele>
        <time>2012-11-03T10:54:35Z</time>
      </trkpt>
      <trkpt lat="45.423" lon="3.27867">
        <ele>476</ele>
        <time>2012-11-03T10:54:39Z</time>
      </trkpt>
      <trkpt lat="45.42301" lon="3.27898">
        <ele>476</ele>
        <time>2012-11-03T10:54:43Z</time>
      </trkpt>
      <trkpt lat="45.42312" lon="3.27923">
        <ele>475</ele>
        <time>2012-11-03T10:54:47Z</time>
      </trkpt>
      <trkpt lat="45.4231" lon="3.27953">
        <ele>474</ele>
        <time>2012-11-03T10:54:51Z</time>
      </trkpt>
      <trkpt lat="45.42302" lon="3.27985">
        <ele>473</ele>
        <time>2012-11-03T10:54:55Z</time>
      </trkpt>
      <trkpt lat="45.423" lon="3.28012">
        <ele>471</ele>
        <time>2012-11-03T10:54:58Z</time>
      </trkpt>
      <trkpt lat="45.42319" lon="3.28022">
        <ele>471</ele>
        <time>2012-11-03T10:55:02Z</time>
      </trkpt>
      <trkpt lat="45.42342" lon="3.28018">
        <ele>471</ele>
        <time>2012-11-03T10:55:06Z</time>
      </trkpt>
      <trkpt lat="45.4236" lon="3.28014">
        <ele>471</ele>
        <time>2012-11-03T10:55:09Z</time>
      </trkpt>
      <trkpt lat="45.42384" lon="3.28012">
        <ele>471</ele>
        <time>2012-11-03T10:55:13Z</time>
      </trkpt>
      <trkpt lat="45.42402" lon="3.28008">
        <ele>471</ele>
        <time>2012-11-03T10:55:16Z</time>
      </trkpt>
      <trkpt lat="45.42421" lon="3.28007">
        <ele>472</ele>
        <time>2012-11-03T10:55:19Z</time>
      </trkpt>
      <trkpt lat="45.42443" lon="3.28001">
        <ele>473</ele>
        <time>2012-11-03T10:55:23Z</time>
      </trkpt>
      <trkpt lat="45.4246" lon="3.27995">
        <ele>475</ele>
        <time>2012-11-03T10:55:26Z</time>
      </trkpt>
      <trkpt lat="45.4248" lon="3.27987">
        <ele>476</ele>
        <time>2012-11-03T10:55:30Z</time>
      </trkpt>
      <trkpt lat="45.42501" lon="3.27978">
        <ele>477</ele>
        <time>2012-11-03T10:55:34Z</time>
      </trkpt>
      <trkpt lat="45.42524" lon="3.27961">
        <ele>478</ele>
        <time>2012-11-03T10:55:39Z</time>
      </trkpt>
      <trkpt lat="45.42541" lon="3.27952">
        <ele>478</ele>
        <time>2012-11-03T10:55:43Z</time>
      </trkpt>
      <trkpt lat="45.42559" lon="3.27945">
        <ele>478</ele>
        <time>2012-11-03T10:55:48Z</time>
      </trkpt>
      <trkpt lat="45.4258" lon="3.27941">
        <ele>478</ele>
        <time>2012-11-03T10:55:54Z</time>
      </trkpt>
      <trkpt lat="45.42599" lon="3.27936">
        <ele>479</ele>
        <time>2012-11-03T10:55:59Z</time>
      </trkpt>
      <trkpt lat="45.4262" lon="3.27934">
        <ele>480</ele>
        <time>2012-11-03T10:56:04Z</time>
      </trkpt>
      <trkpt lat="45.42639" lon="3.27933">
        <ele>480</ele>
        <time>2012-11-03T10:56:09Z</time>
      </trkpt>
      <trkpt lat="45.42658" lon="3.27936">
        <ele>481</ele>
        <time>2012-11-03T10:56:14Z</time>
      </trkpt>
      <trkpt lat="45.42681" lon="3.2794">
        <ele>481</ele>
        <time>2012-11-03T10:56:19Z</time>
      </trkpt>
      <trkpt lat="45.42701" lon="3.2794">
        <ele>481</ele>
        <time>2012-11-03T10:56:23Z</time>
      </trkpt>
      <trkpt lat="45.42724" lon="3.27938">
        <ele>481</ele>
        <time>2012-11-03T10:56:27Z</time>
      </trkpt>
      <trkpt lat="45.42742" lon="3.27935">
        <ele>481</ele>
        <time>2012-11-03T10:56:30Z</time>
      </trkpt>
      <trkpt lat="45.42761" lon="3.27929">
        <ele>481</ele>
        <time>2012-11-03T10:56:33Z</time>
      </trkpt>
      <trkpt lat="45.42781" lon="3.27921">
        <ele>481</ele>
        <time>2012-11-03T10:56:36Z</time>
      </trkpt>
      <trkpt lat="45.42801" lon="3.27918">
        <ele>481</ele>
        <time>2012-11-03T10:56:39Z</time>
      </trkpt>
      <trkpt lat="45.42823" lon="3.27915">
        <ele>482</ele>
        <time>2012-11-03T10:56:42Z</time>
      </trkpt>
      <trkpt lat="45.42842" lon="3.27909">
        <ele>482</ele>
        <time>2012-11-03T10:56:45Z</time>
      </trkpt>
      <trkpt lat="45.42867" lon="3.27907">
        <ele>481</ele>
        <time>2012-11-03T10:56:49Z</time>
      </trkpt>
      <trkpt lat="45.42888" lon="3.27905">
        <ele>481</ele>
        <time>2012-11-03T10:56:52Z</time>
      </trkpt>
      <trkpt lat="45.42908" lon="3.27905">
        <ele>481</ele>
        <time>2012-11-03T10:56:55Z</time>
      </trkpt>
      <trkpt lat="45.42926" lon="3.27899">
        <ele>481</ele>
        <time>2012-11-03T10:56:58Z</time>
      </trkpt>
      <trkpt lat="45.42947" lon="3.27898">
        <ele>481</ele>
        <time>2012-11-03T10:57:01Z</time>
      </trkpt>
      <trkpt lat="45.42966" lon="3.27895">
        <ele>481</ele>
        <time>2012-11-03T10:57:04Z</time>
      </trkpt>
      <trkpt lat="45.42985" lon="3.27893">
        <ele>481</ele>
        <time>2012-11-03T10:57:07Z</time>
      </trkpt>
      <trkpt lat="45.43005" lon="3.27889">
        <ele>481</ele>
        <time>2012-11-03T10:57:10Z</time>
      </trkpt>
      <trkpt lat="45.43026" lon="3.27886">
        <ele>481</ele>
        <time>2012-11-03T10:57:13Z</time>
      </trkpt>
      <trkpt lat="45.43048" lon="3.2788">
        <ele>480</ele>
        <time>2012-11-03T10:57:16Z</time>
      </trkpt>
      <trkpt lat="45.43072" lon="3.27878">
        <ele>480</ele>
        <time>2012-11-03T10:57:19Z</time>
      </trkpt>
      <trkpt lat="45.43095" lon="3.27876">
        <ele>480</ele>
        <time>2012-11-03T10:57:22Z</time>
      </trkpt>
      <trkpt lat="45.43118" lon="3.27873">
        <ele>480</ele>
        <time>2012-11-03T10:57:25Z</time>
      </trkpt>
      <trkpt lat="45.4314" lon="3.2787">
        <ele>480</ele>
        <time>2012-11-03T10:57:28Z</time>
      </trkpt>
      <trkpt lat="45.43163" lon="3.27866">
        <ele>480</ele>
        <time>2012-11-03T10:57:31Z</time>
      </trkpt>
      <trkpt lat="45.43186" lon="3.27861">
        <ele>480</ele>
        <time>2012-11-03T10:57:34Z</time>
      </trkpt>
      <trkpt lat="45.43208" lon="3.27859">
        <ele>480</ele>
        <time>2012-11-03T10:57:37Z</time>
      </trkpt>
      <trkpt lat="45.4323" lon="3.27854">
        <ele>480</ele>
        <time>2012-11-03T10:57:40Z</time>
      </trkpt>
      <trkpt lat="45.4325" lon="3.27853">
        <ele>480</ele>
        <time>2012-11-03T10:57:43Z</time>
      </trkpt>
      <trkpt lat="45.43271" lon="3.27849">
        <ele>480</ele>
        <time>2012-11-03T10:57:46Z</time>
      </trkpt>
      <trkpt lat="45.43292" lon="3.27846">
        <ele>480</ele>
        <time>2012-11-03T10:57:49Z</time>
      </trkpt>
      <trkpt lat="45.43314" lon="3.27841">
        <ele>480</ele>
        <time>2012-11-03T10:57:52Z</time>
      </trkpt>
      <trkpt lat="45.43336" lon="3.27838">
        <ele>480</ele>
        <time>2012-11-03T10:57:55Z</time>
      </trkpt>
      <trkpt lat="45.43355" lon="3.27834">
        <ele>479</ele>
        <time>2012-11-03T10:57:58Z</time>
      </trkpt>
      <trkpt lat="45.43379" lon="3.27832">
        <ele>479</ele>
        <time>2012-11-03T10:58:02Z</time>
      </trkpt>
      <trkpt lat="45.434" lon="3.27827">
        <ele>479</ele>
        <time>2012-11-03T10:58:05Z</time>
      </trkpt>
      <trkpt lat="45.43423" lon="3.27821">
        <ele>478</ele>
        <time>2012-11-03T10:58:08Z</time>
      </trkpt>
      <trkpt lat="45.43446" lon="3.27818">
        <ele>477</ele>
        <time>2012-11-03T10:58:11Z</time>
      </trkpt>
      <trkpt lat="45.43471" lon="3.27817">
        <ele>477</ele>
        <time>2012-11-03T10:58:14Z</time>
      </trkpt>
      <trkpt lat="45.43498" lon="3.27813">
        <ele>476</ele>
        <time>2012-11-03T10:58:17Z</time>
      </trkpt>
      <trkpt lat="45.43517" lon="3.27807">
        <ele>474</ele>
        <time>2012-11-03T10:58:19Z</time>
      </trkpt>
      <trkpt lat="45.43536" lon="3.27803">
        <ele>474</ele>
        <time>2012-11-03T10:58:21Z</time>
      </trkpt>
      <trkpt lat="45.43554" lon="3.27802">
        <ele>474</ele>
        <time>2012-11-03T10:58:23Z</time>
      </trkpt>
      <trkpt lat="45.43573" lon="3.27798">
        <ele>473</ele>
        <time>2012-11-03T10:58:25Z</time>
      </trkpt>
      <trkpt lat="45.43591" lon="3.27795">
        <ele>471</ele>
        <time>2012-11-03T10:58:27Z</time>
      </trkpt>
      <trkpt lat="45.43618" lon="3.27791">
        <ele>471</ele>
        <time>2012-11-03T10:58:30Z</time>
      </trkpt>
      <trkpt lat="45.43644" lon="3.27788">
        <ele>471</ele>
        <time>2012-11-03T10:58:33Z</time>
      </trkpt>
      <trkpt lat="45.43669" lon="3.27784">
        <ele>469</ele>
        <time>2012-11-03T10:58:36Z</time>
      </trkpt>
      <trkpt lat="45.43693" lon="3.27781">
        <ele>469</ele>
        <time>2012-11-03T10:58:39Z</time>
      </trkpt>
      <trkpt lat="45.43716" lon="3.27777">
        <ele>469</ele>
        <time>2012-11-03T10:58:42Z</time>
      </trkpt>
      <trkpt lat="45.43739" lon="3.27772">
        <ele>468</ele>
        <time>2012-11-03T10:58:45Z</time>
      </trkpt>
      <trkpt lat="45.4376" lon="3.27768">
        <ele>466</ele>
        <time>2012-11-03T10:58:48Z</time>
      </trkpt>
      <trkpt lat="45.43782" lon="3.27764">
        <ele>466</ele>
        <time>2012-11-03T10:58:51Z</time>
      </trkpt>
      <trkpt lat="45.438" lon="3.27761">
        <ele>465</ele>
        <time>2012-11-03T10:58:54Z</time>
      </trkpt>
      <trkpt lat="45.4382" lon="3.27759">
        <ele>464</ele>
        <time>2012-11-03T10:58:58Z</time>
      </trkpt>
      <trkpt lat="45.43836" lon="3.27777">
        <ele>462</ele>
        <time>2012-11-03T10:59:03Z</time>
      </trkpt>
      <trkpt lat="45.43846" lon="3.27799">
        <ele>462</ele>
        <time>2012-11-03T10:59:07Z</time>
      </trkpt>
      <trkpt lat="45.4386" lon="3.27824">
        <ele>462</ele>
        <time>2012-11-03T10:59:12Z</time>
      </trkpt>
      <trkpt lat="45.43871" lon="3.27845">
        <ele>462</ele>
        <time>2012-11-03T10:59:16Z</time>
      </trkpt>
      <trkpt lat="45.43881" lon="3.27868">
        <ele>462</ele>
        <time>2012-11-03T10:59:20Z</time>
      </trkpt>
      <trkpt lat="45.43893" lon="3.27894">
        <ele>462</ele>
        <time>2012-11-03T10:59:24Z</time>
      </trkpt>
      <trkpt lat="45.43906" lon="3.27917">
        <ele>462</ele>
        <time>2012-11-03T10:59:28Z</time>
      </trkpt>
      <trkpt lat="45.43918" lon="3.2794">
        <ele>462</ele>
        <time>2012-11-03T10:59:32Z</time>
      </trkpt>
      <trkpt lat="45.43929" lon="3.27961">
        <ele>462</ele>
        <time>2012-11-03T10:59:36Z</time>
      </trkpt>
      <trkpt lat="45.43941" lon="3.27984">
        <ele>463</ele>
        <time>2012-11-03T10:59:41Z</time>
      </trkpt>
      <trkpt lat="45.43952" lon="3.28006">
        <ele>465</ele>
        <time>2012-11-03T10:59:46Z</time>
      </trkpt>
      <trkpt lat="45.43964" lon="3.28029">
        <ele>466</ele>
        <time>2012-11-03T10:59:51Z</time>
      </trkpt>
      <trkpt lat="45.43975" lon="3.2805">
        <ele>466</ele>
        <time>2012-11-03T10:59:56Z</time>
      </trkpt>
      <trkpt lat="45.43986" lon="3.28074">
        <ele>467</ele>
        <time>2012-11-03T11:00:01Z</time>
      </trkpt>
      <trkpt lat="45.43999" lon="3.28098">
        <ele>467</ele>
        <time>2012-11-03T11:00:06Z</time>
      </trkpt>
      <trkpt lat="45.44015" lon="3.28116">
        <ele>466</ele>
        <time>2012-11-03T11:00:11Z</time>
      </trkpt>
      <trkpt lat="45.4403" lon="3.28135">
        <ele>466</ele>
        <time>2012-11-03T11:00:16Z</time>
      </trkpt>
      <trkpt lat="45.44046" lon="3.28156">
        <ele>466</ele>
        <time>2012-11-03T11:00:21Z</time>
      </trkpt>
      <trkpt lat="45.44062" lon="3.28178">
        <ele>467</ele>
        <time>2012-11-03T11:00:26Z</time>
      </trkpt>
      <trkpt lat="45.44075" lon="3.28197">
        <ele>467</ele>
        <time>2012-11-03T11:00:30Z</time>
      </trkpt>
      <trkpt lat="45.44088" lon="3.28219">
        <ele>466</ele>
        <time>2012-11-03T11:00:34Z</time>
      </trkpt>
      <trkpt lat="45.44102" lon="3.28239">
        <ele>466</ele>
        <time>2012-11-03T11:00:38Z</time>
      </trkpt>
      <trkpt lat="45.44116" lon="3.2826">
        <ele>466</ele>
        <time>2012-11-03T11:00:42Z</time>
      </trkpt>
      <trkpt lat="45.4413" lon="3.28283">
        <ele>465</ele>
        <time>2012-11-03T11:00:46Z</time>
      </trkpt>
      <trkpt lat="45.44147" lon="3.28298">
        <ele>465</ele>
        <time>2012-11-03T11:00:49Z</time>
      </trkpt>
      <trkpt lat="45.44163" lon="3.28313">
        <ele>464</ele>
        <time>2012-11-03T11:00:52Z</time>
      </trkpt>
      <trkpt lat="45.44181" lon="3.28329">
        <ele>462</ele>
        <time>2012-11-03T11:00:55Z</time>
      </trkpt>
      <trkpt lat="45.44199" lon="3.28345">
        <ele>461</ele>
        <time>2012-11-03T11:00:58Z</time>
      </trkpt>
      <trkpt lat="45.44217" lon="3.28362">
        <ele>460</ele>
        <time>2012-11-03T11:01:01Z</time>
      </trkpt>
      <trkpt lat="45.44233" lon="3.28385">
        <ele>460</ele>
        <time>2012-11-03T11:01:04Z</time>
      </trkpt>
      <trkpt lat="45.44247" lon="3.28409">
        <ele>458</ele>
        <time>2012-11-03T11:01:07Z</time>
      </trkpt>
      <trkpt lat="45.4426" lon="3.28431">
        <ele>456</ele>
        <time>2012-11-03T11:01:10Z</time>
      </trkpt>
      <trkpt lat="45.44274" lon="3.28454">
        <ele>456</ele>
        <time>2012-11-03T11:01:13Z</time>
      </trkpt>
      <trkpt lat="45.44288" lon="3.28476">
        <ele>456</ele>
        <time>2012-11-03T11:01:16Z</time>
      </trkpt>
      <trkpt lat="45.44308" lon="3.28483">
        <ele>455</ele>
        <time>2012-11-03T11:01:19Z</time>
      </trkpt>
      <trkpt lat="45.44331" lon="3.28481">
        <ele>455</ele>
        <time>2012-11-03T11:01:22Z</time>
      </trkpt>
      <trkpt lat="45.44355" lon="3.28477">
        <ele>454</ele>
        <time>2012-11-03T11:01:25Z</time>
      </trkpt>
      <trkpt lat="45.44377" lon="3.2847">
        <ele>453</ele>
        <time>2012-11-03T11:01:28Z</time>
      </trkpt>
      <trkpt lat="45.44396" lon="3.28458">
        <ele>453</ele>
        <time>2012-11-03T11:01:31Z</time>
      </trkpt>
      <trkpt lat="45.44415" lon="3.28444">
        <ele>453</ele>
        <time>2012-11-03T11:01:35Z</time>
      </trkpt>
      <trkpt lat="45.44429" lon="3.28461">
        <ele>451</ele>
        <time>2012-11-03T11:01:43Z</time>
      </trkpt>
      <trkpt lat="45.44438" lon="3.28489">
        <ele>451</ele>
        <time>2012-11-03T11:01:47Z</time>
      </trkpt>
      <trkpt lat="45.44448" lon="3.28511">
        <ele>450</ele>
        <time>2012-11-03T11:01:50Z</time>
      </trkpt>
      <trkpt lat="45.44462" lon="3.28532">
        <ele>449</ele>
        <time>2012-11-03T11:01:54Z</time>
      </trkpt>
      <trkpt lat="45.44487" lon="3.28541">
        <ele>448</ele>
        <time>2012-11-03T11:01:58Z</time>
      </trkpt>
      <trkpt lat="45.44508" lon="3.28539">
        <ele>445</ele>
        <time>2012-11-03T11:02:00Z</time>
      </trkpt>
      <trkpt lat="45.44532" lon="3.28534">
        <ele>444</ele>
        <time>2012-11-03T11:02:04Z</time>
      </trkpt>
      <trkpt lat="45.44551" lon="3.28532">
        <ele>444</ele>
        <time>2012-11-03T11:02:07Z</time>
      </trkpt>
      <trkpt lat="45.4457" lon="3.28556">
        <ele>443</ele>
        <time>2012-11-03T11:02:10Z</time>
      </trkpt>
      <trkpt lat="45.44591" lon="3.28572">
        <ele>443</ele>
        <time>2012-11-03T11:02:13Z</time>
      </trkpt>
      <trkpt lat="45.4461" lon="3.28591">
        <ele>441</ele>
        <time>2012-11-03T11:02:16Z</time>
      </trkpt>
      <trkpt lat="45.44626" lon="3.28617">
        <ele>441</ele>
        <time>2012-11-03T11:02:19Z</time>
      </trkpt>
      <trkpt lat="45.44637" lon="3.28644">
        <ele>440</ele>
        <time>2012-11-03T11:02:22Z</time>
      </trkpt>
      <trkpt lat="45.4465" lon="3.28665">
        <ele>440</ele>
        <time>2012-11-03T11:02:25Z</time>
      </trkpt>
      <trkpt lat="45.44669" lon="3.28671">
        <ele>439</ele>
        <time>2012-11-03T11:02:28Z</time>
      </trkpt>
      <trkpt lat="45.44691" lon="3.28671">
        <ele>440</ele>
        <time>2012-11-03T11:02:32Z</time>
      </trkpt>
      <trkpt lat="45.4471" lon="3.28668">
        <ele>441</ele>
        <time>2012-11-03T11:02:36Z</time>
      </trkpt>
      <trkpt lat="45.44729" lon="3.28671">
        <ele>443</ele>
        <time>2012-11-03T11:02:40Z</time>
      </trkpt>
      <trkpt lat="45.44751" lon="3.28676">
        <ele>448</ele>
        <time>2012-11-03T11:02:45Z</time>
      </trkpt>
      <trkpt lat="45.4477" lon="3.28683">
        <ele>448</ele>
        <time>2012-11-03T11:02:49Z</time>
      </trkpt>
      <trkpt lat="45.44786" lon="3.28697">
        <ele>448</ele>
        <time>2012-11-03T11:02:53Z</time>
      </trkpt>
      <trkpt lat="45.44799" lon="3.2872">
        <ele>448</ele>
        <time>2012-11-03T11:02:57Z</time>
      </trkpt>
      <trkpt lat="45.44808" lon="3.28744">
        <ele>449</ele>
        <time>2012-11-03T11:03:02Z</time>
      </trkpt>
      <trkpt lat="45.44816" lon="3.28773">
        <ele>445</ele>
        <time>2012-11-03T11:03:07Z</time>
      </trkpt>
      <trkpt lat="45.4482" lon="3.28802">
        <ele>444</ele>
        <time>2012-11-03T11:03:12Z</time>
      </trkpt>
      <trkpt lat="45.4483" lon="3.28826">
        <ele>446</ele>
        <time>2012-11-03T11:03:17Z</time>
      </trkpt>
      <trkpt lat="45.44848" lon="3.28818">
        <ele>449</ele>
        <time>2012-11-03T11:03:22Z</time>
      </trkpt>
      <trkpt lat="45.44869" lon="3.28812">
        <ele>450</ele>
        <time>2012-11-03T11:03:27Z</time>
      </trkpt>
      <trkpt lat="45.44892" lon="3.28812">
        <ele>450</ele>
        <time>2012-11-03T11:03:31Z</time>
      </trkpt>
      <trkpt lat="45.44913" lon="3.2881">
        <ele>450</ele>
        <time>2012-11-03T11:03:34Z</time>
      </trkpt>
      <trkpt lat="45.44934" lon="3.2881">
        <ele>450</ele>
        <time>2012-11-03T11:03:37Z</time>
      </trkpt>
      <trkpt lat="45.44956" lon="3.28812">
        <ele>449</ele>
        <time>2012-11-03T11:03:40Z</time>
      </trkpt>
      <trkpt lat="45.44976" lon="3.28812">
        <ele>449</ele>
        <time>2012-11-03T11:03:43Z</time>
      </trkpt>
      <trkpt lat="45.44996" lon="3.28809">
        <ele>449</ele>
        <time>2012-11-03T11:03:46Z</time>
      </trkpt>
      <trkpt lat="45.45016" lon="3.28805">
        <ele>447</ele>
        <time>2012-11-03T11:03:49Z</time>
      </trkpt>
      <trkpt lat="45.45036" lon="3.28803">
        <ele>447</ele>
        <time>2012-11-03T11:03:52Z</time>
      </trkpt>
      <trkpt lat="45.45058" lon="3.28802">
        <ele>447</ele>
        <time>2012-11-03T11:03:55Z</time>
      </trkpt>
      <trkpt lat="45.45079" lon="3.288">
        <ele>447</ele>
        <time>2012-11-03T11:03:58Z</time>
      </trkpt>
      <trkpt lat="45.45101" lon="3.28795">
        <ele>446</ele>
        <time>2012-11-03T11:04:01Z</time>
      </trkpt>
      <trkpt lat="45.45123" lon="3.28792">
        <ele>446</ele>
        <time>2012-11-03T11:04:04Z</time>
      </trkpt>
      <trkpt lat="45.45145" lon="3.28788">
        <ele>446</ele>
        <time>2012-11-03T11:04:07Z</time>
      </trkpt>
      <trkpt lat="45.45167" lon="3.28783">
        <ele>445</ele>
        <time>2012-11-03T11:04:10Z</time>
      </trkpt>
      <trkpt lat="45.45188" lon="3.28779">
        <ele>444</ele>
        <time>2012-11-03T11:04:13Z</time>
      </trkpt>
      <trkpt lat="45.45208" lon="3.28773">
        <ele>444</ele>
        <time>2012-11-03T11:04:16Z</time>
      </trkpt>
      <trkpt lat="45.45226" lon="3.28761">
        <ele>444</ele>
        <time>2012-11-03T11:04:19Z</time>
      </trkpt>
      <trkpt lat="45.45243" lon="3.28748">
        <ele>443</ele>
        <time>2012-11-03T11:04:22Z</time>
      </trkpt>
      <trkpt lat="45.45264" lon="3.28734">
        <ele>443</ele>
        <time>2012-11-03T11:04:26Z</time>
      </trkpt>
      <trkpt lat="45.45285" lon="3.28722">
        <ele>442</ele>
        <time>2012-11-03T11:04:30Z</time>
      </trkpt>
      <trkpt lat="45.45307" lon="3.28715">
        <ele>442</ele>
        <time>2012-11-03T11:04:34Z</time>
      </trkpt>
      <trkpt lat="45.45328" lon="3.28707">
        <ele>442</ele>
        <time>2012-11-03T11:04:38Z</time>
      </trkpt>
      <trkpt lat="45.4535" lon="3.28699">
        <ele>439</ele>
        <time>2012-11-03T11:04:42Z</time>
      </trkpt>
      <trkpt lat="45.45369" lon="3.28698">
        <ele>439</ele>
        <time>2012-11-03T11:04:45Z</time>
      </trkpt>
      <trkpt lat="45.45387" lon="3.28707">
        <ele>438</ele>
        <time>2012-11-03T11:04:48Z</time>
      </trkpt>
      <trkpt lat="45.4541" lon="3.28716">
        <ele>438</ele>
        <time>2012-11-03T11:04:52Z</time>
      </trkpt>
      <trkpt lat="45.45434" lon="3.28723">
        <ele>435</ele>
        <time>2012-11-03T11:04:56Z</time>
      </trkpt>
      <trkpt lat="45.45457" lon="3.2873">
        <ele>434</ele>
        <time>2012-11-03T11:05:00Z</time>
      </trkpt>
      <trkpt lat="45.45475" lon="3.28749">
        <ele>434</ele>
        <time>2012-11-03T11:05:04Z</time>
      </trkpt>
      <trkpt lat="45.45481" lon="3.28773">
        <ele>435</ele>
        <time>2012-11-03T11:05:08Z</time>
      </trkpt>
      <trkpt lat="45.45489" lon="3.28799">
        <ele>435</ele>
        <time>2012-11-03T11:05:13Z</time>
      </trkpt>
      <trkpt lat="45.45496" lon="3.28825">
        <ele>434</ele>
        <time>2012-11-03T11:05:18Z</time>
      </trkpt>
      <trkpt lat="45.45502" lon="3.28849">
        <ele>432</ele>
        <time>2012-11-03T11:05:22Z</time>
      </trkpt>
      <trkpt lat="45.45509" lon="3.28876">
        <ele>431</ele>
        <time>2012-11-03T11:05:26Z</time>
      </trkpt>
      <trkpt lat="45.45516" lon="3.28902">
        <ele>431</ele>
        <time>2012-11-03T11:05:30Z</time>
      </trkpt>
      <trkpt lat="45.45523" lon="3.28929">
        <ele>431</ele>
        <time>2012-11-03T11:05:34Z</time>
      </trkpt>
      <trkpt lat="45.45531" lon="3.28957">
        <ele>430</ele>
        <time>2012-11-03T11:05:38Z</time>
      </trkpt>
      <trkpt lat="45.45539" lon="3.28986">
        <ele>430</ele>
        <time>2012-11-03T11:05:42Z</time>
      </trkpt>
      <trkpt lat="45.45546" lon="3.29014">
        <ele>430</ele>
        <time>2012-11-03T11:05:46Z</time>
      </trkpt>
      <trkpt lat="45.45554" lon="3.29041">
        <ele>429</ele>
        <time>2012-11-03T11:05:50Z</time>
      </trkpt>
      <trkpt lat="45.45562" lon="3.29071">
        <ele>429</ele>
        <time>2012-11-03T11:05:54Z</time>
      </trkpt>
      <trkpt lat="45.45571" lon="3.29099">
        <ele>429</ele>
        <time>2012-11-03T11:05:58Z</time>
      </trkpt>
      <trkpt lat="45.45579" lon="3.2913">
        <ele>428</ele>
        <time>2012-11-03T11:06:02Z</time>
      </trkpt>
      <trkpt lat="45.45586" lon="3.2916">
        <ele>426</ele>
        <time>2012-11-03T11:06:06Z</time>
      </trkpt>
      <trkpt lat="45.45594" lon="3.2919">
        <ele>424</ele>
        <time>2012-11-03T11:06:10Z</time>
      </trkpt>
      <trkpt lat="45.45603" lon="3.2922">
        <ele>424</ele>
        <time>2012-11-03T11:06:14Z</time>
      </trkpt>
      <trkpt lat="45.45622" lon="3.29232">
        <ele>423</ele>
        <time>2012-11-03T11:06:20Z</time>
      </trkpt>
      <trkpt lat="45.45641" lon="3.2923">
        <ele>422</ele>
        <time>2012-11-03T11:06:23Z</time>
      </trkpt>
      <trkpt lat="45.45664" lon="3.29235">
        <ele>421</ele>
        <time>2012-11-03T11:06:26Z</time>
      </trkpt>
      <trkpt lat="45.45687" lon="3.29241">
        <ele>419</ele>
        <time>2012-11-03T11:06:29Z</time>
      </trkpt>
      <trkpt lat="45.45708" lon="3.29241">
        <ele>419</ele>
        <time>2012-11-03T11:06:32Z</time>
      </trkpt>
      <trkpt lat="45.45726" lon="3.29223">
        <ele>418</ele>
        <time>2012-11-03T11:06:35Z</time>
      </trkpt>
      <trkpt lat="45.45745" lon="3.29201">
        <ele>417</ele>
        <time>2012-11-03T11:06:38Z</time>
      </trkpt>
      <trkpt lat="45.45759" lon="3.29175">
        <ele>415</ele>
        <time>2012-11-03T11:06:41Z</time>
      </trkpt>
      <trkpt lat="45.45774" lon="3.2915">
        <ele>411</ele>
        <time>2012-11-03T11:06:44Z</time>
      </trkpt>
      <trkpt lat="45.45792" lon="3.29124">
        <ele>409</ele>
        <time>2012-11-03T11:06:47Z</time>
      </trkpt>
      <trkpt lat="45.45808" lon="3.29106">
        <ele>408</ele>
        <time>2012-11-03T11:06:49Z</time>
      </trkpt>
      <trkpt lat="45.45822" lon="3.2909">
        <ele>406</ele>
        <time>2012-11-03T11:06:51Z</time>
      </trkpt>
      <trkpt lat="45.4584" lon="3.29078">
        <ele>402</ele>
        <time>2012-11-03T11:06:53Z</time>
      </trkpt>
      <trkpt lat="45.45859" lon="3.29071">
        <ele>400</ele>
        <time>2012-11-03T11:06:55Z</time>
      </trkpt>
      <trkpt lat="45.45879" lon="3.29067">
        <ele>399</ele>
        <time>2012-11-03T11:06:57Z</time>
      </trkpt>
      <trkpt lat="45.45899" lon="3.29062">
        <ele>399</ele>
        <time>2012-11-03T11:06:59Z</time>
      </trkpt>
      <trkpt lat="45.4592" lon="3.29057">
        <ele>397</ele>
        <time>2012-11-03T11:07:01Z</time>
      </trkpt>
      <trkpt lat="45.4594" lon="3.29053">
        <ele>397</ele>
        <time>2012-11-03T11:07:03Z</time>
      </trkpt>
      <trkpt lat="45.45959" lon="3.29047">
        <ele>396</ele>
        <time>2012-11-03T11:07:05Z</time>
      </trkpt>
      <trkpt lat="45.45978" lon="3.29043">
        <ele>396</ele>
        <time>2012-11-03T11:07:07Z</time>
      </trkpt>
      <trkpt lat="45.45997" lon="3.29038">
        <ele>396</ele>
        <time>2012-11-03T11:07:09Z</time>
      </trkpt>
      <trkpt lat="45.46016" lon="3.29033">
        <ele>394</ele>
        <time>2012-11-03T11:07:11Z</time>
      </trkpt>
      <trkpt lat="45.46035" lon="3.29028">
        <ele>393</ele>
        <time>2012-11-03T11:07:13Z</time>
      </trkpt>
      <trkpt lat="45.46054" lon="3.29024">
        <ele>393</ele>
        <time>2012-11-03T11:07:15Z</time>
      </trkpt>
      <trkpt lat="45.46073" lon="3.29023">
        <ele>392</ele>
        <time>2012-11-03T11:07:17Z</time>
      </trkpt>
      <trkpt lat="45.46093" lon="3.29021">
        <ele>391</ele>
        <time>2012-11-03T11:07:19Z</time>
      </trkpt>
      <trkpt lat="45.46112" lon="3.2902">
        <ele>390</ele>
        <time>2012-11-03T11:07:21Z</time>
      </trkpt>
      <trkpt lat="45.46131" lon="3.2902">
        <ele>390</ele>
        <time>2012-11-03T11:07:23Z</time>
      </trkpt>
      <trkpt lat="45.4615" lon="3.29019">
        <ele>390</ele>
        <time>2012-11-03T11:07:25Z</time>
      </trkpt>
      <trkpt lat="45.46176" lon="3.29019">
        <ele>389</ele>
        <time>2012-11-03T11:07:28Z</time>
      </trkpt>
      <trkpt lat="45.46201" lon="3.29021">
        <ele>389</ele>
        <time>2012-11-03T11:07:31Z</time>
      </trkpt>
      <trkpt lat="45.46223" lon="3.2902">
        <ele>389</ele>
        <time>2012-11-03T11:07:34Z</time>
      </trkpt>
      <trkpt lat="45.46242" lon="3.29016">
        <ele>390</ele>
        <time>2012-11-03T11:07:40Z</time>
      </trkpt>
      <trkpt lat="45.46263" lon="3.29022">
        <ele>390</ele>
        <time>2012-11-03T11:07:46Z</time>
      </trkpt>
      <trkpt lat="45.46282" lon="3.29021">
        <ele>390</ele>
        <time>2012-11-03T11:07:50Z</time>
      </trkpt>
      <trkpt lat="45.46303" lon="3.29022">
        <ele>390</ele>
        <time>2012-11-03T11:07:54Z</time>
      </trkpt>
      <trkpt lat="45.46325" lon="3.29023">
        <ele>390</ele>
        <time>2012-11-03T11:07:58Z</time>
      </trkpt>
      <trkpt lat="45.46348" lon="3.29023">
        <ele>390</ele>
        <time>2012-11-03T11:08:02Z</time>
      </trkpt>
      <trkpt lat="45.46372" lon="3.29024">
        <ele>390</ele>
        <time>2012-11-03T11:08:06Z</time>
      </trkpt>
      <trkpt lat="45.46395" lon="3.29025">
        <ele>390</ele>
        <time>2012-11-03T11:08:10Z</time>
      </trkpt>
      <trkpt lat="45.46412" lon="3.29016">
        <ele>390</ele>
        <time>2012-11-03T11:08:14Z</time>
      </trkpt>
      <trkpt lat="45.46409" lon="3.28987">
        <ele>390</ele>
        <time>2012-11-03T11:08:19Z</time>
      </trkpt>
      <trkpt lat="45.464" lon="3.28962">
        <ele>390</ele>
        <time>2012-11-03T11:08:23Z</time>
      </trkpt>
      <trkpt lat="45.46392" lon="3.28936">
        <ele>390</ele>
        <time>2012-11-03T11:08:27Z</time>
      </trkpt>
      <trkpt lat="45.46384" lon="3.28909">
        <ele>390</ele>
        <time>2012-11-03T11:08:31Z</time>
      </trkpt>
      <trkpt lat="45.46377" lon="3.28883">
        <ele>389</ele>
        <time>2012-11-03T11:08:35Z</time>
      </trkpt>
      <trkpt lat="45.46368" lon="3.28859">
        <ele>389</ele>
        <time>2012-11-03T11:08:39Z</time>
      </trkpt>
      <trkpt lat="45.46359" lon="3.28829">
        <ele>388</ele>
        <time>2012-11-03T11:08:43Z</time>
      </trkpt>
      <trkpt lat="45.46349" lon="3.28801">
        <ele>389</ele>
        <time>2012-11-03T11:08:47Z</time>
      </trkpt>
      <trkpt lat="45.4634" lon="3.28772">
        <ele>388</ele>
        <time>2012-11-03T11:08:51Z</time>
      </trkpt>
      <trkpt lat="45.46332" lon="3.28744">
        <ele>388</ele>
        <time>2012-11-03T11:08:55Z</time>
      </trkpt>
      <trkpt lat="45.46324" lon="3.28715">
        <ele>388</ele>
        <time>2012-11-03T11:08:59Z</time>
      </trkpt>
      <trkpt lat="45.46316" lon="3.28684">
        <ele>389</ele>
        <time>2012-11-03T11:09:03Z</time>
      </trkpt>
      <trkpt lat="45.46307" lon="3.28653">
        <ele>388</ele>
        <time>2012-11-03T11:09:07Z</time>
      </trkpt>
      <trkpt lat="45.46297" lon="3.28624">
        <ele>388</ele>
        <time>2012-11-03T11:09:11Z</time>
      </trkpt>
      <trkpt lat="45.4629" lon="3.28594">
        <ele>388</ele>
        <time>2012-11-03T11:09:15Z</time>
      </trkpt>
      <trkpt lat="45.46291" lon="3.28562">
        <ele>387</ele>
        <time>2012-11-03T11:09:19Z</time>
      </trkpt>
      <trkpt lat="45.46292" lon="3.28532">
        <ele>387</ele>
        <time>2012-11-03T11:09:23Z</time>
      </trkpt>
      <trkpt lat="45.46291" lon="3.285">
        <ele>387</ele>
        <time>2012-11-03T11:09:27Z</time>
      </trkpt>
      <trkpt lat="45.46288" lon="3.28468">
        <ele>387</ele>
        <time>2012-11-03T11:09:31Z</time>
      </trkpt>
      <trkpt lat="45.46287" lon="3.28437">
        <ele>388</ele>
        <time>2012-11-03T11:09:35Z</time>
      </trkpt>
      <trkpt lat="45.46283" lon="3.28402">
        <ele>388</ele>
        <time>2012-11-03T11:09:39Z</time>
      </trkpt>
      <trkpt lat="45.46278" lon="3.28377">
        <ele>388</ele>
        <time>2012-11-03T11:09:42Z</time>
      </trkpt>
      <trkpt lat="45.46272" lon="3.28346">
        <ele>388</ele>
        <time>2012-11-03T11:09:46Z</time>
      </trkpt>
      <trkpt lat="45.46263" lon="3.28317">
        <ele>388</ele>
        <time>2012-11-03T11:09:50Z</time>
      </trkpt>
      <trkpt lat="45.46261" lon="3.28288">
        <ele>387</ele>
        <time>2012-11-03T11:09:54Z</time>
      </trkpt>
      <trkpt lat="45.46262" lon="3.28254">
        <ele>386</ele>
        <time>2012-11-03T11:09:58Z</time>
      </trkpt>
      <trkpt lat="45.46263" lon="3.28228">
        <ele>386</ele>
        <time>2012-11-03T11:10:01Z</time>
      </trkpt>
      <trkpt lat="45.46264" lon="3.28201">
        <ele>386</ele>
        <time>2012-11-03T11:10:04Z</time>
      </trkpt>
      <trkpt lat="45.46264" lon="3.28173">
        <ele>386</ele>
        <time>2012-11-03T11:10:07Z</time>
      </trkpt>
      <trkpt lat="45.46264" lon="3.28145">
        <ele>386</ele>
        <time>2012-11-03T11:10:10Z</time>
      </trkpt>
      <trkpt lat="45.46272" lon="3.28122">
        <ele>386</ele>
        <time>2012-11-03T11:10:13Z</time>
      </trkpt>
      <trkpt lat="45.46293" lon="3.28115">
        <ele>386</ele>
        <time>2012-11-03T11:10:16Z</time>
      </trkpt>
      <trkpt lat="45.46314" lon="3.28115">
        <ele>386</ele>
        <time>2012-11-03T11:10:19Z</time>
      </trkpt>
      <trkpt lat="45.46336" lon="3.28119">
        <ele>385</ele>
        <time>2012-11-03T11:10:22Z</time>
      </trkpt>
      <trkpt lat="45.4636" lon="3.28121">
        <ele>385</ele>
        <time>2012-11-03T11:10:25Z</time>
      </trkpt>
      <trkpt lat="45.46383" lon="3.28122">
        <ele>385</ele>
        <time>2012-11-03T11:10:28Z</time>
      </trkpt>
      <trkpt lat="45.46406" lon="3.28122">
        <ele>385</ele>
        <time>2012-11-03T11:10:31Z</time>
      </trkpt>
      <trkpt lat="45.46429" lon="3.28122">
        <ele>385</ele>
        <time>2012-11-03T11:10:34Z</time>
      </trkpt>
      <trkpt lat="45.46452" lon="3.28125">
        <ele>385</ele>
        <time>2012-11-03T11:10:37Z</time>
      </trkpt>
      <trkpt lat="45.46475" lon="3.28127">
        <ele>386</ele>
        <time>2012-11-03T11:10:40Z</time>
      </trkpt>
      <trkpt lat="45.465" lon="3.28128">
        <ele>386</ele>
        <time>2012-11-03T11:10:43Z</time>
      </trkpt>
      <trkpt lat="45.46525" lon="3.28131">
        <ele>386</ele>
        <time>2012-11-03T11:10:46Z</time>
      </trkpt>
      <trkpt lat="45.46551" lon="3.28133">
        <ele>386</ele>
        <time>2012-11-03T11:10:49Z</time>
      </trkpt>
      <trkpt lat="45.46577" lon="3.28135">
        <ele>386</ele>
        <time>2012-11-03T11:10:52Z</time>
      </trkpt>
      <trkpt lat="45.46595" lon="3.28138">
        <ele>386</ele>
        <time>2012-11-03T11:10:54Z</time>
      </trkpt>
      <trkpt lat="45.46618" lon="3.2814">
        <ele>386</ele>
        <time>2012-11-03T11:10:57Z</time>
      </trkpt>
      <trkpt lat="45.46642" lon="3.28142">
        <ele>386</ele>
        <time>2012-11-03T11:11:00Z</time>
      </trkpt>
      <trkpt lat="45.46665" lon="3.28145">
        <ele>387</ele>
        <time>2012-11-03T11:11:03Z</time>
      </trkpt>
      <trkpt lat="45.46686" lon="3.28148">
        <ele>388</ele>
        <time>2012-11-03T11:11:06Z</time>
      </trkpt>
      <trkpt lat="45.46707" lon="3.28149">
        <ele>388</ele>
        <time>2012-11-03T11:11:09Z</time>
      </trkpt>
      <trkpt lat="45.46727" lon="3.28146">
        <ele>388</ele>
        <time>2012-11-03T11:11:12Z</time>
      </trkpt>
      <trkpt lat="45.46747" lon="3.28138">
        <ele>389</ele>
        <time>2012-11-03T11:11:15Z</time>
      </trkpt>
      <trkpt lat="45.46765" lon="3.28126">
        <ele>388</ele>
        <time>2012-11-03T11:11:18Z</time>
      </trkpt>
      <trkpt lat="45.46781" lon="3.28114">
        <ele>388</ele>
        <time>2012-11-03T11:11:21Z</time>
      </trkpt>
      <trkpt lat="45.46797" lon="3.281">
        <ele>387</ele>
        <time>2012-11-03T11:11:24Z</time>
      </trkpt>
      <trkpt lat="45.46816" lon="3.28081">
        <ele>386</ele>
        <time>2012-11-03T11:11:28Z</time>
      </trkpt>
      <trkpt lat="45.46832" lon="3.28066">
        <ele>386</ele>
        <time>2012-11-03T11:11:31Z</time>
      </trkpt>
      <trkpt lat="45.46848" lon="3.28052">
        <ele>388</ele>
        <time>2012-11-03T11:11:34Z</time>
      </trkpt>
      <trkpt lat="45.46864" lon="3.28038">
        <ele>388</ele>
        <time>2012-11-03T11:11:37Z</time>
      </trkpt>
      <trkpt lat="45.4688" lon="3.28024">
        <ele>389</ele>
        <time>2012-11-03T11:11:40Z</time>
      </trkpt>
      <trkpt lat="45.46895" lon="3.28009">
        <ele>389</ele>
        <time>2012-11-03T11:11:42Z</time>
      </trkpt>
      <trkpt lat="45.46914" lon="3.27991">
        <ele>390</ele>
        <time>2012-11-03T11:11:46Z</time>
      </trkpt>
      <trkpt lat="45.46927" lon="3.27972">
        <ele>397</ele>
        <time>2012-11-03T11:11:48Z</time>
      </trkpt>
      <trkpt lat="45.46938" lon="3.27949">
        <ele>398</ele>
        <time>2012-11-03T11:11:53Z</time>
      </trkpt>
      <trkpt lat="45.46948" lon="3.27922">
        <ele>399</ele>
        <time>2012-11-03T11:11:58Z</time>
      </trkpt>
      <trkpt lat="45.46931" lon="3.27938">
        <ele>397</ele>
        <time>2012-11-03T11:12:03Z</time>
      </trkpt>
      <trkpt lat="45.46917" lon="3.27966">
        <ele>397</ele>
        <time>2012-11-03T11:12:07Z</time>
      </trkpt>
      <trkpt lat="45.46904" lon="3.27984">
        <ele>390</ele>
        <time>2012-11-03T11:12:10Z</time>
      </trkpt>
      <trkpt lat="45.46886" lon="3.27974">
        <ele>389</ele>
        <time>2012-11-03T11:12:15Z</time>
      </trkpt>
      <trkpt lat="45.46884" lon="3.27945">
        <ele>389</ele>
        <time>2012-11-03T11:12:20Z</time>
      </trkpt>
      <trkpt lat="45.46879" lon="3.27916">
        <ele>388</ele>
        <time>2012-11-03T11:12:26Z</time>
      </trkpt>
      <trkpt lat="45.46873" lon="3.27888">
        <ele>388</ele>
        <time>2012-11-03T11:12:30Z</time>
      </trkpt>
      <trkpt lat="45.4687" lon="3.27854">
        <ele>388</ele>
        <time>2012-11-03T11:12:34Z</time>
      </trkpt>
      <trkpt lat="45.4687" lon="3.27825">
        <ele>388</ele>
        <time>2012-11-03T11:12:37Z</time>
      </trkpt>
      <trkpt lat="45.4687" lon="3.27798">
        <ele>387</ele>
        <time>2012-11-03T11:12:40Z</time>
      </trkpt>
      <trkpt lat="45.46869" lon="3.27769">
        <ele>387</ele>
        <time>2012-11-03T11:12:43Z</time>
      </trkpt>
      <trkpt lat="45.46868" lon="3.27741">
        <ele>386</ele>
        <time>2012-11-03T11:12:46Z</time>
      </trkpt>
      <trkpt lat="45.46865" lon="3.27708">
        <ele>386</ele>
        <time>2012-11-03T11:12:50Z</time>
      </trkpt>
      <trkpt lat="45.46863" lon="3.27678">
        <ele>386</ele>
        <time>2012-11-03T11:12:53Z</time>
      </trkpt>
      <trkpt lat="45.46868" lon="3.27645">
        <ele>387</ele>
        <time>2012-11-03T11:12:56Z</time>
      </trkpt>
      <trkpt lat="45.46874" lon="3.27618">
        <ele>387</ele>
        <time>2012-11-03T11:12:58Z</time>
      </trkpt>
      <trkpt lat="45.46882" lon="3.27592">
        <ele>388</ele>
        <time>2012-11-03T11:13:01Z</time>
      </trkpt>
      <trkpt lat="45.46892" lon="3.27566">
        <ele>388</ele>
        <time>2012-11-03T11:13:04Z</time>
      </trkpt>
      <trkpt lat="45.46906" lon="3.27544">
        <ele>388</ele>
        <time>2012-11-03T11:13:07Z</time>
      </trkpt>
      <trkpt lat="45.4692" lon="3.27515">
        <ele>389</ele>
        <time>2012-11-03T11:13:12Z</time>
      </trkpt>
      <trkpt lat="45.46936" lon="3.27492">
        <ele>388</ele>
        <time>2012-11-03T11:13:15Z</time>
      </trkpt>
      <trkpt lat="45.46951" lon="3.27473">
        <ele>389</ele>
        <time>2012-11-03T11:13:18Z</time>
      </trkpt>
      <trkpt lat="45.46969" lon="3.27456">
        <ele>389</ele>
        <time>2012-11-03T11:13:21Z</time>
      </trkpt>
      <trkpt lat="45.46989" lon="3.27443">
        <ele>389</ele>
        <time>2012-11-03T11:13:24Z</time>
      </trkpt>
      <trkpt lat="45.47011" lon="3.27428">
        <ele>390</ele>
        <time>2012-11-03T11:13:27Z</time>
      </trkpt>
      <trkpt lat="45.47031" lon="3.27417">
        <ele>390</ele>
        <time>2012-11-03T11:13:30Z</time>
      </trkpt>
      <trkpt lat="45.47053" lon="3.27409">
        <ele>387</ele>
        <time>2012-11-03T11:13:32Z</time>
      </trkpt>
      <trkpt lat="45.47073" lon="3.27395">
        <ele>387</ele>
        <time>2012-11-03T11:13:36Z</time>
      </trkpt>
      <trkpt lat="45.47094" lon="3.2738">
        <ele>388</ele>
        <time>2012-11-03T11:13:39Z</time>
      </trkpt>
      <trkpt lat="45.47111" lon="3.27364">
        <ele>388</ele>
        <time>2012-11-03T11:13:42Z</time>
      </trkpt>
      <trkpt lat="45.47129" lon="3.27347">
        <ele>389</ele>
        <time>2012-11-03T11:13:45Z</time>
      </trkpt>
      <trkpt lat="45.47147" lon="3.27329">
        <ele>387</ele>
        <time>2012-11-03T11:13:48Z</time>
      </trkpt>
      <trkpt lat="45.47168" lon="3.27313">
        <ele>389</ele>
        <time>2012-11-03T11:13:51Z</time>
      </trkpt>
      <trkpt lat="45.47189" lon="3.27298">
        <ele>390</ele>
        <time>2012-11-03T11:13:54Z</time>
      </trkpt>
      <trkpt lat="45.47209" lon="3.27281">
        <ele>390</ele>
        <time>2012-11-03T11:13:57Z</time>
      </trkpt>
      <trkpt lat="45.47231" lon="3.27268">
        <ele>389</ele>
        <time>2012-11-03T11:14:00Z</time>
      </trkpt>
      <trkpt lat="45.47253" lon="3.27255">
        <ele>390</ele>
        <time>2012-11-03T11:14:03Z</time>
      </trkpt>
      <trkpt lat="45.47272" lon="3.2724">
        <ele>388</ele>
        <time>2012-11-03T11:14:06Z</time>
      </trkpt>
      <trkpt lat="45.47291" lon="3.27229">
        <ele>389</ele>
        <time>2012-11-03T11:14:09Z</time>
      </trkpt>
      <trkpt lat="45.47312" lon="3.27219">
        <ele>389</ele>
        <time>2012-11-03T11:14:12Z</time>
      </trkpt>
      <trkpt lat="45.47331" lon="3.27211">
        <ele>389</ele>
        <time>2012-11-03T11:14:15Z</time>
      </trkpt>
      <trkpt lat="45.47351" lon="3.27202">
        <ele>390</ele>
        <time>2012-11-03T11:14:18Z</time>
      </trkpt>
      <trkpt lat="45.47369" lon="3.27193">
        <ele>390</ele>
        <time>2012-11-03T11:14:21Z</time>
      </trkpt>
      <trkpt lat="45.47388" lon="3.27189">
        <ele>390</ele>
        <time>2012-11-03T11:14:24Z</time>
      </trkpt>
      <trkpt lat="45.47408" lon="3.27185">
        <ele>390</ele>
        <time>2012-11-03T11:14:27Z</time>
      </trkpt>
      <trkpt lat="45.47428" lon="3.27183">
        <ele>389</ele>
        <time>2012-11-03T11:14:30Z</time>
      </trkpt>
      <trkpt lat="45.47449" lon="3.27184">
        <ele>390</ele>
        <time>2012-11-03T11:14:33Z</time>
      </trkpt>
      <trkpt lat="45.47473" lon="3.27187">
        <ele>389</ele>
        <time>2012-11-03T11:14:37Z</time>
      </trkpt>
      <trkpt lat="45.47495" lon="3.27192">
        <ele>389</ele>
        <time>2012-11-03T11:14:40Z</time>
      </trkpt>
      <trkpt lat="45.47517" lon="3.27198">
        <ele>388</ele>
        <time>2012-11-03T11:14:43Z</time>
      </trkpt>
      <trkpt lat="45.47539" lon="3.27205">
        <ele>388</ele>
        <time>2012-11-03T11:14:46Z</time>
      </trkpt>
      <trkpt lat="45.47561" lon="3.2721">
        <ele>388</ele>
        <time>2012-11-03T11:14:49Z</time>
      </trkpt>
      <trkpt lat="45.47584" lon="3.27212">
        <ele>387</ele>
        <time>2012-11-03T11:14:52Z</time>
      </trkpt>
      <trkpt lat="45.47608" lon="3.27216">
        <ele>387</ele>
        <time>2012-11-03T11:14:55Z</time>
      </trkpt>
      <trkpt lat="45.47632" lon="3.27218">
        <ele>387</ele>
        <time>2012-11-03T11:14:58Z</time>
      </trkpt>
      <trkpt lat="45.47656" lon="3.27214">
        <ele>387</ele>
        <time>2012-11-03T11:15:01Z</time>
      </trkpt>
      <trkpt lat="45.47679" lon="3.27212">
        <ele>386</ele>
        <time>2012-11-03T11:15:04Z</time>
      </trkpt>
      <trkpt lat="45.47703" lon="3.27212">
        <ele>386</ele>
        <time>2012-11-03T11:15:07Z</time>
      </trkpt>
      <trkpt lat="45.47724" lon="3.27222">
        <ele>386</ele>
        <time>2012-11-03T11:15:10Z</time>
      </trkpt>
      <trkpt lat="45.47746" lon="3.27232">
        <ele>385</ele>
        <time>2012-11-03T11:15:13Z</time>
      </trkpt>
      <trkpt lat="45.47765" lon="3.27246">
        <ele>385</ele>
        <time>2012-11-03T11:15:16Z</time>
      </trkpt>
      <trkpt lat="45.47783" lon="3.27261">
        <ele>385</ele>
        <time>2012-11-03T11:15:19Z</time>
      </trkpt>
      <trkpt lat="45.478" lon="3.27275">
        <ele>385</ele>
        <time>2012-11-03T11:15:22Z</time>
      </trkpt>
      <trkpt lat="45.47822" lon="3.27285">
        <ele>385</ele>
        <time>2012-11-03T11:15:25Z</time>
      </trkpt>
      <trkpt lat="45.47842" lon="3.27295">
        <ele>385</ele>
        <time>2012-11-03T11:15:28Z</time>
      </trkpt>
      <trkpt lat="45.47861" lon="3.27304">
        <ele>385</ele>
        <time>2012-11-03T11:15:31Z</time>
      </trkpt>
      <trkpt lat="45.47881" lon="3.27317">
        <ele>385</ele>
        <time>2012-11-03T11:15:34Z</time>
      </trkpt>
      <trkpt lat="45.47897" lon="3.27335">
        <ele>385</ele>
        <time>2012-11-03T11:15:37Z</time>
      </trkpt>
      <trkpt lat="45.47915" lon="3.27351">
        <ele>385</ele>
        <time>2012-11-03T11:15:40Z</time>
      </trkpt>
      <trkpt lat="45.47934" lon="3.27361">
        <ele>385</ele>
        <time>2012-11-03T11:15:43Z</time>
      </trkpt>
      <trkpt lat="45.47954" lon="3.27367">
        <ele>385</ele>
        <time>2012-11-03T11:15:46Z</time>
      </trkpt>
      <trkpt lat="45.47976" lon="3.27374">
        <ele>385</ele>
        <time>2012-11-03T11:15:49Z</time>
      </trkpt>
      <trkpt lat="45.47997" lon="3.27383">
        <ele>386</ele>
        <time>2012-11-03T11:15:52Z</time>
      </trkpt>
      <trkpt lat="45.48017" lon="3.27395">
        <ele>386</ele>
        <time>2012-11-03T11:15:55Z</time>
      </trkpt>
      <trkpt lat="45.48036" lon="3.2741">
        <ele>386</ele>
        <time>2012-11-03T11:15:58Z</time>
      </trkpt>
      <trkpt lat="45.48053" lon="3.27427">
        <ele>386</ele>
        <time>2012-11-03T11:16:01Z</time>
      </trkpt>
      <trkpt lat="45.48069" lon="3.27446">
        <ele>386</ele>
        <time>2012-11-03T11:16:04Z</time>
      </trkpt>
      <trkpt lat="45.48085" lon="3.27462">
        <ele>386</ele>
        <time>2012-11-03T11:16:07Z</time>
      </trkpt>
      <trkpt lat="45.48102" lon="3.27475">
        <ele>386</ele>
        <time>2012-11-03T11:16:10Z</time>
      </trkpt>
      <trkpt lat="45.48119" lon="3.27483">
        <ele>386</ele>
        <time>2012-11-03T11:16:13Z</time>
      </trkpt>
      <trkpt lat="45.48136" lon="3.27492">
        <ele>386</ele>
        <time>2012-11-03T11:16:16Z</time>
      </trkpt>
      <trkpt lat="45.48157" lon="3.27499">
        <ele>386</ele>
        <time>2012-11-03T11:16:19Z</time>
      </trkpt>
      <trkpt lat="45.48176" lon="3.27512">
        <ele>387</ele>
        <time>2012-11-03T11:16:22Z</time>
      </trkpt>
      <trkpt lat="45.48194" lon="3.27524">
        <ele>388</ele>
        <time>2012-11-03T11:16:25Z</time>
      </trkpt>
      <trkpt lat="45.48209" lon="3.27539">
        <ele>388</ele>
        <time>2012-11-03T11:16:28Z</time>
      </trkpt>
      <trkpt lat="45.48222" lon="3.27557">
        <ele>389</ele>
        <time>2012-11-03T11:16:31Z</time>
      </trkpt>
      <trkpt lat="45.48233" lon="3.27577">
        <ele>389</ele>
        <time>2012-11-03T11:16:34Z</time>
      </trkpt>
      <trkpt lat="45.48237" lon="3.27607">
        <ele>391</ele>
        <time>2012-11-03T11:16:38Z</time>
      </trkpt>
      <trkpt lat="45.48226" lon="3.27632">
        <ele>392</ele>
        <time>2012-11-03T11:16:41Z</time>
      </trkpt>
      <trkpt lat="45.48222" lon="3.27657">
        <ele>392</ele>
        <time>2012-11-03T11:16:43Z</time>
      </trkpt>
      <trkpt lat="45.48227" lon="3.27686">
        <ele>398</ele>
        <time>2012-11-03T11:16:49Z</time>
      </trkpt>
      <trkpt lat="45.48242" lon="3.27701">
        <ele>398</ele>
        <time>2012-11-03T11:16:55Z</time>
      </trkpt>
      <trkpt lat="45.48261" lon="3.27714">
        <ele>397</ele>
        <time>2012-11-03T11:17:02Z</time>
      </trkpt>
      <trkpt lat="45.48278" lon="3.27727">
        <ele>397</ele>
        <time>2012-11-03T11:17:11Z</time>
      </trkpt>
      <trkpt lat="45.48295" lon="3.27743">
        <ele>397</ele>
        <time>2012-11-03T11:17:19Z</time>
      </trkpt>
      <trkpt lat="45.48312" lon="3.27758">
        <ele>404</ele>
        <time>2012-11-03T11:17:27Z</time>
      </trkpt>
      <trkpt lat="45.48329" lon="3.2777">
        <ele>404</ele>
        <time>2012-11-03T11:17:33Z</time>
      </trkpt>
      <trkpt lat="45.48348" lon="3.27779">
        <ele>402</ele>
        <time>2012-11-03T11:17:39Z</time>
      </trkpt>
      <trkpt lat="45.48365" lon="3.27791">
        <ele>403</ele>
        <time>2012-11-03T11:17:44Z</time>
      </trkpt>
      <trkpt lat="45.48383" lon="3.27797">
        <ele>403</ele>
        <time>2012-11-03T11:17:49Z</time>
      </trkpt>
      <trkpt lat="45.48401" lon="3.27805">
        <ele>404</ele>
        <time>2012-11-03T11:17:55Z</time>
      </trkpt>
      <trkpt lat="45.48421" lon="3.27809">
        <ele>401</ele>
        <time>2012-11-03T11:18:01Z</time>
      </trkpt>
      <trkpt lat="45.48438" lon="3.2782">
        <ele>401</ele>
        <time>2012-11-03T11:18:05Z</time>
      </trkpt>
      <trkpt lat="45.48455" lon="3.27835">
        <ele>410</ele>
        <time>2012-11-03T11:18:12Z</time>
      </trkpt>
      <trkpt lat="45.48475" lon="3.27845">
        <ele>409</ele>
        <time>2012-11-03T11:18:19Z</time>
      </trkpt>
      <trkpt lat="45.48493" lon="3.27852">
        <ele>408</ele>
        <time>2012-11-03T11:18:25Z</time>
      </trkpt>
      <trkpt lat="45.48512" lon="3.27865">
        <ele>410</ele>
        <time>2012-11-03T11:18:31Z</time>
      </trkpt>
      <trkpt lat="45.48529" lon="3.27875">
        <ele>411</ele>
        <time>2012-11-03T11:18:37Z</time>
      </trkpt>
      <trkpt lat="45.48548" lon="3.2787">
        <ele>411</ele>
        <time>2012-11-03T11:18:43Z</time>
      </trkpt>
      <trkpt lat="45.48568" lon="3.27863">
        <ele>410</ele>
        <time>2012-11-03T11:18:49Z</time>
      </trkpt>
      <trkpt lat="45.48587" lon="3.27863">
        <ele>411</ele>
        <time>2012-11-03T11:18:55Z</time>
      </trkpt>
      <trkpt lat="45.48608" lon="3.27865">
        <ele>412</ele>
        <time>2012-11-03T11:19:01Z</time>
      </trkpt>
      <trkpt lat="45.48626" lon="3.27875">
        <ele>413</ele>
        <time>2012-11-03T11:19:07Z</time>
      </trkpt>
      <trkpt lat="45.48641" lon="3.27895">
        <ele>414</ele>
        <time>2012-11-03T11:19:13Z</time>
      </trkpt>
      <trkpt lat="45.48647" lon="3.27923">
        <ele>420</ele>
        <time>2012-11-03T11:19:19Z</time>
      </trkpt>
      <trkpt lat="45.48652" lon="3.27951">
        <ele>421</ele>
        <time>2012-11-03T11:19:25Z</time>
      </trkpt>
      <trkpt lat="45.48661" lon="3.27976">
        <ele>422</ele>
        <time>2012-11-03T11:19:32Z</time>
      </trkpt>
      <trkpt lat="45.4868" lon="3.27977">
        <ele>422</ele>
        <time>2012-11-03T11:19:37Z</time>
      </trkpt>
      <trkpt lat="45.48701" lon="3.27973">
        <ele>422</ele>
        <time>2012-11-03T11:19:40Z</time>
      </trkpt>
      <trkpt lat="45.48722" lon="3.27966">
        <ele>421</ele>
        <time>2012-11-03T11:19:45Z</time>
      </trkpt>
      <trkpt lat="45.48743" lon="3.27955">
        <ele>421</ele>
        <time>2012-11-03T11:19:49Z</time>
      </trkpt>
      <trkpt lat="45.48763" lon="3.27947">
        <ele>421</ele>
        <time>2012-11-03T11:19:53Z</time>
      </trkpt>
      <trkpt lat="45.48786" lon="3.27938">
        <ele>421</ele>
        <time>2012-11-03T11:19:56Z</time>
      </trkpt>
      <trkpt lat="45.48804" lon="3.27932">
        <ele>420</ele>
        <time>2012-11-03T11:20:00Z</time>
      </trkpt>
      <trkpt lat="45.48824" lon="3.27922">
        <ele>420</ele>
        <time>2012-11-03T11:20:04Z</time>
      </trkpt>
      <trkpt lat="45.48841" lon="3.2791">
        <ele>419</ele>
        <time>2012-11-03T11:20:07Z</time>
      </trkpt>
      <trkpt lat="45.48861" lon="3.27896">
        <ele>419</ele>
        <time>2012-11-03T11:20:11Z</time>
      </trkpt>
      <trkpt lat="45.48882" lon="3.27884">
        <ele>420</ele>
        <time>2012-11-03T11:20:15Z</time>
      </trkpt>
      <trkpt lat="45.48901" lon="3.27878">
        <ele>420</ele>
        <time>2012-11-03T11:20:19Z</time>
      </trkpt>
      <trkpt lat="45.48921" lon="3.27879">
        <ele>420</ele>
        <time>2012-11-03T11:20:23Z</time>
      </trkpt>
      <trkpt lat="45.48942" lon="3.27878">
        <ele>420</ele>
        <time>2012-11-03T11:20:26Z</time>
      </trkpt>
      <trkpt lat="45.48963" lon="3.27877">
        <ele>420</ele>
        <time>2012-11-03T11:20:31Z</time>
      </trkpt>
      <trkpt lat="45.48984" lon="3.2788">
        <ele>420</ele>
        <time>2012-11-03T11:20:35Z</time>
      </trkpt>
      <trkpt lat="45.49004" lon="3.27888">
        <ele>419</ele>
        <time>2012-11-03T11:20:39Z</time>
      </trkpt>
      <trkpt lat="45.49026" lon="3.27894">
        <ele>419</ele>
        <time>2012-11-03T11:20:43Z</time>
      </trkpt>
      <trkpt lat="45.49047" lon="3.279">
        <ele>419</ele>
        <time>2012-11-03T11:20:47Z</time>
      </trkpt>
      <trkpt lat="45.49067" lon="3.27905">
        <ele>419</ele>
        <time>2012-11-03T11:20:51Z</time>
      </trkpt>
      <trkpt lat="45.4909" lon="3.27912">
        <ele>420</ele>
        <time>2012-11-03T11:20:55Z</time>
      </trkpt>
      <trkpt lat="45.49109" lon="3.27915">
        <ele>419</ele>
        <time>2012-11-03T11:20:59Z</time>
      </trkpt>
      <trkpt lat="45.49127" lon="3.27922">
        <ele>420</ele>
        <time>2012-11-03T11:21:02Z</time>
      </trkpt>
      <trkpt lat="45.49147" lon="3.27929">
        <ele>420</ele>
        <time>2012-11-03T11:21:06Z</time>
      </trkpt>
      <trkpt lat="45.49168" lon="3.27934">
        <ele>420</ele>
        <time>2012-11-03T11:21:10Z</time>
      </trkpt>
      <trkpt lat="45.4919" lon="3.27941">
        <ele>420</ele>
        <time>2012-11-03T11:21:14Z</time>
      </trkpt>
      <trkpt lat="45.49212" lon="3.27946">
        <ele>420</ele>
        <time>2012-11-03T11:21:18Z</time>
      </trkpt>
      <trkpt lat="45.49235" lon="3.27955">
        <ele>420</ele>
        <time>2012-11-03T11:21:22Z</time>
      </trkpt>
      <trkpt lat="45.49257" lon="3.27962">
        <ele>420</ele>
        <time>2012-11-03T11:21:26Z</time>
      </trkpt>
      <trkpt lat="45.4928" lon="3.27967">
        <ele>420</ele>
        <time>2012-11-03T11:21:30Z</time>
      </trkpt>
      <trkpt lat="45.49298" lon="3.27972">
        <ele>420</ele>
        <time>2012-11-03T11:21:33Z</time>
      </trkpt>
      <trkpt lat="45.49321" lon="3.27981">
        <ele>420</ele>
        <time>2012-11-03T11:21:37Z</time>
      </trkpt>
      <trkpt lat="45.4934" lon="3.27986">
        <ele>420</ele>
        <time>2012-11-03T11:21:40Z</time>
      </trkpt>
      <trkpt lat="45.49359" lon="3.27993">
        <ele>420</ele>
        <time>2012-11-03T11:21:43Z</time>
      </trkpt>
      <trkpt lat="45.49379" lon="3.28">
        <ele>420</ele>
        <time>2012-11-03T11:21:46Z</time>
      </trkpt>
      <trkpt lat="45.49399" lon="3.28006">
        <ele>419</ele>
        <time>2012-11-03T11:21:49Z</time>
      </trkpt>
      <trkpt lat="45.49419" lon="3.28013">
        <ele>419</ele>
        <time>2012-11-03T11:21:52Z</time>
      </trkpt>
      <trkpt lat="45.49439" lon="3.28016">
        <ele>419</ele>
        <time>2012-11-03T11:21:55Z</time>
      </trkpt>
      <trkpt lat="45.49457" lon="3.2802">
        <ele>419</ele>
        <time>2012-11-03T11:21:58Z</time>
      </trkpt>
      <trkpt lat="45.49475" lon="3.28027">
        <ele>418</ele>
        <time>2012-11-03T11:22:01Z</time>
      </trkpt>
      <trkpt lat="45.49493" lon="3.28034">
        <ele>418</ele>
        <time>2012-11-03T11:22:04Z</time>
      </trkpt>
      <trkpt lat="45.49511" lon="3.2804">
        <ele>418</ele>
        <time>2012-11-03T11:22:07Z</time>
      </trkpt>
      <trkpt lat="45.49529" lon="3.28045">
        <ele>418</ele>
        <time>2012-11-03T11:22:10Z</time>
      </trkpt>
      <trkpt lat="45.49547" lon="3.2805">
        <ele>418</ele>
        <time>2012-11-03T11:22:13Z</time>
      </trkpt>
      <trkpt lat="45.49566" lon="3.28057">
        <ele>418</ele>
        <time>2012-11-03T11:22:16Z</time>
      </trkpt>
      <trkpt lat="45.49589" lon="3.28063">
        <ele>418</ele>
        <time>2012-11-03T11:22:20Z</time>
      </trkpt>
      <trkpt lat="45.49613" lon="3.28067">
        <ele>417</ele>
        <time>2012-11-03T11:22:24Z</time>
      </trkpt>
      <trkpt lat="45.49631" lon="3.28064">
        <ele>417</ele>
        <time>2012-11-03T11:22:27Z</time>
      </trkpt>
      <trkpt lat="45.49651" lon="3.28061">
        <ele>417</ele>
        <time>2012-11-03T11:22:30Z</time>
      </trkpt>
      <trkpt lat="45.49672" lon="3.28057">
        <ele>415</ele>
        <time>2012-11-03T11:22:33Z</time>
      </trkpt>
      <trkpt lat="45.49695" lon="3.28053">
        <ele>414</ele>
        <time>2012-11-03T11:22:36Z</time>
      </trkpt>
      <trkpt lat="45.49718" lon="3.28049">
        <ele>413</ele>
        <time>2012-11-03T11:22:39Z</time>
      </trkpt>
      <trkpt lat="45.49742" lon="3.28045">
        <ele>413</ele>
        <time>2012-11-03T11:22:42Z</time>
      </trkpt>
      <trkpt lat="45.49764" lon="3.28041">
        <ele>410</ele>
        <time>2012-11-03T11:22:45Z</time>
      </trkpt>
      <trkpt lat="45.49786" lon="3.28039">
        <ele>409</ele>
        <time>2012-11-03T11:22:48Z</time>
      </trkpt>
      <trkpt lat="45.49807" lon="3.28033">
        <ele>409</ele>
        <time>2012-11-03T11:22:51Z</time>
      </trkpt>
      <trkpt lat="45.49827" lon="3.28026">
        <ele>409</ele>
        <time>2012-11-03T11:22:54Z</time>
      </trkpt>
      <trkpt lat="45.49848" lon="3.28021">
        <ele>406</ele>
        <time>2012-11-03T11:22:57Z</time>
      </trkpt>
      <trkpt lat="45.4987" lon="3.28015">
        <ele>405</ele>
        <time>2012-11-03T11:23:00Z</time>
      </trkpt>
      <trkpt lat="45.49889" lon="3.28007">
        <ele>405</ele>
        <time>2012-11-03T11:23:03Z</time>
      </trkpt>
      <trkpt lat="45.4991" lon="3.28004">
        <ele>405</ele>
        <time>2012-11-03T11:23:07Z</time>
      </trkpt>
      <trkpt lat="45.49931" lon="3.2801">
        <ele>401</ele>
        <time>2012-11-03T11:23:12Z</time>
      </trkpt>
      <trkpt lat="45.4995" lon="3.28012">
        <ele>399</ele>
        <time>2012-11-03T11:23:16Z</time>
      </trkpt>
      <trkpt lat="45.49969" lon="3.28012">
        <ele>397</ele>
        <time>2012-11-03T11:23:20Z</time>
      </trkpt>
      <trkpt lat="45.49986" lon="3.28025">
        <ele>396</ele>
        <time>2012-11-03T11:23:25Z</time>
      </trkpt>
      <trkpt lat="45.5" lon="3.28045">
        <ele>396</ele>
        <time>2012-11-03T11:23:30Z</time>
      </trkpt>
      <trkpt lat="45.50012" lon="3.28066">
        <ele>392</ele>
        <time>2012-11-03T11:23:34Z</time>
      </trkpt>
      <trkpt lat="45.50026" lon="3.28089">
        <ele>394</ele>
        <time>2012-11-03T11:23:38Z</time>
      </trkpt>
      <trkpt lat="45.50044" lon="3.28102">
        <ele>394</ele>
        <time>2012-11-03T11:23:42Z</time>
      </trkpt>
      <trkpt lat="45.50064" lon="3.28103">
        <ele>393</ele>
        <time>2012-11-03T11:23:46Z</time>
      </trkpt>
      <trkpt lat="45.50084" lon="3.28103">
        <ele>391</ele>
        <time>2012-11-03T11:23:50Z</time>
      </trkpt>
      <trkpt lat="45.50102" lon="3.281">
        <ele>391</ele>
        <time>2012-11-03T11:23:53Z</time>
      </trkpt>
      <trkpt lat="45.5012" lon="3.28102">
        <ele>390</ele>
        <time>2012-11-03T11:23:58Z</time>
      </trkpt>
      <trkpt lat="45.50135" lon="3.28118">
        <ele>391</ele>
        <time>2012-11-03T11:24:04Z</time>
      </trkpt>
      <trkpt lat="45.50152" lon="3.28134">
        <ele>392</ele>
        <time>2012-11-03T11:24:11Z</time>
      </trkpt>
      <trkpt lat="45.50168" lon="3.28151">
        <ele>391</ele>
        <time>2012-11-03T11:24:18Z</time>
      </trkpt>
      <trkpt lat="45.50183" lon="3.28167">
        <ele>397</ele>
        <time>2012-11-03T11:24:26Z</time>
      </trkpt>
      <trkpt lat="45.50202" lon="3.28173">
        <ele>398</ele>
        <time>2012-11-03T11:24:33Z</time>
      </trkpt>
      <trkpt lat="45.5022" lon="3.28176">
        <ele>396</ele>
        <time>2012-11-03T11:24:39Z</time>
      </trkpt>
      <trkpt lat="45.50237" lon="3.28188">
        <ele>396</ele>
        <time>2012-11-03T11:24:46Z</time>
      </trkpt>
      <trkpt lat="45.50251" lon="3.28207">
        <ele>395</ele>
        <time>2012-11-03T11:24:57Z</time>
      </trkpt>
      <trkpt lat="45.5027" lon="3.28216">
        <ele>395</ele>
        <time>2012-11-03T11:25:09Z</time>
      </trkpt>
      <trkpt lat="45.50289" lon="3.28223">
        <ele>396</ele>
        <time>2012-11-03T11:25:17Z</time>
      </trkpt>
      <trkpt lat="45.50307" lon="3.28231">
        <ele>396</ele>
        <time>2012-11-03T11:25:26Z</time>
      </trkpt>
      <trkpt lat="45.50327" lon="3.2823">
        <ele>397</ele>
        <time>2012-11-03T11:25:34Z</time>
      </trkpt>
      <trkpt lat="45.50345" lon="3.28243">
        <ele>396</ele>
        <time>2012-11-03T11:25:42Z</time>
      </trkpt>
      <trkpt lat="45.50362" lon="3.28257">
        <ele>402</ele>
        <time>2012-11-03T11:25:52Z</time>
      </trkpt>
      <trkpt lat="45.50378" lon="3.28269">
        <ele>402</ele>
        <time>2012-11-03T11:26:01Z</time>
      </trkpt>
      <trkpt lat="45.50394" lon="3.28284">
        <ele>402</ele>
        <time>2012-11-03T11:26:09Z</time>
      </trkpt>
      <trkpt lat="45.50407" lon="3.28305">
        <ele>405</ele>
        <time>2012-11-03T11:26:16Z</time>
      </trkpt>
      <trkpt lat="45.50421" lon="3.28322">
        <ele>405</ele>
        <time>2012-11-03T11:26:22Z</time>
      </trkpt>
      <trkpt lat="45.50436" lon="3.28338">
        <ele>411</ele>
        <time>2012-11-03T11:26:28Z</time>
      </trkpt>
      <trkpt lat="45.50451" lon="3.28357">
        <ele>411</ele>
        <time>2012-11-03T11:26:34Z</time>
      </trkpt>
      <trkpt lat="45.50468" lon="3.28374">
        <ele>412</ele>
        <time>2012-11-03T11:26:41Z</time>
      </trkpt>
      <trkpt lat="45.50482" lon="3.28394">
        <ele>413</ele>
        <time>2012-11-03T11:26:48Z</time>
      </trkpt>
      <trkpt lat="45.50497" lon="3.28413">
        <ele>416</ele>
        <time>2012-11-03T11:26:56Z</time>
      </trkpt>
      <trkpt lat="45.50504" lon="3.28438">
        <ele>418</ele>
        <time>2012-11-03T11:27:05Z</time>
      </trkpt>
      <trkpt lat="45.50502" lon="3.28466">
        <ele>420</ele>
        <time>2012-11-03T11:27:13Z</time>
      </trkpt>
      <trkpt lat="45.50501" lon="3.28492">
        <ele>421</ele>
        <time>2012-11-03T11:27:22Z</time>
      </trkpt>
      <trkpt lat="45.50497" lon="3.28517">
        <ele>421</ele>
        <time>2012-11-03T11:27:30Z</time>
      </trkpt>
      <trkpt lat="45.50491" lon="3.28544">
        <ele>422</ele>
        <time>2012-11-03T11:27:38Z</time>
      </trkpt>
      <trkpt lat="45.50487" lon="3.28572">
        <ele>422</ele>
        <time>2012-11-03T11:27:46Z</time>
      </trkpt>
      <trkpt lat="45.50483" lon="3.28598">
        <ele>423</ele>
        <time>2012-11-03T11:27:53Z</time>
      </trkpt>
      <trkpt lat="45.50479" lon="3.28626">
        <ele>423</ele>
        <time>2012-11-03T11:28:00Z</time>
      </trkpt>
      <trkpt lat="45.50475" lon="3.28654">
        <ele>424</ele>
        <time>2012-11-03T11:28:08Z</time>
      </trkpt>
      <trkpt lat="45.50472" lon="3.28683">
        <ele>424</ele>
        <time>2012-11-03T11:28:16Z</time>
      </trkpt>
      <trkpt lat="45.50468" lon="3.28708">
        <ele>424</ele>
        <time>2012-11-03T11:28:27Z</time>
      </trkpt>
      <trkpt lat="45.50483" lon="3.28723">
        <ele>424</ele>
        <time>2012-11-03T11:29:54Z</time>
      </trkpt>
      <trkpt lat="45.50504" lon="3.2873">
        <ele>424</ele>
        <time>2012-11-03T11:30:00Z</time>
      </trkpt>
      <trkpt lat="45.50523" lon="3.28736">
        <ele>424</ele>
        <time>2012-11-03T11:30:05Z</time>
      </trkpt>
      <trkpt lat="45.50541" lon="3.28744">
        <ele>423</ele>
        <time>2012-11-03T11:30:09Z</time>
      </trkpt>
      <trkpt lat="45.5056" lon="3.28755">
        <ele>423</ele>
        <time>2012-11-03T11:30:13Z</time>
      </trkpt>
      <trkpt lat="45.50577" lon="3.28771">
        <ele>423</ele>
        <time>2012-11-03T11:30:17Z</time>
      </trkpt>
      <trkpt lat="45.50592" lon="3.28791">
        <ele>422</ele>
        <time>2012-11-03T11:30:21Z</time>
      </trkpt>
      <trkpt lat="45.50607" lon="3.28811">
        <ele>421</ele>
        <time>2012-11-03T11:30:25Z</time>
      </trkpt>
      <trkpt lat="45.50625" lon="3.28832">
        <ele>421</ele>
        <time>2012-11-03T11:30:29Z</time>
      </trkpt>
      <trkpt lat="45.50632" lon="3.28858">
        <ele>420</ele>
        <time>2012-11-03T11:30:32Z</time>
      </trkpt>
      <trkpt lat="45.50637" lon="3.28883">
        <ele>420</ele>
        <time>2012-11-03T11:30:35Z</time>
      </trkpt>
      <trkpt lat="45.50644" lon="3.28913">
        <ele>419</ele>
        <time>2012-11-03T11:30:39Z</time>
      </trkpt>
      <trkpt lat="45.50652" lon="3.28944">
        <ele>419</ele>
        <time>2012-11-03T11:30:43Z</time>
      </trkpt>
      <trkpt lat="45.50657" lon="3.28973">
        <ele>418</ele>
        <time>2012-11-03T11:30:47Z</time>
      </trkpt>
      <trkpt lat="45.50662" lon="3.29002">
        <ele>417</ele>
        <time>2012-11-03T11:30:51Z</time>
      </trkpt>
      <trkpt lat="45.50665" lon="3.29031">
        <ele>418</ele>
        <time>2012-11-03T11:30:55Z</time>
      </trkpt>
      <trkpt lat="45.50669" lon="3.29061">
        <ele>414</ele>
        <time>2012-11-03T11:30:59Z</time>
      </trkpt>
      <trkpt lat="45.50673" lon="3.29091">
        <ele>414</ele>
        <time>2012-11-03T11:31:03Z</time>
      </trkpt>
      <trkpt lat="45.50676" lon="3.29121">
        <ele>413</ele>
        <time>2012-11-03T11:31:07Z</time>
      </trkpt>
      <trkpt lat="45.5068" lon="3.29147">
        <ele>412</ele>
        <time>2012-11-03T11:31:11Z</time>
      </trkpt>
      <trkpt lat="45.50684" lon="3.29174">
        <ele>412</ele>
        <time>2012-11-03T11:31:15Z</time>
      </trkpt>
      <trkpt lat="45.50689" lon="3.29205">
        <ele>411</ele>
        <time>2012-11-03T11:31:19Z</time>
      </trkpt>
      <trkpt lat="45.50692" lon="3.29238">
        <ele>411</ele>
        <time>2012-11-03T11:31:23Z</time>
      </trkpt>
      <trkpt lat="45.50694" lon="3.29264">
        <ele>410</ele>
        <time>2012-11-03T11:31:26Z</time>
      </trkpt>
      <trkpt lat="45.50696" lon="3.2929">
        <ele>409</ele>
        <time>2012-11-03T11:31:28Z</time>
      </trkpt>
      <trkpt lat="45.50697" lon="3.29316">
        <ele>409</ele>
        <time>2012-11-03T11:31:31Z</time>
      </trkpt>
      <trkpt lat="45.507" lon="3.29357">
        <ele>406</ele>
        <time>2012-11-03T11:31:36Z</time>
      </trkpt>
      <trkpt lat="45.50702" lon="3.29388">
        <ele>406</ele>
        <time>2012-11-03T11:31:40Z</time>
      </trkpt>
      <trkpt lat="45.50719" lon="3.29404">
        <ele>405</ele>
        <time>2012-11-03T11:31:44Z</time>
      </trkpt>
      <trkpt lat="45.50742" lon="3.29412">
        <ele>403</ele>
        <time>2012-11-03T11:31:48Z</time>
      </trkpt>
      <trkpt lat="45.5076" lon="3.29417">
        <ele>401</ele>
        <time>2012-11-03T11:31:51Z</time>
      </trkpt>
      <trkpt lat="45.50781" lon="3.29423">
        <ele>399</ele>
        <time>2012-11-03T11:31:54Z</time>
      </trkpt>
      <trkpt lat="45.50803" lon="3.29431">
        <ele>398</ele>
        <time>2012-11-03T11:31:57Z</time>
      </trkpt>
      <trkpt lat="45.50829" lon="3.29437">
        <ele>397</ele>
        <time>2012-11-03T11:32:00Z</time>
      </trkpt>
      <trkpt lat="45.50847" lon="3.29442">
        <ele>394</ele>
        <time>2012-11-03T11:32:02Z</time>
      </trkpt>
      <trkpt lat="45.50866" lon="3.29446">
        <ele>393</ele>
        <time>2012-11-03T11:32:04Z</time>
      </trkpt>
      <trkpt lat="45.50887" lon="3.2945">
        <ele>393</ele>
        <time>2012-11-03T11:32:06Z</time>
      </trkpt>
      <trkpt lat="45.50908" lon="3.29455">
        <ele>392</ele>
        <time>2012-11-03T11:32:08Z</time>
      </trkpt>
      <trkpt lat="45.50927" lon="3.29458">
        <ele>390</ele>
        <time>2012-11-03T11:32:10Z</time>
      </trkpt>
      <trkpt lat="45.50946" lon="3.29464">
        <ele>390</ele>
        <time>2012-11-03T11:32:12Z</time>
      </trkpt>
      <trkpt lat="45.50972" lon="3.29473">
        <ele>390</ele>
        <time>2012-11-03T11:32:15Z</time>
      </trkpt>
      <trkpt lat="45.50996" lon="3.29482">
        <ele>390</ele>
        <time>2012-11-03T11:32:18Z</time>
      </trkpt>
      <trkpt lat="45.51018" lon="3.29487">
        <ele>389</ele>
        <time>2012-11-03T11:32:21Z</time>
      </trkpt>
      <trkpt lat="45.51039" lon="3.29493">
        <ele>389</ele>
        <time>2012-11-03T11:32:24Z</time>
      </trkpt>
      <trkpt lat="45.51059" lon="3.29497">
        <ele>388</ele>
        <time>2012-11-03T11:32:27Z</time>
      </trkpt>
      <trkpt lat="45.5108" lon="3.29503">
        <ele>388</ele>
        <time>2012-11-03T11:32:30Z</time>
      </trkpt>
      <trkpt lat="45.51099" lon="3.29511">
        <ele>388</ele>
        <time>2012-11-03T11:32:35Z</time>
      </trkpt>
      <trkpt lat="45.51118" lon="3.29517">
        <ele>388</ele>
        <time>2012-11-03T11:32:41Z</time>
      </trkpt>
      <trkpt lat="45.51137" lon="3.29526">
        <ele>388</ele>
        <time>2012-11-03T11:32:45Z</time>
      </trkpt>
      <trkpt lat="45.51157" lon="3.29531">
        <ele>388</ele>
        <time>2012-11-03T11:32:49Z</time>
      </trkpt>
      <trkpt lat="45.51176" lon="3.29538">
        <ele>387</ele>
        <time>2012-11-03T11:32:53Z</time>
      </trkpt>
      <trkpt lat="45.51195" lon="3.2954">
        <ele>387</ele>
        <time>2012-11-03T11:32:57Z</time>
      </trkpt>
      <trkpt lat="45.51218" lon="3.29544">
        <ele>387</ele>
        <time>2012-11-03T11:33:01Z</time>
      </trkpt>
      <trkpt lat="45.51241" lon="3.29545">
        <ele>387</ele>
        <time>2012-11-03T11:33:05Z</time>
      </trkpt>
      <trkpt lat="45.51261" lon="3.29543">
        <ele>386</ele>
        <time>2012-11-03T11:33:08Z</time>
      </trkpt>
      <trkpt lat="45.51281" lon="3.29538">
        <ele>386</ele>
        <time>2012-11-03T11:33:11Z</time>
      </trkpt>
      <trkpt lat="45.51299" lon="3.29534">
        <ele>386</ele>
        <time>2012-11-03T11:33:14Z</time>
      </trkpt>
      <trkpt lat="45.51317" lon="3.29523">
        <ele>386</ele>
        <time>2012-11-03T11:33:18Z</time>
      </trkpt>
      <trkpt lat="45.51336" lon="3.29512">
        <ele>386</ele>
        <time>2012-11-03T11:33:21Z</time>
      </trkpt>
      <trkpt lat="45.51357" lon="3.29501">
        <ele>387</ele>
        <time>2012-11-03T11:33:25Z</time>
      </trkpt>
      <trkpt lat="45.51377" lon="3.295">
        <ele>386</ele>
        <time>2012-11-03T11:33:29Z</time>
      </trkpt>
      <trkpt lat="45.51398" lon="3.295">
        <ele>387</ele>
        <time>2012-11-03T11:33:33Z</time>
      </trkpt>
      <trkpt lat="45.51417" lon="3.295">
        <ele>388</ele>
        <time>2012-11-03T11:33:37Z</time>
      </trkpt>
      <trkpt lat="45.51439" lon="3.29498">
        <ele>390</ele>
        <time>2012-11-03T11:33:42Z</time>
      </trkpt>
      <trkpt lat="45.51452" lon="3.29474">
        <ele>391</ele>
        <time>2012-11-03T11:33:47Z</time>
      </trkpt>
      <trkpt lat="45.51451" lon="3.29445">
        <ele>391</ele>
        <time>2012-11-03T11:33:52Z</time>
      </trkpt>
      <trkpt lat="45.5145" lon="3.29418">
        <ele>391</ele>
        <time>2012-11-03T11:33:57Z</time>
      </trkpt>
      <trkpt lat="45.51448" lon="3.29386">
        <ele>391</ele>
        <time>2012-11-03T11:34:02Z</time>
      </trkpt>
      <trkpt lat="45.51447" lon="3.29358">
        <ele>391</ele>
        <time>2012-11-03T11:34:06Z</time>
      </trkpt>
      <trkpt lat="45.51447" lon="3.29332">
        <ele>391</ele>
        <time>2012-11-03T11:34:10Z</time>
      </trkpt>
      <trkpt lat="45.51447" lon="3.29303">
        <ele>391</ele>
        <time>2012-11-03T11:34:14Z</time>
      </trkpt>
      <trkpt lat="45.51447" lon="3.29276">
        <ele>391</ele>
        <time>2012-11-03T11:34:18Z</time>
      </trkpt>
      <trkpt lat="45.51446" lon="3.29248">
        <ele>390</ele>
        <time>2012-11-03T11:34:22Z</time>
      </trkpt>
      <trkpt lat="45.51449" lon="3.29216">
        <ele>390</ele>
        <time>2012-11-03T11:34:26Z</time>
      </trkpt>
      <trkpt lat="45.51455" lon="3.29185">
        <ele>390</ele>
        <time>2012-11-03T11:34:30Z</time>
      </trkpt>
      <trkpt lat="45.5146" lon="3.29151">
        <ele>388</ele>
        <time>2012-11-03T11:34:34Z</time>
      </trkpt>
      <trkpt lat="45.51468" lon="3.29127">
        <ele>388</ele>
        <time>2012-11-03T11:34:37Z</time>
      </trkpt>
      <trkpt lat="45.51476" lon="3.29104">
        <ele>388</ele>
        <time>2012-11-03T11:34:40Z</time>
      </trkpt>
      <trkpt lat="45.51485" lon="3.29081">
        <ele>387</ele>
        <time>2012-11-03T11:34:43Z</time>
      </trkpt>
      <trkpt lat="45.51495" lon="3.29057">
        <ele>386</ele>
        <time>2012-11-03T11:34:46Z</time>
      </trkpt>
      <trkpt lat="45.51505" lon="3.29033">
        <ele>391</ele>
        <time>2012-11-03T11:34:49Z</time>
      </trkpt>
      <trkpt lat="45.51516" lon="3.29009">
        <ele>389</ele>
        <time>2012-11-03T11:34:52Z</time>
      </trkpt>
      <trkpt lat="45.51526" lon="3.28987">
        <ele>386</ele>
        <time>2012-11-03T11:34:55Z</time>
      </trkpt>
      <trkpt lat="45.51538" lon="3.28967">
        <ele>387</ele>
        <time>2012-11-03T11:34:58Z</time>
      </trkpt>
      <trkpt lat="45.51552" lon="3.28947">
        <ele>386</ele>
        <time>2012-11-03T11:35:01Z</time>
      </trkpt>
      <trkpt lat="45.51566" lon="3.28929">
        <ele>386</ele>
        <time>2012-11-03T11:35:04Z</time>
      </trkpt>
      <trkpt lat="45.5158" lon="3.28909">
        <ele>384</ele>
        <time>2012-11-03T11:35:07Z</time>
      </trkpt>
      <trkpt lat="45.51595" lon="3.28891">
        <ele>383</ele>
        <time>2012-11-03T11:35:10Z</time>
      </trkpt>
      <trkpt lat="45.5161" lon="3.28876">
        <ele>382</ele>
        <time>2012-11-03T11:35:13Z</time>
      </trkpt>
      <trkpt lat="45.51628" lon="3.2887">
        <ele>382</ele>
        <time>2012-11-03T11:35:16Z</time>
      </trkpt>
      <trkpt lat="45.51649" lon="3.28868">
        <ele>382</ele>
        <time>2012-11-03T11:35:19Z</time>
      </trkpt>
      <trkpt lat="45.5167" lon="3.28863">
        <ele>382</ele>
        <time>2012-11-03T11:35:22Z</time>
      </trkpt>
      <trkpt lat="45.51691" lon="3.28855">
        <ele>382</ele>
        <time>2012-11-03T11:35:25Z</time>
      </trkpt>
      <trkpt lat="45.51711" lon="3.28845">
        <ele>382</ele>
        <time>2012-11-03T11:35:28Z</time>
      </trkpt>
      <trkpt lat="45.51731" lon="3.28836">
        <ele>381</ele>
        <time>2012-11-03T11:35:31Z</time>
      </trkpt>
      <trkpt lat="45.5175" lon="3.28826">
        <ele>378</ele>
        <time>2012-11-03T11:35:34Z</time>
      </trkpt>
      <trkpt lat="45.51768" lon="3.28813">
        <ele>378</ele>
        <time>2012-11-03T11:35:37Z</time>
      </trkpt>
      <trkpt lat="45.51787" lon="3.28795">
        <ele>378</ele>
        <time>2012-11-03T11:35:40Z</time>
      </trkpt>
      <trkpt lat="45.51802" lon="3.28773">
        <ele>378</ele>
        <time>2012-11-03T11:35:43Z</time>
      </trkpt>
      <trkpt lat="45.51813" lon="3.28747">
        <ele>377</ele>
        <time>2012-11-03T11:35:46Z</time>
      </trkpt>
      <trkpt lat="45.51822" lon="3.28724">
        <ele>377</ele>
        <time>2012-11-03T11:35:49Z</time>
      </trkpt>
      <trkpt lat="45.51838" lon="3.28698">
        <ele>377</ele>
        <time>2012-11-03T11:35:53Z</time>
      </trkpt>
      <trkpt lat="45.51856" lon="3.28691">
        <ele>377</ele>
        <time>2012-11-03T11:35:57Z</time>
      </trkpt>
      <trkpt lat="45.51869" lon="3.2867">
        <ele>377</ele>
        <time>2012-11-03T11:36:01Z</time>
      </trkpt>
      <trkpt lat="45.51879" lon="3.28644">
        <ele>376</ele>
        <time>2012-11-03T11:36:05Z</time>
      </trkpt>
      <trkpt lat="45.51883" lon="3.28615">
        <ele>376</ele>
        <time>2012-11-03T11:36:09Z</time>
      </trkpt>
      <trkpt lat="45.51882" lon="3.28587">
        <ele>375</ele>
        <time>2012-11-03T11:36:13Z</time>
      </trkpt>
      <trkpt lat="45.51887" lon="3.28561">
        <ele>374</ele>
        <time>2012-11-03T11:36:17Z</time>
      </trkpt>
      <trkpt lat="45.51899" lon="3.2854">
        <ele>374</ele>
        <time>2012-11-03T11:36:22Z</time>
      </trkpt>
      <trkpt lat="45.51913" lon="3.28522">
        <ele>374</ele>
        <time>2012-11-03T11:36:29Z</time>
      </trkpt>
      <trkpt lat="45.51934" lon="3.28513">
        <ele>375</ele>
        <time>2012-11-03T11:36:34Z</time>
      </trkpt>
      <trkpt lat="45.51954" lon="3.28516">
        <ele>375</ele>
        <time>2012-11-03T11:36:39Z</time>
      </trkpt>
      <trkpt lat="45.51976" lon="3.28521">
        <ele>376</ele>
        <time>2012-11-03T11:36:44Z</time>
      </trkpt>
      <trkpt lat="45.51995" lon="3.28536">
        <ele>376</ele>
        <time>2012-11-03T11:36:48Z</time>
      </trkpt>
      <trkpt lat="45.52012" lon="3.28556">
        <ele>376</ele>
        <time>2012-11-03T11:36:52Z</time>
      </trkpt>
      <trkpt lat="45.52024" lon="3.2858">
        <ele>376</ele>
        <time>2012-11-03T11:36:56Z</time>
      </trkpt>
      <trkpt lat="45.52038" lon="3.28604">
        <ele>377</ele>
        <time>2012-11-03T11:37:00Z</time>
      </trkpt>
      <trkpt lat="45.52052" lon="3.28621">
        <ele>376</ele>
        <time>2012-11-03T11:37:04Z</time>
      </trkpt>
      <trkpt lat="45.52063" lon="3.28644">
        <ele>376</ele>
        <time>2012-11-03T11:37:08Z</time>
      </trkpt>
      <trkpt lat="45.52077" lon="3.28662">
        <ele>375</ele>
        <time>2012-11-03T11:37:12Z</time>
      </trkpt>
      <trkpt lat="45.52091" lon="3.28679">
        <ele>376</ele>
        <time>2012-11-03T11:37:16Z</time>
      </trkpt>
      <trkpt lat="45.52105" lon="3.28697">
        <ele>376</ele>
        <time>2012-11-03T11:37:20Z</time>
      </trkpt>
      <trkpt lat="45.52121" lon="3.28713">
        <ele>377</ele>
        <time>2012-11-03T11:37:24Z</time>
      </trkpt>
      <trkpt lat="45.52136" lon="3.28728">
        <ele>377</ele>
        <time>2012-11-03T11:37:28Z</time>
      </trkpt>
      <trkpt lat="45.5215" lon="3.28744">
        <ele>377</ele>
        <time>2012-11-03T11:37:32Z</time>
      </trkpt>
      <trkpt lat="45.52165" lon="3.28763">
        <ele>378</ele>
        <time>2012-11-03T11:37:36Z</time>
      </trkpt>
      <trkpt lat="45.52179" lon="3.28781">
        <ele>378</ele>
        <time>2012-11-03T11:37:40Z</time>
      </trkpt>
      <trkpt lat="45.522" lon="3.28788">
        <ele>378</ele>
        <time>2012-11-03T11:37:44Z</time>
      </trkpt>
      <trkpt lat="45.52219" lon="3.28805">
        <ele>378</ele>
        <time>2012-11-03T11:37:48Z</time>
      </trkpt>
      <trkpt lat="45.52239" lon="3.28821">
        <ele>378</ele>
        <time>2012-11-03T11:37:53Z</time>
      </trkpt>
      <trkpt lat="45.52259" lon="3.28831">
        <ele>378</ele>
        <time>2012-11-03T11:37:57Z</time>
      </trkpt>
      <trkpt lat="45.52276" lon="3.28846">
        <ele>378</ele>
        <time>2012-11-03T11:38:01Z</time>
      </trkpt>
      <trkpt lat="45.52295" lon="3.28861">
        <ele>377</ele>
        <time>2012-11-03T11:38:05Z</time>
      </trkpt>
      <trkpt lat="45.52313" lon="3.28875">
        <ele>377</ele>
        <time>2012-11-03T11:38:09Z</time>
      </trkpt>
      <trkpt lat="45.5233" lon="3.28884">
        <ele>377</ele>
        <time>2012-11-03T11:38:13Z</time>
      </trkpt>
      <trkpt lat="45.52348" lon="3.28891">
        <ele>376</ele>
        <time>2012-11-03T11:38:17Z</time>
      </trkpt>
      <trkpt lat="45.52365" lon="3.28906">
        <ele>377</ele>
        <time>2012-11-03T11:38:21Z</time>
      </trkpt>
      <trkpt lat="45.52381" lon="3.28919">
        <ele>377</ele>
        <time>2012-11-03T11:38:25Z</time>
      </trkpt>
      <trkpt lat="45.524" lon="3.28927">
        <ele>377</ele>
        <time>2012-11-03T11:38:29Z</time>
      </trkpt>
      <trkpt lat="45.5242" lon="3.28932">
        <ele>377</ele>
        <time>2012-11-03T11:38:33Z</time>
      </trkpt>
      <trkpt lat="45.52437" lon="3.28943">
        <ele>376</ele>
        <time>2012-11-03T11:38:37Z</time>
      </trkpt>
      <trkpt lat="45.52459" lon="3.28951">
        <ele>376</ele>
        <time>2012-11-03T11:38:41Z</time>
      </trkpt>
      <trkpt lat="45.52478" lon="3.28959">
        <ele>376</ele>
        <time>2012-11-03T11:38:45Z</time>
      </trkpt>
      <trkpt lat="45.52499" lon="3.28959">
        <ele>376</ele>
        <time>2012-11-03T11:38:49Z</time>
      </trkpt>
      <trkpt lat="45.5252" lon="3.28953">
        <ele>375</ele>
        <time>2012-11-03T11:38:53Z</time>
      </trkpt>
      <trkpt lat="45.52541" lon="3.28944">
        <ele>375</ele>
        <time>2012-11-03T11:38:57Z</time>
      </trkpt>
      <trkpt lat="45.52562" lon="3.28943">
        <ele>374</ele>
        <time>2012-11-03T11:39:01Z</time>
      </trkpt>
      <trkpt lat="45.52574" lon="3.28914">
        <ele>375</ele>
        <time>2012-11-03T11:39:05Z</time>
      </trkpt>
      <trkpt lat="45.52579" lon="3.28888">
        <ele>375</ele>
        <time>2012-11-03T11:39:08Z</time>
      </trkpt>
      <trkpt lat="45.52582" lon="3.28862">
        <ele>375</ele>
        <time>2012-11-03T11:39:11Z</time>
      </trkpt>
      <trkpt lat="45.52592" lon="3.28832">
        <ele>374</ele>
        <time>2012-11-03T11:39:15Z</time>
      </trkpt>
      <trkpt lat="45.52603" lon="3.28812">
        <ele>373</ele>
        <time>2012-11-03T11:39:18Z</time>
      </trkpt>
      <trkpt lat="45.52616" lon="3.28791">
        <ele>373</ele>
        <time>2012-11-03T11:39:21Z</time>
      </trkpt>
      <trkpt lat="45.52629" lon="3.28772">
        <ele>373</ele>
        <time>2012-11-03T11:39:24Z</time>
      </trkpt>
      <trkpt lat="45.52646" lon="3.28749">
        <ele>374</ele>
        <time>2012-11-03T11:39:28Z</time>
      </trkpt>
      <trkpt lat="45.52658" lon="3.28729">
        <ele>374</ele>
        <time>2012-11-03T11:39:31Z</time>
      </trkpt>
      <trkpt lat="45.52674" lon="3.28703">
        <ele>373</ele>
        <time>2012-11-03T11:39:35Z</time>
      </trkpt>
      <trkpt lat="45.52692" lon="3.28684">
        <ele>373</ele>
        <time>2012-11-03T11:39:39Z</time>
      </trkpt>
      <trkpt lat="45.52715" lon="3.28686">
        <ele>373</ele>
        <time>2012-11-03T11:39:43Z</time>
      </trkpt>
      <trkpt lat="45.52733" lon="3.28696">
        <ele>373</ele>
        <time>2012-11-03T11:39:46Z</time>
      </trkpt>
      <trkpt lat="45.52749" lon="3.2871">
        <ele>372</ele>
        <time>2012-11-03T11:39:49Z</time>
      </trkpt>
      <trkpt lat="45.52766" lon="3.28724">
        <ele>372</ele>
        <time>2012-11-03T11:39:52Z</time>
      </trkpt>
      <trkpt lat="45.52782" lon="3.28737">
        <ele>372</ele>
        <time>2012-11-03T11:39:55Z</time>
      </trkpt>
      <trkpt lat="45.528" lon="3.28748">
        <ele>372</ele>
        <time>2012-11-03T11:39:58Z</time>
      </trkpt>
      <trkpt lat="45.52818" lon="3.28751">
        <ele>372</ele>
        <time>2012-11-03T11:40:01Z</time>
      </trkpt>
      <trkpt lat="45.52837" lon="3.28752">
        <ele>372</ele>
        <time>2012-11-03T11:40:04Z</time>
      </trkpt>
      <trkpt lat="45.52858" lon="3.28764">
        <ele>372</ele>
        <time>2012-11-03T11:40:08Z</time>
      </trkpt>
      <trkpt lat="45.52868" lon="3.28792">
        <ele>372</ele>
        <time>2012-11-03T11:40:12Z</time>
      </trkpt>
      <trkpt lat="45.52872" lon="3.28826">
        <ele>372</ele>
        <time>2012-11-03T11:40:16Z</time>
      </trkpt>
      <trkpt lat="45.52892" lon="3.28837">
        <ele>372</ele>
        <time>2012-11-03T11:40:20Z</time>
      </trkpt>
      <trkpt lat="45.52916" lon="3.28831">
        <ele>372</ele>
        <time>2012-11-03T11:40:24Z</time>
      </trkpt>
      <trkpt lat="45.52933" lon="3.28844">
        <ele>372</ele>
        <time>2012-11-03T11:40:27Z</time>
      </trkpt>
      <trkpt lat="45.52953" lon="3.28864">
        <ele>372</ele>
        <time>2012-11-03T11:40:31Z</time>
      </trkpt>
      <trkpt lat="45.52969" lon="3.28882">
        <ele>372</ele>
        <time>2012-11-03T11:40:34Z</time>
      </trkpt>
      <trkpt lat="45.52984" lon="3.28901">
        <ele>372</ele>
        <time>2012-11-03T11:40:37Z</time>
      </trkpt>
      <trkpt lat="45.53002" lon="3.28921">
        <ele>372</ele>
        <time>2012-11-03T11:40:41Z</time>
      </trkpt>
      <trkpt lat="45.53014" lon="3.2894">
        <ele>373</ele>
        <time>2012-11-03T11:40:46Z</time>
      </trkpt>
      <trkpt lat="45.53033" lon="3.28948">
        <ele>373</ele>
        <time>2012-11-03T11:40:51Z</time>
      </trkpt>
      <trkpt lat="45.53053" lon="3.28956">
        <ele>373</ele>
        <time>2012-11-03T11:40:55Z</time>
      </trkpt>
      <trkpt lat="45.53076" lon="3.28967">
        <ele>373</ele>
        <time>2012-11-03T11:40:59Z</time>
      </trkpt>
      <trkpt lat="45.53094" lon="3.28976">
        <ele>373</ele>
        <time>2012-11-03T11:41:02Z</time>
      </trkpt>
      <trkpt lat="45.53113" lon="3.28986">
        <ele>374</ele>
        <time>2012-11-03T11:41:05Z</time>
      </trkpt>
      <trkpt lat="45.53133" lon="3.28996">
        <ele>374</ele>
        <time>2012-11-03T11:41:08Z</time>
      </trkpt>
      <trkpt lat="45.53153" lon="3.29003">
        <ele>376</ele>
        <time>2012-11-03T11:41:11Z</time>
      </trkpt>
      <trkpt lat="45.53173" lon="3.29014">
        <ele>376</ele>
        <time>2012-11-03T11:41:14Z</time>
      </trkpt>
      <trkpt lat="45.53193" lon="3.29024">
        <ele>376</ele>
        <time>2012-11-03T11:41:17Z</time>
      </trkpt>
      <trkpt lat="45.53215" lon="3.29035">
        <ele>376</ele>
        <time>2012-11-03T11:41:21Z</time>
      </trkpt>
      <trkpt lat="45.53233" lon="3.2905">
        <ele>376</ele>
        <time>2012-11-03T11:41:25Z</time>
      </trkpt>
      <trkpt lat="45.5325" lon="3.29028">
        <ele>375</ele>
        <time>2012-11-03T11:41:30Z</time>
      </trkpt>
      <trkpt lat="45.53264" lon="3.2901">
        <ele>375</ele>
        <time>2012-11-03T11:41:33Z</time>
      </trkpt>
      <trkpt lat="45.53282" lon="3.29002">
        <ele>375</ele>
        <time>2012-11-03T11:41:36Z</time>
      </trkpt>
      <trkpt lat="45.53303" lon="3.29001">
        <ele>375</ele>
        <time>2012-11-03T11:41:39Z</time>
      </trkpt>
      <trkpt lat="45.53322" lon="3.28999">
        <ele>374</ele>
        <time>2012-11-03T11:41:42Z</time>
      </trkpt>
      <trkpt lat="45.53332" lon="3.29025">
        <ele>375</ele>
        <time>2012-11-03T11:41:46Z</time>
      </trkpt>
      <trkpt lat="45.53341" lon="3.29053">
        <ele>374</ele>
        <time>2012-11-03T11:41:50Z</time>
      </trkpt>
      <trkpt lat="45.53363" lon="3.2904">
        <ele>374</ele>
        <time>2012-11-03T11:41:54Z</time>
      </trkpt>
      <trkpt lat="45.53381" lon="3.29029">
        <ele>374</ele>
        <time>2012-11-03T11:41:57Z</time>
      </trkpt>
      <trkpt lat="45.53401" lon="3.29025">
        <ele>374</ele>
        <time>2012-11-03T11:42:00Z</time>
      </trkpt>
      <trkpt lat="45.53419" lon="3.29021">
        <ele>374</ele>
        <time>2012-11-03T11:42:03Z</time>
      </trkpt>
      <trkpt lat="45.53437" lon="3.29022">
        <ele>374</ele>
        <time>2012-11-03T11:42:05Z</time>
      </trkpt>
      <trkpt lat="45.53457" lon="3.29027">
        <ele>374</ele>
        <time>2012-11-03T11:42:09Z</time>
      </trkpt>
      <trkpt lat="45.53479" lon="3.29026">
        <ele>374</ele>
        <time>2012-11-03T11:42:13Z</time>
      </trkpt>
      <trkpt lat="45.53495" lon="3.29002">
        <ele>373</ele>
        <time>2012-11-03T11:42:17Z</time>
      </trkpt>
      <trkpt lat="45.53508" lon="3.28979">
        <ele>373</ele>
        <time>2012-11-03T11:42:21Z</time>
      </trkpt>
      <trkpt lat="45.53525" lon="3.28964">
        <ele>372</ele>
        <time>2012-11-03T11:42:25Z</time>
      </trkpt>
      <trkpt lat="45.53548" lon="3.28955">
        <ele>372</ele>
        <time>2012-11-03T11:42:29Z</time>
      </trkpt>
      <trkpt lat="45.53568" lon="3.2895">
        <ele>372</ele>
        <time>2012-11-03T11:42:32Z</time>
      </trkpt>
      <trkpt lat="45.53587" lon="3.28948">
        <ele>372</ele>
        <time>2012-11-03T11:42:35Z</time>
      </trkpt>
      <trkpt lat="45.53609" lon="3.28949">
        <ele>372</ele>
        <time>2012-11-03T11:42:38Z</time>
      </trkpt>
      <trkpt lat="45.5363" lon="3.28952">
        <ele>373</ele>
        <time>2012-11-03T11:42:41Z</time>
      </trkpt>
      <trkpt lat="45.53652" lon="3.28957">
        <ele>373</ele>
        <time>2012-11-03T11:42:44Z</time>
      </trkpt>
      <trkpt lat="45.53674" lon="3.2896">
        <ele>375</ele>
        <time>2012-11-03T11:42:47Z</time>
      </trkpt>
      <trkpt lat="45.53694" lon="3.28962">
        <ele>375</ele>
        <time>2012-11-03T11:42:50Z</time>
      </trkpt>
      <trkpt lat="45.53712" lon="3.28952">
        <ele>375</ele>
        <time>2012-11-03T11:42:53Z</time>
      </trkpt>
      <trkpt lat="45.53725" lon="3.28933">
        <ele>376</ele>
        <time>2012-11-03T11:42:56Z</time>
      </trkpt>
      <trkpt lat="45.53729" lon="3.28902">
        <ele>374</ele>
        <time>2012-11-03T11:43:00Z</time>
      </trkpt>
      <trkpt lat="45.53728" lon="3.28874">
        <ele>373</ele>
        <time>2012-11-03T11:43:04Z</time>
      </trkpt>
      <trkpt lat="45.53726" lon="3.28848">
        <ele>373</ele>
        <time>2012-11-03T11:43:07Z</time>
      </trkpt>
      <trkpt lat="45.53727" lon="3.28814">
        <ele>371</ele>
        <time>2012-11-03T11:43:11Z</time>
      </trkpt>
      <trkpt lat="45.53731" lon="3.28785">
        <ele>371</ele>
        <time>2012-11-03T11:43:14Z</time>
      </trkpt>
      <trkpt lat="45.53738" lon="3.28758">
        <ele>371</ele>
        <time>2012-11-03T11:43:17Z</time>
      </trkpt>
      <trkpt lat="45.53746" lon="3.2873">
        <ele>371</ele>
        <time>2012-11-03T11:43:20Z</time>
      </trkpt>
      <trkpt lat="45.53751" lon="3.28704">
        <ele>372</ele>
        <time>2012-11-03T11:43:23Z</time>
      </trkpt>
      <trkpt lat="45.53759" lon="3.28679">
        <ele>373</ele>
        <time>2012-11-03T11:43:26Z</time>
      </trkpt>
      <trkpt lat="45.53764" lon="3.28652">
        <ele>372</ele>
        <time>2012-11-03T11:43:29Z</time>
      </trkpt>
      <trkpt lat="45.53774" lon="3.28622">
        <ele>371</ele>
        <time>2012-11-03T11:43:32Z</time>
      </trkpt>
      <trkpt lat="45.53784" lon="3.28592">
        <ele>371</ele>
        <time>2012-11-03T11:43:35Z</time>
      </trkpt>
      <trkpt lat="45.53797" lon="3.28565">
        <ele>370</ele>
        <time>2012-11-03T11:43:38Z</time>
      </trkpt>
      <trkpt lat="45.53808" lon="3.28542">
        <ele>370</ele>
        <time>2012-11-03T11:43:41Z</time>
      </trkpt>
      <trkpt lat="45.53823" lon="3.28523">
        <ele>370</ele>
        <time>2012-11-03T11:43:44Z</time>
      </trkpt>
      <trkpt lat="45.53838" lon="3.28507">
        <ele>372</ele>
        <time>2012-11-03T11:43:47Z</time>
      </trkpt>
      <trkpt lat="45.53854" lon="3.28488">
        <ele>372</ele>
        <time>2012-11-03T11:43:50Z</time>
      </trkpt>
      <trkpt lat="45.53871" lon="3.28472">
        <ele>372</ele>
        <time>2012-11-03T11:43:53Z</time>
      </trkpt>
      <trkpt lat="45.53889" lon="3.2846">
        <ele>373</ele>
        <time>2012-11-03T11:43:56Z</time>
      </trkpt>
      <trkpt lat="45.53908" lon="3.28446">
        <ele>373</ele>
        <time>2012-11-03T11:43:59Z</time>
      </trkpt>
      <trkpt lat="45.53926" lon="3.2843">
        <ele>375</ele>
        <time>2012-11-03T11:44:02Z</time>
      </trkpt>
      <trkpt lat="45.53942" lon="3.28412">
        <ele>373</ele>
        <time>2012-11-03T11:44:05Z</time>
      </trkpt>
      <trkpt lat="45.53955" lon="3.28386">
        <ele>373</ele>
        <time>2012-11-03T11:44:08Z</time>
      </trkpt>
      <trkpt lat="45.53964" lon="3.28357">
        <ele>373</ele>
        <time>2012-11-03T11:44:11Z</time>
      </trkpt>
      <trkpt lat="45.53972" lon="3.28328">
        <ele>371</ele>
        <time>2012-11-03T11:44:14Z</time>
      </trkpt>
      <trkpt lat="45.53978" lon="3.28298">
        <ele>370</ele>
        <time>2012-11-03T11:44:17Z</time>
      </trkpt>
      <trkpt lat="45.53987" lon="3.28271">
        <ele>369</ele>
        <time>2012-11-03T11:44:20Z</time>
      </trkpt>
      <trkpt lat="45.53996" lon="3.28245">
        <ele>368</ele>
        <time>2012-11-03T11:44:23Z</time>
      </trkpt>
      <trkpt lat="45.53999" lon="3.28215">
        <ele>368</ele>
        <time>2012-11-03T11:44:26Z</time>
      </trkpt>
      <trkpt lat="45.53996" lon="3.28188">
        <ele>368</ele>
        <time>2012-11-03T11:44:29Z</time>
      </trkpt>
      <trkpt lat="45.53994" lon="3.2816">
        <ele>368</ele>
        <time>2012-11-03T11:44:32Z</time>
      </trkpt>
      <trkpt lat="45.53993" lon="3.28133">
        <ele>368</ele>
        <time>2012-11-03T11:44:35Z</time>
      </trkpt>
      <trkpt lat="45.53992" lon="3.28104">
        <ele>368</ele>
        <time>2012-11-03T11:44:38Z</time>
      </trkpt>
      <trkpt lat="45.53989" lon="3.28076">
        <ele>369</ele>
        <time>2012-11-03T11:44:41Z</time>
      </trkpt>
      <trkpt lat="45.53991" lon="3.28049">
        <ele>369</ele>
        <time>2012-11-03T11:44:45Z</time>
      </trkpt>
      <trkpt lat="45.54002" lon="3.28029">
        <ele>369</ele>
        <time>2012-11-03T11:44:49Z</time>
      </trkpt>
      <trkpt lat="45.5402" lon="3.28014">
        <ele>370</ele>
        <time>2012-11-03T11:44:53Z</time>
      </trkpt>
      <trkpt lat="45.54039" lon="3.27996">
        <ele>370</ele>
        <time>2012-11-03T11:44:57Z</time>
      </trkpt>
      <trkpt lat="45.54055" lon="3.27981">
        <ele>370</ele>
        <time>2012-11-03T11:45:00Z</time>
      </trkpt>
      <trkpt lat="45.5407" lon="3.27966">
        <ele>370</ele>
        <time>2012-11-03T11:45:03Z</time>
      </trkpt>
      <trkpt lat="45.54086" lon="3.27951">
        <ele>373</ele>
        <time>2012-11-03T11:45:06Z</time>
      </trkpt>
      <trkpt lat="45.54102" lon="3.27937">
        <ele>374</ele>
        <time>2012-11-03T11:45:09Z</time>
      </trkpt>
      <trkpt lat="45.54119" lon="3.27923">
        <ele>375</ele>
        <time>2012-11-03T11:45:12Z</time>
      </trkpt>
      <trkpt lat="45.54135" lon="3.27907">
        <ele>375</ele>
        <time>2012-11-03T11:45:15Z</time>
      </trkpt>
      <trkpt lat="45.54153" lon="3.27891">
        <ele>376</ele>
        <time>2012-11-03T11:45:18Z</time>
      </trkpt>
      <trkpt lat="45.54171" lon="3.27873">
        <ele>383</ele>
        <time>2012-11-03T11:45:21Z</time>
      </trkpt>
      <trkpt lat="45.5419" lon="3.27851">
        <ele>382</ele>
        <time>2012-11-03T11:45:24Z</time>
      </trkpt>
      <trkpt lat="45.54208" lon="3.27826">
        <ele>376</ele>
        <time>2012-11-03T11:45:27Z</time>
      </trkpt>
      <trkpt lat="45.54222" lon="3.27807">
        <ele>376</ele>
        <time>2012-11-03T11:45:29Z</time>
      </trkpt>
      <trkpt lat="45.54239" lon="3.27777">
        <ele>374</ele>
        <time>2012-11-03T11:45:32Z</time>
      </trkpt>
      <trkpt lat="45.54249" lon="3.27756">
        <ele>372</ele>
        <time>2012-11-03T11:45:34Z</time>
      </trkpt>
      <trkpt lat="45.5426" lon="3.27728">
        <ele>371</ele>
        <time>2012-11-03T11:45:37Z</time>
      </trkpt>
      <trkpt lat="45.54272" lon="3.277">
        <ele>371</ele>
        <time>2012-11-03T11:45:40Z</time>
      </trkpt>
      <trkpt lat="45.54281" lon="3.27671">
        <ele>370</ele>
        <time>2012-11-03T11:45:43Z</time>
      </trkpt>
      <trkpt lat="45.54288" lon="3.27644">
        <ele>369</ele>
        <time>2012-11-03T11:45:46Z</time>
      </trkpt>
      <trkpt lat="45.54294" lon="3.27619">
        <ele>368</ele>
        <time>2012-11-03T11:45:49Z</time>
      </trkpt>
      <trkpt lat="45.54301" lon="3.27593">
        <ele>368</ele>
        <time>2012-11-03T11:45:52Z</time>
      </trkpt>
      <trkpt lat="45.5431" lon="3.27561">
        <ele>368</ele>
        <time>2012-11-03T11:45:56Z</time>
      </trkpt>
      <trkpt lat="45.54318" lon="3.27537">
        <ele>368</ele>
        <time>2012-11-03T11:45:59Z</time>
      </trkpt>
      <trkpt lat="45.54326" lon="3.2751">
        <ele>369</ele>
        <time>2012-11-03T11:46:02Z</time>
      </trkpt>
      <trkpt lat="45.54333" lon="3.27483">
        <ele>370</ele>
        <time>2012-11-03T11:46:05Z</time>
      </trkpt>
      <trkpt lat="45.54341" lon="3.27454">
        <ele>370</ele>
        <time>2012-11-03T11:46:08Z</time>
      </trkpt>
      <trkpt lat="45.54349" lon="3.27423">
        <ele>371</ele>
        <time>2012-11-03T11:46:11Z</time>
      </trkpt>
      <trkpt lat="45.54358" lon="3.27391">
        <ele>371</ele>
        <time>2012-11-03T11:46:14Z</time>
      </trkpt>
      <trkpt lat="45.54364" lon="3.27355">
        <ele>370</ele>
        <time>2012-11-03T11:46:17Z</time>
      </trkpt>
      <trkpt lat="45.54365" lon="3.27317">
        <ele>370</ele>
        <time>2012-11-03T11:46:20Z</time>
      </trkpt>
      <trkpt lat="45.54363" lon="3.27283">
        <ele>369</ele>
        <time>2012-11-03T11:46:23Z</time>
      </trkpt>
      <trkpt lat="45.54357" lon="3.2725">
        <ele>369</ele>
        <time>2012-11-03T11:46:26Z</time>
      </trkpt>
      <trkpt lat="45.54347" lon="3.27216">
        <ele>370</ele>
        <time>2012-11-03T11:46:29Z</time>
      </trkpt>
      <trkpt lat="45.54335" lon="3.27187">
        <ele>371</ele>
        <time>2012-11-03T11:46:32Z</time>
      </trkpt>
      <trkpt lat="45.54324" lon="3.27162">
        <ele>372</ele>
        <time>2012-11-03T11:46:35Z</time>
      </trkpt>
      <trkpt lat="45.54321" lon="3.27137">
        <ele>371</ele>
        <time>2012-11-03T11:46:38Z</time>
      </trkpt>
      <trkpt lat="45.54319" lon="3.27109">
        <ele>372</ele>
        <time>2012-11-03T11:46:41Z</time>
      </trkpt>
      <trkpt lat="45.54316" lon="3.27083">
        <ele>372</ele>
        <time>2012-11-03T11:46:44Z</time>
      </trkpt>
      <trkpt lat="45.54315" lon="3.27054">
        <ele>371</ele>
        <time>2012-11-03T11:46:47Z</time>
      </trkpt>
      <trkpt lat="45.54312" lon="3.27026">
        <ele>371</ele>
        <time>2012-11-03T11:46:50Z</time>
      </trkpt>
      <trkpt lat="45.54311" lon="3.26997">
        <ele>371</ele>
        <time>2012-11-03T11:46:53Z</time>
      </trkpt>
      <trkpt lat="45.54311" lon="3.26968">
        <ele>371</ele>
        <time>2012-11-03T11:46:56Z</time>
      </trkpt>
      <trkpt lat="45.5431" lon="3.2694">
        <ele>371</ele>
        <time>2012-11-03T11:46:59Z</time>
      </trkpt>
      <trkpt lat="45.54312" lon="3.26913">
        <ele>373</ele>
        <time>2012-11-03T11:47:02Z</time>
      </trkpt>
      <trkpt lat="45.54321" lon="3.26888">
        <ele>373</ele>
        <time>2012-11-03T11:47:05Z</time>
      </trkpt>
      <trkpt lat="45.54337" lon="3.26869">
        <ele>373</ele>
        <time>2012-11-03T11:47:08Z</time>
      </trkpt>
      <trkpt lat="45.54353" lon="3.26854">
        <ele>373</ele>
        <time>2012-11-03T11:47:11Z</time>
      </trkpt>
      <trkpt lat="45.54372" lon="3.26842">
        <ele>373</ele>
        <time>2012-11-03T11:47:15Z</time>
      </trkpt>
      <trkpt lat="45.54389" lon="3.26836">
        <ele>373</ele>
        <time>2012-11-03T11:47:19Z</time>
      </trkpt>
      <trkpt lat="45.54413" lon="3.2684">
        <ele>373</ele>
        <time>2012-11-03T11:47:23Z</time>
      </trkpt>
      <trkpt lat="45.54433" lon="3.26851">
        <ele>373</ele>
        <time>2012-11-03T11:47:26Z</time>
      </trkpt>
      <trkpt lat="45.5445" lon="3.26858">
        <ele>373</ele>
        <time>2012-11-03T11:47:29Z</time>
      </trkpt>
      <trkpt lat="45.5447" lon="3.26866">
        <ele>373</ele>
        <time>2012-11-03T11:47:33Z</time>
      </trkpt>
      <trkpt lat="45.54489" lon="3.26869">
        <ele>373</ele>
        <time>2012-11-03T11:47:37Z</time>
      </trkpt>
      <trkpt lat="45.54502" lon="3.26849">
        <ele>373</ele>
        <time>2012-11-03T11:47:40Z</time>
      </trkpt>
      <trkpt lat="45.54509" lon="3.26817">
        <ele>373</ele>
        <time>2012-11-03T11:47:46Z</time>
      </trkpt>
      <trkpt lat="45.54514" lon="3.26793">
        <ele>373</ele>
        <time>2012-11-03T11:47:50Z</time>
      </trkpt>
      <trkpt lat="45.54516" lon="3.26761">
        <ele>374</ele>
        <time>2012-11-03T11:47:55Z</time>
      </trkpt>
      <trkpt lat="45.54512" lon="3.26731">
        <ele>374</ele>
        <time>2012-11-03T11:47:59Z</time>
      </trkpt>
      <trkpt lat="45.54506" lon="3.26703">
        <ele>374</ele>
        <time>2012-11-03T11:48:03Z</time>
      </trkpt>
      <trkpt lat="45.54496" lon="3.26677">
        <ele>375</ele>
        <time>2012-11-03T11:48:08Z</time>
      </trkpt>
      <trkpt lat="45.54489" lon="3.26646">
        <ele>374</ele>
        <time>2012-11-03T11:48:12Z</time>
      </trkpt>
      <trkpt lat="45.5448" lon="3.26615">
        <ele>374</ele>
        <time>2012-11-03T11:48:16Z</time>
      </trkpt>
      <trkpt lat="45.54474" lon="3.26585">
        <ele>374</ele>
        <time>2012-11-03T11:48:20Z</time>
      </trkpt>
      <trkpt lat="45.54467" lon="3.26554">
        <ele>374</ele>
        <time>2012-11-03T11:48:24Z</time>
      </trkpt>
      <trkpt lat="45.5446" lon="3.26523">
        <ele>374</ele>
        <time>2012-11-03T11:48:28Z</time>
      </trkpt>
      <trkpt lat="45.54452" lon="3.26493">
        <ele>374</ele>
        <time>2012-11-03T11:48:32Z</time>
      </trkpt>
      <trkpt lat="45.54449" lon="3.26463">
        <ele>374</ele>
        <time>2012-11-03T11:48:36Z</time>
      </trkpt>
      <trkpt lat="45.54444" lon="3.26434">
        <ele>374</ele>
        <time>2012-11-03T11:48:40Z</time>
      </trkpt>
      <trkpt lat="45.54434" lon="3.26409">
        <ele>374</ele>
        <time>2012-11-03T11:48:44Z</time>
      </trkpt>
      <trkpt lat="45.54413" lon="3.26401">
        <ele>375</ele>
        <time>2012-11-03T11:48:48Z</time>
      </trkpt>
      <trkpt lat="45.54393" lon="3.26404">
        <ele>375</ele>
        <time>2012-11-03T11:48:52Z</time>
      </trkpt>
      <trkpt lat="45.5437" lon="3.26408">
        <ele>376</ele>
        <time>2012-11-03T11:48:57Z</time>
      </trkpt>
      <trkpt lat="45.54353" lon="3.26415">
        <ele>376</ele>
        <time>2012-11-03T11:49:02Z</time>
      </trkpt>
      <trkpt lat="45.54332" lon="3.26424">
        <ele>378</ele>
        <time>2012-11-03T11:49:07Z</time>
      </trkpt>
      <trkpt lat="45.54314" lon="3.2643">
        <ele>379</ele>
        <time>2012-11-03T11:49:13Z</time>
      </trkpt>
      <trkpt lat="45.54295" lon="3.26433">
        <ele>380</ele>
        <time>2012-11-03T11:49:19Z</time>
      </trkpt>
      <trkpt lat="45.54276" lon="3.26433">
        <ele>381</ele>
        <time>2012-11-03T11:49:25Z</time>
      </trkpt>
      <trkpt lat="45.54255" lon="3.26432">
        <ele>382</ele>
        <time>2012-11-03T11:49:30Z</time>
      </trkpt>
      <trkpt lat="45.54237" lon="3.2644">
        <ele>384</ele>
        <time>2012-11-03T11:49:36Z</time>
      </trkpt>
      <trkpt lat="45.54221" lon="3.26456">
        <ele>384</ele>
        <time>2012-11-03T11:49:42Z</time>
      </trkpt>
      <trkpt lat="45.54218" lon="3.26483">
        <ele>383</ele>
        <time>2012-11-03T11:49:47Z</time>
      </trkpt>
      <trkpt lat="45.54219" lon="3.26515">
        <ele>381</ele>
        <time>2012-11-03T11:49:52Z</time>
      </trkpt>
      <trkpt lat="45.54218" lon="3.26544">
        <ele>380</ele>
        <time>2012-11-03T11:49:56Z</time>
      </trkpt>
      <trkpt lat="45.54213" lon="3.26577">
        <ele>380</ele>
        <time>2012-11-03T11:50:00Z</time>
      </trkpt>
      <trkpt lat="45.54195" lon="3.2658">
        <ele>379</ele>
        <time>2012-11-03T11:50:03Z</time>
      </trkpt>
      <trkpt lat="45.54175" lon="3.26573">
        <ele>379</ele>
        <time>2012-11-03T11:50:06Z</time>
      </trkpt>
      <trkpt lat="45.54153" lon="3.26565">
        <ele>378</ele>
        <time>2012-11-03T11:50:09Z</time>
      </trkpt>
      <trkpt lat="45.54131" lon="3.26556">
        <ele>378</ele>
        <time>2012-11-03T11:50:12Z</time>
      </trkpt>
      <trkpt lat="45.54109" lon="3.26545">
        <ele>378</ele>
        <time>2012-11-03T11:50:15Z</time>
      </trkpt>
      <trkpt lat="45.54089" lon="3.26532">
        <ele>378</ele>
        <time>2012-11-03T11:50:18Z</time>
      </trkpt>
      <trkpt lat="45.54071" lon="3.26513">
        <ele>375</ele>
        <time>2012-11-03T11:50:21Z</time>
      </trkpt>
      <trkpt lat="45.54055" lon="3.26496">
        <ele>376</ele>
        <time>2012-11-03T11:50:24Z</time>
      </trkpt>
      <trkpt lat="45.54038" lon="3.26478">
        <ele>376</ele>
        <time>2012-11-03T11:50:27Z</time>
      </trkpt>
      <trkpt lat="45.54023" lon="3.26458">
        <ele>376</ele>
        <time>2012-11-03T11:50:30Z</time>
      </trkpt>
      <trkpt lat="45.5401" lon="3.26433">
        <ele>376</ele>
        <time>2012-11-03T11:50:34Z</time>
      </trkpt>
      <trkpt lat="45.53996" lon="3.26407">
        <ele>375</ele>
        <time>2012-11-03T11:50:38Z</time>
      </trkpt>
      <trkpt lat="45.53982" lon="3.26384">
        <ele>376</ele>
        <time>2012-11-03T11:50:42Z</time>
      </trkpt>
      <trkpt lat="45.53969" lon="3.26361">
        <ele>377</ele>
        <time>2012-11-03T11:50:46Z</time>
      </trkpt>
      <trkpt lat="45.53955" lon="3.26339">
        <ele>376</ele>
        <time>2012-11-03T11:50:50Z</time>
      </trkpt>
      <trkpt lat="45.53941" lon="3.26319">
        <ele>378</ele>
        <time>2012-11-03T11:50:54Z</time>
      </trkpt>
      <trkpt lat="45.53925" lon="3.263">
        <ele>379</ele>
        <time>2012-11-03T11:50:58Z</time>
      </trkpt>
      <trkpt lat="45.5391" lon="3.2628">
        <ele>376</ele>
        <time>2012-11-03T11:51:02Z</time>
      </trkpt>
      <trkpt lat="45.53896" lon="3.26259">
        <ele>377</ele>
        <time>2012-11-03T11:51:06Z</time>
      </trkpt>
      <trkpt lat="45.5388" lon="3.26237">
        <ele>379</ele>
        <time>2012-11-03T11:51:10Z</time>
      </trkpt>
      <trkpt lat="45.53868" lon="3.26217">
        <ele>379</ele>
        <time>2012-11-03T11:51:13Z</time>
      </trkpt>
      <trkpt lat="45.53852" lon="3.26192">
        <ele>379</ele>
        <time>2012-11-03T11:51:17Z</time>
      </trkpt>
      <trkpt lat="45.53837" lon="3.26167">
        <ele>379</ele>
        <time>2012-11-03T11:51:21Z</time>
      </trkpt>
      <trkpt lat="45.53842" lon="3.26139">
        <ele>382</ele>
        <time>2012-11-03T11:51:27Z</time>
      </trkpt>
      <trkpt lat="45.53852" lon="3.26116">
        <ele>383</ele>
        <time>2012-11-03T11:51:35Z</time>
      </trkpt>
      <trkpt lat="45.53862" lon="3.26095">
        <ele>384</ele>
        <time>2012-11-03T11:51:42Z</time>
      </trkpt>
      <trkpt lat="45.53876" lon="3.26072">
        <ele>387</ele>
        <time>2012-11-03T11:51:49Z</time>
      </trkpt>
      <trkpt lat="45.53889" lon="3.26048">
        <ele>387</ele>
        <time>2012-11-03T11:51:55Z</time>
      </trkpt>
      <trkpt lat="45.53871" lon="3.26056">
        <ele>387</ele>
        <time>2012-11-03T11:52:09Z</time>
      </trkpt>
      <trkpt lat="45.53859" lon="3.26079">
        <ele>386</ele>
        <time>2012-11-03T11:52:14Z</time>
      </trkpt>
      <trkpt lat="45.53847" lon="3.26098">
        <ele>384</ele>
        <time>2012-11-03T11:52:25Z</time>
      </trkpt>
      <trkpt lat="45.53833" lon="3.26119">
        <ele>380</ele>
        <time>2012-11-03T11:52:32Z</time>
      </trkpt>
      <trkpt lat="45.53815" lon="3.26132">
        <ele>379</ele>
        <time>2012-11-03T11:52:39Z</time>
      </trkpt>
      <trkpt lat="45.53793" lon="3.26145">
        <ele>378</ele>
        <time>2012-11-03T11:52:44Z</time>
      </trkpt>
      <trkpt lat="45.53772" lon="3.26142">
        <ele>377</ele>
        <time>2012-11-03T11:52:48Z</time>
      </trkpt>
      <trkpt lat="45.53757" lon="3.2612">
        <ele>378</ele>
        <time>2012-11-03T11:52:53Z</time>
      </trkpt>
      <trkpt lat="45.53744" lon="3.26101">
        <ele>375</ele>
        <time>2012-11-03T11:52:57Z</time>
      </trkpt>
      <trkpt lat="45.53729" lon="3.2608">
        <ele>377</ele>
        <time>2012-11-03T11:53:01Z</time>
      </trkpt>
      <trkpt lat="45.53713" lon="3.2606">
        <ele>377</ele>
        <time>2012-11-03T11:53:05Z</time>
      </trkpt>
      <trkpt lat="45.53696" lon="3.26039">
        <ele>377</ele>
        <time>2012-11-03T11:53:09Z</time>
      </trkpt>
      <trkpt lat="45.5368" lon="3.26019">
        <ele>377</ele>
        <time>2012-11-03T11:53:13Z</time>
      </trkpt>
      <trkpt lat="45.53665" lon="3.25999">
        <ele>376</ele>
        <time>2012-11-03T11:53:17Z</time>
      </trkpt>
      <trkpt lat="45.53649" lon="3.2598">
        <ele>376</ele>
        <time>2012-11-03T11:53:21Z</time>
      </trkpt>
      <trkpt lat="45.53631" lon="3.25962">
        <ele>375</ele>
        <time>2012-11-03T11:53:25Z</time>
      </trkpt>
      <trkpt lat="45.53613" lon="3.25941">
        <ele>375</ele>
        <time>2012-11-03T11:53:29Z</time>
      </trkpt>
      <trkpt lat="45.53594" lon="3.25922">
        <ele>374</ele>
        <time>2012-11-03T11:53:33Z</time>
      </trkpt>
      <trkpt lat="45.53575" lon="3.25903">
        <ele>374</ele>
        <time>2012-11-03T11:53:37Z</time>
      </trkpt>
      <trkpt lat="45.53555" lon="3.25889">
        <ele>375</ele>
        <time>2012-11-03T11:53:41Z</time>
      </trkpt>
      <trkpt lat="45.53535" lon="3.25877">
        <ele>375</ele>
        <time>2012-11-03T11:53:45Z</time>
      </trkpt>
      <trkpt lat="45.53516" lon="3.25863">
        <ele>375</ele>
        <time>2012-11-03T11:53:49Z</time>
      </trkpt>
      <trkpt lat="45.53495" lon="3.2585">
        <ele>374</ele>
        <time>2012-11-03T11:53:53Z</time>
      </trkpt>
      <trkpt lat="45.53476" lon="3.25835">
        <ele>374</ele>
        <time>2012-11-03T11:53:57Z</time>
      </trkpt>
      <trkpt lat="45.53454" lon="3.25821">
        <ele>376</ele>
        <time>2012-11-03T11:54:01Z</time>
      </trkpt>
      <trkpt lat="45.53436" lon="3.25811">
        <ele>376</ele>
        <time>2012-11-03T11:54:05Z</time>
      </trkpt>
      <trkpt lat="45.53419" lon="3.258">
        <ele>376</ele>
        <time>2012-11-03T11:54:09Z</time>
      </trkpt>
      <trkpt lat="45.53409" lon="3.25778">
        <ele>376</ele>
        <time>2012-11-03T11:54:14Z</time>
      </trkpt>
      <trkpt lat="45.53415" lon="3.25752">
        <ele>377</ele>
        <time>2012-11-03T11:54:19Z</time>
      </trkpt>
      <trkpt lat="45.53422" lon="3.25728">
        <ele>380</ele>
        <time>2012-11-03T11:54:25Z</time>
      </trkpt>
      <trkpt lat="45.53429" lon="3.25704">
        <ele>381</ele>
        <time>2012-11-03T11:54:32Z</time>
      </trkpt>
      <trkpt lat="45.53439" lon="3.25682">
        <ele>382</ele>
        <time>2012-11-03T11:54:39Z</time>
      </trkpt>
      <trkpt lat="45.53449" lon="3.2566">
        <ele>385</ele>
        <time>2012-11-03T11:54:45Z</time>
      </trkpt>
      <trkpt lat="45.53461" lon="3.25641">
        <ele>386</ele>
        <time>2012-11-03T11:54:50Z</time>
      </trkpt>
      <trkpt lat="45.53476" lon="3.25626">
        <ele>386</ele>
        <time>2012-11-03T11:54:55Z</time>
      </trkpt>
      <trkpt lat="45.53489" lon="3.25607">
        <ele>387</ele>
        <time>2012-11-03T11:55:00Z</time>
      </trkpt>
      <trkpt lat="45.53504" lon="3.25586">
        <ele>389</ele>
        <time>2012-11-03T11:55:06Z</time>
      </trkpt>
      <trkpt lat="45.53514" lon="3.2556">
        <ele>389</ele>
        <time>2012-11-03T11:55:12Z</time>
      </trkpt>
      <trkpt lat="45.53508" lon="3.25532">
        <ele>389</ele>
        <time>2012-11-03T11:55:18Z</time>
      </trkpt>
      <trkpt lat="45.53501" lon="3.25508">
        <ele>389</ele>
        <time>2012-11-03T11:55:24Z</time>
      </trkpt>
      <trkpt lat="45.53495" lon="3.25483">
        <ele>389</ele>
        <time>2012-11-03T11:55:29Z</time>
      </trkpt>
      <trkpt lat="45.53493" lon="3.25457">
        <ele>389</ele>
        <time>2012-11-03T11:55:34Z</time>
      </trkpt>
      <trkpt lat="45.53493" lon="3.25426">
        <ele>390</ele>
        <time>2012-11-03T11:55:39Z</time>
      </trkpt>
      <trkpt lat="45.53493" lon="3.25395">
        <ele>390</ele>
        <time>2012-11-03T11:55:44Z</time>
      </trkpt>
      <trkpt lat="45.53489" lon="3.25368">
        <ele>390</ele>
        <time>2012-11-03T11:55:48Z</time>
      </trkpt>
      <trkpt lat="45.53484" lon="3.25342">
        <ele>390</ele>
        <time>2012-11-03T11:55:52Z</time>
      </trkpt>
      <trkpt lat="45.53478" lon="3.25314">
        <ele>391</ele>
        <time>2012-11-03T11:55:56Z</time>
      </trkpt>
      <trkpt lat="45.53473" lon="3.25288">
        <ele>391</ele>
        <time>2012-11-03T11:56:00Z</time>
      </trkpt>
      <trkpt lat="45.53465" lon="3.2526">
        <ele>391</ele>
        <time>2012-11-03T11:56:05Z</time>
      </trkpt>
      <trkpt lat="45.53463" lon="3.25235">
        <ele>391</ele>
        <time>2012-11-03T11:56:30Z</time>
      </trkpt>
      <trkpt lat="45.5345" lon="3.25217">
        <ele>392</ele>
        <time>2012-11-03T11:56:37Z</time>
      </trkpt>
      <trkpt lat="45.53446" lon="3.25188">
        <ele>392</ele>
        <time>2012-11-03T11:56:42Z</time>
      </trkpt>
      <trkpt lat="45.53441" lon="3.25157">
        <ele>393</ele>
        <time>2012-11-03T11:56:47Z</time>
      </trkpt>
      <trkpt lat="45.53438" lon="3.25128">
        <ele>393</ele>
        <time>2012-11-03T11:56:51Z</time>
      </trkpt>
      <trkpt lat="45.53433" lon="3.25099">
        <ele>393</ele>
        <time>2012-11-03T11:56:55Z</time>
      </trkpt>
      <trkpt lat="45.53429" lon="3.25071">
        <ele>394</ele>
        <time>2012-11-03T11:56:59Z</time>
      </trkpt>
      <trkpt lat="45.53424" lon="3.25042">
        <ele>393</ele>
        <time>2012-11-03T11:57:03Z</time>
      </trkpt>
      <trkpt lat="45.53419" lon="3.25017">
        <ele>393</ele>
        <time>2012-11-03T11:57:07Z</time>
      </trkpt>
      <trkpt lat="45.53416" lon="3.24989">
        <ele>392</ele>
        <time>2012-11-03T11:57:11Z</time>
      </trkpt>
      <trkpt lat="45.53411" lon="3.24956">
        <ele>393</ele>
        <time>2012-11-03T11:57:15Z</time>
      </trkpt>
      <trkpt lat="45.53406" lon="3.24926">
        <ele>394</ele>
        <time>2012-11-03T11:57:19Z</time>
      </trkpt>
      <trkpt lat="45.53401" lon="3.24896">
        <ele>395</ele>
        <time>2012-11-03T11:57:23Z</time>
      </trkpt>
      <trkpt lat="45.53394" lon="3.24867">
        <ele>395</ele>
        <time>2012-11-03T11:57:27Z</time>
      </trkpt>
      <trkpt lat="45.53389" lon="3.24835">
        <ele>396</ele>
        <time>2012-11-03T11:57:31Z</time>
      </trkpt>
      <trkpt lat="45.53384" lon="3.24804">
        <ele>396</ele>
        <time>2012-11-03T11:57:35Z</time>
      </trkpt>
      <trkpt lat="45.53379" lon="3.24773">
        <ele>396</ele>
        <time>2012-11-03T11:57:39Z</time>
      </trkpt>
      <trkpt lat="45.53374" lon="3.24743">
        <ele>396</ele>
        <time>2012-11-03T11:57:43Z</time>
      </trkpt>
      <trkpt lat="45.53369" lon="3.24712">
        <ele>396</ele>
        <time>2012-11-03T11:57:47Z</time>
      </trkpt>
      <trkpt lat="45.53364" lon="3.24684">
        <ele>396</ele>
        <time>2012-11-03T11:57:51Z</time>
      </trkpt>
      <trkpt lat="45.53351" lon="3.24661">
        <ele>396</ele>
        <time>2012-11-03T11:57:56Z</time>
      </trkpt>
      <trkpt lat="45.53331" lon="3.24654">
        <ele>396</ele>
        <time>2012-11-03T11:58:00Z</time>
      </trkpt>
      <trkpt lat="45.53311" lon="3.24646">
        <ele>396</ele>
        <time>2012-11-03T11:58:04Z</time>
      </trkpt>
      <trkpt lat="45.5329" lon="3.24638">
        <ele>396</ele>
        <time>2012-11-03T11:58:08Z</time>
      </trkpt>
      <trkpt lat="45.53268" lon="3.24628">
        <ele>396</ele>
        <time>2012-11-03T11:58:12Z</time>
      </trkpt>
      <trkpt lat="45.53248" lon="3.24617">
        <ele>397</ele>
        <time>2012-11-03T11:58:16Z</time>
      </trkpt>
      <trkpt lat="45.53226" lon="3.24604">
        <ele>397</ele>
        <time>2012-11-03T11:58:20Z</time>
      </trkpt>
      <trkpt lat="45.53206" lon="3.24592">
        <ele>396</ele>
        <time>2012-11-03T11:58:24Z</time>
      </trkpt>
      <trkpt lat="45.53187" lon="3.24581">
        <ele>397</ele>
        <time>2012-11-03T11:58:28Z</time>
      </trkpt>
      <trkpt lat="45.53166" lon="3.24575">
        <ele>396</ele>
        <time>2012-11-03T11:58:32Z</time>
      </trkpt>
      <trkpt lat="45.53145" lon="3.24571">
        <ele>396</ele>
        <time>2012-11-03T11:58:36Z</time>
      </trkpt>
      <trkpt lat="45.53122" lon="3.2457">
        <ele>396</ele>
        <time>2012-11-03T11:58:40Z</time>
      </trkpt>
      <trkpt lat="45.531" lon="3.2457">
        <ele>396</ele>
        <time>2012-11-03T11:58:44Z</time>
      </trkpt>
      <trkpt lat="45.5308" lon="3.2457">
        <ele>396</ele>
        <time>2012-11-03T11:58:48Z</time>
      </trkpt>
      <trkpt lat="45.5306" lon="3.24569">
        <ele>396</ele>
        <time>2012-11-03T11:58:52Z</time>
      </trkpt>
      <trkpt lat="45.5304" lon="3.2457">
        <ele>396</ele>
        <time>2012-11-03T11:58:56Z</time>
      </trkpt>
      <trkpt lat="45.53018" lon="3.24572">
        <ele>397</ele>
        <time>2012-11-03T11:59:00Z</time>
      </trkpt>
      <trkpt lat="45.52997" lon="3.2457">
        <ele>397</ele>
        <time>2012-11-03T11:59:04Z</time>
      </trkpt>
      <trkpt lat="45.52975" lon="3.24571">
        <ele>397</ele>
        <time>2012-11-03T11:59:08Z</time>
      </trkpt>
      <trkpt lat="45.52954" lon="3.24569">
        <ele>397</ele>
        <time>2012-11-03T11:59:12Z</time>
      </trkpt>
      <trkpt lat="45.52934" lon="3.24568">
        <ele>397</ele>
        <time>2012-11-03T11:59:16Z</time>
      </trkpt>
      <trkpt lat="45.52916" lon="3.24566">
        <ele>398</ele>
        <time>2012-11-03T11:59:20Z</time>
      </trkpt>
      <trkpt lat="45.52895" lon="3.2456">
        <ele>398</ele>
        <time>2012-11-03T11:59:24Z</time>
      </trkpt>
      <trkpt lat="45.52877" lon="3.24554">
        <ele>399</ele>
        <time>2012-11-03T11:59:28Z</time>
      </trkpt>
      <trkpt lat="45.52858" lon="3.2455">
        <ele>399</ele>
        <time>2012-11-03T11:59:32Z</time>
      </trkpt>
      <trkpt lat="45.5284" lon="3.24548">
        <ele>399</ele>
        <time>2012-11-03T11:59:36Z</time>
      </trkpt>
      <trkpt lat="45.52822" lon="3.24538">
        <ele>400</ele>
        <time>2012-11-03T11:59:40Z</time>
      </trkpt>
      <trkpt lat="45.52804" lon="3.24526">
        <ele>401</ele>
        <time>2012-11-03T11:59:44Z</time>
      </trkpt>
      <trkpt lat="45.52788" lon="3.24514">
        <ele>401</ele>
        <time>2012-11-03T11:59:48Z</time>
      </trkpt>
      <trkpt lat="45.52772" lon="3.245">
        <ele>402</ele>
        <time>2012-11-03T11:59:52Z</time>
      </trkpt>
      <trkpt lat="45.52757" lon="3.24484">
        <ele>403</ele>
        <time>2012-11-03T11:59:56Z</time>
      </trkpt>
      <trkpt lat="45.52744" lon="3.24467">
        <ele>404</ele>
        <time>2012-11-03T12:00:00Z</time>
      </trkpt>
      <trkpt lat="45.52728" lon="3.24444">
        <ele>405</ele>
        <time>2012-11-03T12:00:05Z</time>
      </trkpt>
      <trkpt lat="45.52714" lon="3.24422">
        <ele>405</ele>
        <time>2012-11-03T12:00:10Z</time>
      </trkpt>
      <trkpt lat="45.52698" lon="3.24401">
        <ele>406</ele>
        <time>2012-11-03T12:00:15Z</time>
      </trkpt>
      <trkpt lat="45.52685" lon="3.2438">
        <ele>406</ele>
        <time>2012-11-03T12:00:21Z</time>
      </trkpt>
      <trkpt lat="45.52669" lon="3.24362">
        <ele>407</ele>
        <time>2012-11-03T12:01:59Z</time>
      </trkpt>
      <trkpt lat="45.52654" lon="3.24345">
        <ele>407</ele>
        <time>2012-11-03T12:02:07Z</time>
      </trkpt>
      <trkpt lat="45.52637" lon="3.24332">
        <ele>409</ele>
        <time>2012-11-03T12:02:12Z</time>
      </trkpt>
      <trkpt lat="45.52619" lon="3.24314">
        <ele>410</ele>
        <time>2012-11-03T12:02:17Z</time>
      </trkpt>
      <trkpt lat="45.52602" lon="3.24299">
        <ele>410</ele>
        <time>2012-11-03T12:02:22Z</time>
      </trkpt>
      <trkpt lat="45.52585" lon="3.24282">
        <ele>411</ele>
        <time>2012-11-03T12:02:28Z</time>
      </trkpt>
      <trkpt lat="45.52568" lon="3.24266">
        <ele>413</ele>
        <time>2012-11-03T12:02:34Z</time>
      </trkpt>
      <trkpt lat="45.52553" lon="3.24251">
        <ele>413</ele>
        <time>2012-11-03T12:02:40Z</time>
      </trkpt>
      <trkpt lat="45.52536" lon="3.24235">
        <ele>416</ele>
        <time>2012-11-03T12:02:47Z</time>
      </trkpt>
      <trkpt lat="45.52522" lon="3.24218">
        <ele>416</ele>
        <time>2012-11-03T12:02:54Z</time>
      </trkpt>
      <trkpt lat="45.52507" lon="3.24201">
        <ele>417</ele>
        <time>2012-11-03T12:03:01Z</time>
      </trkpt>
      <trkpt lat="45.52493" lon="3.24183">
        <ele>420</ele>
        <time>2012-11-03T12:03:08Z</time>
      </trkpt>
      <trkpt lat="45.52478" lon="3.24165">
        <ele>422</ele>
        <time>2012-11-03T12:03:14Z</time>
      </trkpt>
      <trkpt lat="45.52463" lon="3.24145">
        <ele>422</ele>
        <time>2012-11-03T12:03:20Z</time>
      </trkpt>
      <trkpt lat="45.52446" lon="3.24127">
        <ele>423</ele>
        <time>2012-11-03T12:03:26Z</time>
      </trkpt>
      <trkpt lat="45.5243" lon="3.2411">
        <ele>424</ele>
        <time>2012-11-03T12:03:32Z</time>
      </trkpt>
      <trkpt lat="45.52414" lon="3.24094">
        <ele>426</ele>
        <time>2012-11-03T12:03:38Z</time>
      </trkpt>
      <trkpt lat="45.52398" lon="3.24079">
        <ele>428</ele>
        <time>2012-11-03T12:03:44Z</time>
      </trkpt>
      <trkpt lat="45.52382" lon="3.24063">
        <ele>429</ele>
        <time>2012-11-03T12:03:50Z</time>
      </trkpt>
      <trkpt lat="45.52366" lon="3.24049">
        <ele>429</ele>
        <time>2012-11-03T12:03:56Z</time>
      </trkpt>
      <trkpt lat="45.52349" lon="3.24035">
        <ele>430</ele>
        <time>2012-11-03T12:04:03Z</time>
      </trkpt>
      <trkpt lat="45.52334" lon="3.24022">
        <ele>430</ele>
        <time>2012-11-03T12:04:10Z</time>
      </trkpt>
      <trkpt lat="45.52316" lon="3.24007">
        <ele>432</ele>
        <time>2012-11-03T12:04:17Z</time>
      </trkpt>
      <trkpt lat="45.523" lon="3.23989">
        <ele>434</ele>
        <time>2012-11-03T12:04:23Z</time>
      </trkpt>
      <trkpt lat="45.52287" lon="3.2397">
        <ele>434</ele>
        <time>2012-11-03T12:04:28Z</time>
      </trkpt>
      <trkpt lat="45.52279" lon="3.23947">
        <ele>435</ele>
        <time>2012-11-03T12:04:33Z</time>
      </trkpt>
      <trkpt lat="45.52271" lon="3.23922">
        <ele>436</ele>
        <time>2012-11-03T12:04:38Z</time>
      </trkpt>
      <trkpt lat="45.52263" lon="3.23898">
        <ele>437</ele>
        <time>2012-11-03T12:04:43Z</time>
      </trkpt>
      <trkpt lat="45.52255" lon="3.23873">
        <ele>437</ele>
        <time>2012-11-03T12:04:48Z</time>
      </trkpt>
      <trkpt lat="45.52247" lon="3.2385">
        <ele>439</ele>
        <time>2012-11-03T12:04:53Z</time>
      </trkpt>
      <trkpt lat="45.52239" lon="3.23823">
        <ele>441</ele>
        <time>2012-11-03T12:04:59Z</time>
      </trkpt>
      <trkpt lat="45.52231" lon="3.23798">
        <ele>443</ele>
        <time>2012-11-03T12:05:05Z</time>
      </trkpt>
      <trkpt lat="45.52224" lon="3.23774">
        <ele>444</ele>
        <time>2012-11-03T12:05:12Z</time>
      </trkpt>
      <trkpt lat="45.52217" lon="3.23748">
        <ele>447</ele>
        <time>2012-11-03T12:05:20Z</time>
      </trkpt>
      <trkpt lat="45.52209" lon="3.23724">
        <ele>449</ele>
        <time>2012-11-03T12:05:27Z</time>
      </trkpt>
      <trkpt lat="45.52198" lon="3.237">
        <ele>450</ele>
        <time>2012-11-03T12:05:34Z</time>
      </trkpt>
      <trkpt lat="45.52181" lon="3.23688">
        <ele>452</ele>
        <time>2012-11-03T12:05:42Z</time>
      </trkpt>
      <trkpt lat="45.52162" lon="3.23678">
        <ele>457</ele>
        <time>2012-11-03T12:05:50Z</time>
      </trkpt>
      <trkpt lat="45.52143" lon="3.2367">
        <ele>458</ele>
        <time>2012-11-03T12:05:58Z</time>
      </trkpt>
      <trkpt lat="45.52124" lon="3.23667">
        <ele>459</ele>
        <time>2012-11-03T12:06:06Z</time>
      </trkpt>
      <trkpt lat="45.52106" lon="3.23666">
        <ele>463</ele>
        <time>2012-11-03T12:06:14Z</time>
      </trkpt>
      <trkpt lat="45.52087" lon="3.23664">
        <ele>464</ele>
        <time>2012-11-03T12:06:22Z</time>
      </trkpt>
      <trkpt lat="45.52069" lon="3.23658">
        <ele>466</ele>
        <time>2012-11-03T12:06:29Z</time>
      </trkpt>
      <trkpt lat="45.52049" lon="3.23649">
        <ele>467</ele>
        <time>2012-11-03T12:06:36Z</time>
      </trkpt>
      <trkpt lat="45.52031" lon="3.23643">
        <ele>468</ele>
        <time>2012-11-03T12:06:43Z</time>
      </trkpt>
      <trkpt lat="45.52011" lon="3.23634">
        <ele>469</ele>
        <time>2012-11-03T12:06:50Z</time>
      </trkpt>
      <trkpt lat="45.51992" lon="3.23625">
        <ele>473</ele>
        <time>2012-11-03T12:06:56Z</time>
      </trkpt>
      <trkpt lat="45.51975" lon="3.23618">
        <ele>474</ele>
        <time>2012-11-03T12:07:02Z</time>
      </trkpt>
      <trkpt lat="45.51957" lon="3.23608">
        <ele>475</ele>
        <time>2012-11-03T12:07:09Z</time>
      </trkpt>
      <trkpt lat="45.51937" lon="3.23599">
        <ele>476</ele>
        <time>2012-11-03T12:07:16Z</time>
      </trkpt>
      <trkpt lat="45.51918" lon="3.2359">
        <ele>478</ele>
        <time>2012-11-03T12:07:24Z</time>
      </trkpt>
      <trkpt lat="45.519" lon="3.23582">
        <ele>482</ele>
        <time>2012-11-03T12:07:33Z</time>
      </trkpt>
      <trkpt lat="45.51881" lon="3.23573">
        <ele>483</ele>
        <time>2012-11-03T12:07:42Z</time>
      </trkpt>
      <trkpt lat="45.51863" lon="3.23566">
        <ele>484</ele>
        <time>2012-11-03T12:07:50Z</time>
      </trkpt>
      <trkpt lat="45.51845" lon="3.23556">
        <ele>485</ele>
        <time>2012-11-03T12:07:58Z</time>
      </trkpt>
      <trkpt lat="45.51828" lon="3.23548">
        <ele>490</ele>
        <time>2012-11-03T12:08:06Z</time>
      </trkpt>
      <trkpt lat="45.5181" lon="3.23536">
        <ele>491</ele>
        <time>2012-11-03T12:08:17Z</time>
      </trkpt>
      <trkpt lat="45.51794" lon="3.2352">
        <ele>492</ele>
        <time>2012-11-03T12:08:28Z</time>
      </trkpt>
      <trkpt lat="45.51779" lon="3.23503">
        <ele>494</ele>
        <time>2012-11-03T12:08:39Z</time>
      </trkpt>
      <trkpt lat="45.51765" lon="3.23487">
        <ele>497</ele>
        <time>2012-11-03T12:08:49Z</time>
      </trkpt>
      <trkpt lat="45.51751" lon="3.23469">
        <ele>497</ele>
        <time>2012-11-03T12:08:59Z</time>
      </trkpt>
      <trkpt lat="45.51734" lon="3.23455">
        <ele>504</ele>
        <time>2012-11-03T12:09:09Z</time>
      </trkpt>
      <trkpt lat="45.51717" lon="3.23448">
        <ele>504</ele>
        <time>2012-11-03T12:09:19Z</time>
      </trkpt>
      <trkpt lat="45.51698" lon="3.23439">
        <ele>506</ele>
        <time>2012-11-03T12:09:29Z</time>
      </trkpt>
      <trkpt lat="45.51679" lon="3.23433">
        <ele>508</ele>
        <time>2012-11-03T12:09:37Z</time>
      </trkpt>
      <trkpt lat="45.51659" lon="3.23426">
        <ele>514</ele>
        <time>2012-11-03T12:09:46Z</time>
      </trkpt>
      <trkpt lat="45.5164" lon="3.2343">
        <ele>516</ele>
        <time>2012-11-03T12:09:53Z</time>
      </trkpt>
      <trkpt lat="45.5163" lon="3.23452">
        <ele>517</ele>
        <time>2012-11-03T12:10:00Z</time>
      </trkpt>
      <trkpt lat="45.51625" lon="3.23479">
        <ele>517</ele>
        <time>2012-11-03T12:10:06Z</time>
      </trkpt>
      <trkpt lat="45.51619" lon="3.23504">
        <ele>516</ele>
        <time>2012-11-03T12:10:12Z</time>
      </trkpt>
      <trkpt lat="45.51613" lon="3.23529">
        <ele>516</ele>
        <time>2012-11-03T12:10:17Z</time>
      </trkpt>
      <trkpt lat="45.51607" lon="3.23557">
        <ele>517</ele>
        <time>2012-11-03T12:10:22Z</time>
      </trkpt>
      <trkpt lat="45.51599" lon="3.23583">
        <ele>519</ele>
        <time>2012-11-03T12:10:27Z</time>
      </trkpt>
      <trkpt lat="45.51592" lon="3.23609">
        <ele>516</ele>
        <time>2012-11-03T12:10:32Z</time>
      </trkpt>
      <trkpt lat="45.51588" lon="3.23635">
        <ele>515</ele>
        <time>2012-11-03T12:10:37Z</time>
      </trkpt>
      <trkpt lat="45.51583" lon="3.23661">
        <ele>523</ele>
        <time>2012-11-03T12:10:42Z</time>
      </trkpt>
      <trkpt lat="45.51577" lon="3.23686">
        <ele>524</ele>
        <time>2012-11-03T12:10:47Z</time>
      </trkpt>
      <trkpt lat="45.51572" lon="3.23713">
        <ele>525</ele>
        <time>2012-11-03T12:10:53Z</time>
      </trkpt>
      <trkpt lat="45.51563" lon="3.23737">
        <ele>523</ele>
        <time>2012-11-03T12:10:58Z</time>
      </trkpt>
      <trkpt lat="45.51552" lon="3.23761">
        <ele>520</ele>
        <time>2012-11-03T12:11:03Z</time>
      </trkpt>
      <trkpt lat="45.51538" lon="3.23783">
        <ele>521</ele>
        <time>2012-11-03T12:11:08Z</time>
      </trkpt>
      <trkpt lat="45.51522" lon="3.238">
        <ele>522</ele>
        <time>2012-11-03T12:11:13Z</time>
      </trkpt>
      <trkpt lat="45.51505" lon="3.23814">
        <ele>523</ele>
        <time>2012-11-03T12:11:20Z</time>
      </trkpt>
      <trkpt lat="45.5149" lon="3.23831">
        <ele>528</ele>
        <time>2012-11-03T12:11:31Z</time>
      </trkpt>
      <trkpt lat="45.51471" lon="3.23839">
        <ele>526</ele>
        <time>2012-11-03T12:11:41Z</time>
      </trkpt>
      <trkpt lat="45.5145" lon="3.23845">
        <ele>528</ele>
        <time>2012-11-03T12:11:53Z</time>
      </trkpt>
      <trkpt lat="45.51432" lon="3.23849">
        <ele>531</ele>
        <time>2012-11-03T12:12:06Z</time>
      </trkpt>
      <trkpt lat="45.51413" lon="3.23853">
        <ele>537</ele>
        <time>2012-11-03T12:12:17Z</time>
      </trkpt>
      <trkpt lat="45.51395" lon="3.23853">
        <ele>537</ele>
        <time>2012-11-03T12:12:29Z</time>
      </trkpt>
      <trkpt lat="45.51377" lon="3.23844">
        <ele>537</ele>
        <time>2012-11-03T12:12:37Z</time>
      </trkpt>
      <trkpt lat="45.51358" lon="3.23838">
        <ele>538</ele>
        <time>2012-11-03T12:12:45Z</time>
      </trkpt>
      <trkpt lat="45.51339" lon="3.23841">
        <ele>540</ele>
        <time>2012-11-03T12:12:52Z</time>
      </trkpt>
      <trkpt lat="45.51321" lon="3.23844">
        <ele>542</ele>
        <time>2012-11-03T12:12:58Z</time>
      </trkpt>
      <trkpt lat="45.51302" lon="3.23848">
        <ele>543</ele>
        <time>2012-11-03T12:13:03Z</time>
      </trkpt>
      <trkpt lat="45.51281" lon="3.23852">
        <ele>544</ele>
        <time>2012-11-03T12:13:09Z</time>
      </trkpt>
      <trkpt lat="45.51262" lon="3.23857">
        <ele>544</ele>
        <time>2012-11-03T12:13:16Z</time>
      </trkpt>
      <trkpt lat="45.51243" lon="3.23864">
        <ele>548</ele>
        <time>2012-11-03T12:13:22Z</time>
      </trkpt>
      <trkpt lat="45.51225" lon="3.23873">
        <ele>549</ele>
        <time>2012-11-03T12:13:28Z</time>
      </trkpt>
      <trkpt lat="45.5121" lon="3.23894">
        <ele>549</ele>
        <time>2012-11-03T12:13:35Z</time>
      </trkpt>
      <trkpt lat="45.51197" lon="3.23917">
        <ele>549</ele>
        <time>2012-11-03T12:13:42Z</time>
      </trkpt>
      <trkpt lat="45.51185" lon="3.23939">
        <ele>549</ele>
        <time>2012-11-03T12:13:48Z</time>
      </trkpt>
      <trkpt lat="45.51172" lon="3.23961">
        <ele>549</ele>
        <time>2012-11-03T12:13:54Z</time>
      </trkpt>
      <trkpt lat="45.51158" lon="3.23984">
        <ele>550</ele>
        <time>2012-11-03T12:14:00Z</time>
      </trkpt>
      <trkpt lat="45.51146" lon="3.24004">
        <ele>549</ele>
        <time>2012-11-03T12:14:05Z</time>
      </trkpt>
      <trkpt lat="45.51133" lon="3.24027">
        <ele>548</ele>
        <time>2012-11-03T12:14:10Z</time>
      </trkpt>
      <trkpt lat="45.51124" lon="3.2405">
        <ele>548</ele>
        <time>2012-11-03T12:14:14Z</time>
      </trkpt>
      <trkpt lat="45.51107" lon="3.24067">
        <ele>548</ele>
        <time>2012-11-03T12:14:18Z</time>
      </trkpt>
      <trkpt lat="45.51089" lon="3.24053">
        <ele>548</ele>
        <time>2012-11-03T12:14:23Z</time>
      </trkpt>
      <trkpt lat="45.51071" lon="3.24044">
        <ele>549</ele>
        <time>2012-11-03T12:14:27Z</time>
      </trkpt>
      <trkpt lat="45.51053" lon="3.24037">
        <ele>549</ele>
        <time>2012-11-03T12:14:31Z</time>
      </trkpt>
      <trkpt lat="45.51035" lon="3.24029">
        <ele>549</ele>
        <time>2012-11-03T12:14:35Z</time>
      </trkpt>
      <trkpt lat="45.51018" lon="3.24022">
        <ele>550</ele>
        <time>2012-11-03T12:14:39Z</time>
      </trkpt>
      <trkpt lat="45.51" lon="3.24013">
        <ele>550</ele>
        <time>2012-11-03T12:14:43Z</time>
      </trkpt>
      <trkpt lat="45.50981" lon="3.24007">
        <ele>551</ele>
        <time>2012-11-03T12:14:47Z</time>
      </trkpt>
      <trkpt lat="45.50962" lon="3.24003">
        <ele>550</ele>
        <time>2012-11-03T12:14:51Z</time>
      </trkpt>
      <trkpt lat="45.50944" lon="3.23999">
        <ele>550</ele>
        <time>2012-11-03T12:14:55Z</time>
      </trkpt>
      <trkpt lat="45.50925" lon="3.23996">
        <ele>550</ele>
        <time>2012-11-03T12:14:59Z</time>
      </trkpt>
      <trkpt lat="45.50904" lon="3.23993">
        <ele>550</ele>
        <time>2012-11-03T12:15:04Z</time>
      </trkpt>
      <trkpt lat="45.50885" lon="3.2399">
        <ele>550</ele>
        <time>2012-11-03T12:15:08Z</time>
      </trkpt>
      <trkpt lat="45.50867" lon="3.23982">
        <ele>550</ele>
        <time>2012-11-03T12:15:12Z</time>
      </trkpt>
      <trkpt lat="45.50849" lon="3.23975">
        <ele>550</ele>
        <time>2012-11-03T12:15:16Z</time>
      </trkpt>
      <trkpt lat="45.5083" lon="3.23977">
        <ele>551</ele>
        <time>2012-11-03T12:15:20Z</time>
      </trkpt>
      <trkpt lat="45.50808" lon="3.23984">
        <ele>550</ele>
        <time>2012-11-03T12:15:25Z</time>
      </trkpt>
      <trkpt lat="45.50789" lon="3.23988">
        <ele>550</ele>
        <time>2012-11-03T12:15:29Z</time>
      </trkpt>
      <trkpt lat="45.5077" lon="3.23991">
        <ele>550</ele>
        <time>2012-11-03T12:15:33Z</time>
      </trkpt>
      <trkpt lat="45.50751" lon="3.23995">
        <ele>550</ele>
        <time>2012-11-03T12:15:37Z</time>
      </trkpt>
      <trkpt lat="45.50732" lon="3.23999">
        <ele>550</ele>
        <time>2012-11-03T12:15:41Z</time>
      </trkpt>
      <trkpt lat="45.50711" lon="3.24004">
        <ele>551</ele>
        <time>2012-11-03T12:15:45Z</time>
      </trkpt>
      <trkpt lat="45.50691" lon="3.24015">
        <ele>551</ele>
        <time>2012-11-03T12:15:49Z</time>
      </trkpt>
      <trkpt lat="45.5067" lon="3.24024">
        <ele>551</ele>
        <time>2012-11-03T12:15:53Z</time>
      </trkpt>
      <trkpt lat="45.50649" lon="3.24027">
        <ele>552</ele>
        <time>2012-11-03T12:15:57Z</time>
      </trkpt>
      <trkpt lat="45.50629" lon="3.24027">
        <ele>552</ele>
        <time>2012-11-03T12:16:01Z</time>
      </trkpt>
      <trkpt lat="45.50608" lon="3.24024">
        <ele>551</ele>
        <time>2012-11-03T12:16:05Z</time>
      </trkpt>
      <trkpt lat="45.50588" lon="3.24014">
        <ele>551</ele>
        <time>2012-11-03T12:16:09Z</time>
      </trkpt>
      <trkpt lat="45.50567" lon="3.2401">
        <ele>551</ele>
        <time>2012-11-03T12:16:13Z</time>
      </trkpt>
      <trkpt lat="45.50545" lon="3.24011">
        <ele>551</ele>
        <time>2012-11-03T12:16:17Z</time>
      </trkpt>
      <trkpt lat="45.50521" lon="3.24015">
        <ele>551</ele>
        <time>2012-11-03T12:16:21Z</time>
      </trkpt>
      <trkpt lat="45.50499" lon="3.24019">
        <ele>550</ele>
        <time>2012-11-03T12:16:25Z</time>
      </trkpt>
      <trkpt lat="45.50476" lon="3.24018">
        <ele>550</ele>
        <time>2012-11-03T12:16:29Z</time>
      </trkpt>
      <trkpt lat="45.50451" lon="3.24014">
        <ele>550</ele>
        <time>2012-11-03T12:16:33Z</time>
      </trkpt>
      <trkpt lat="45.5043" lon="3.24013">
        <ele>550</ele>
        <time>2012-11-03T12:16:37Z</time>
      </trkpt>
      <trkpt lat="45.50411" lon="3.24008">
        <ele>550</ele>
        <time>2012-11-03T12:16:40Z</time>
      </trkpt>
      <trkpt lat="45.50394" lon="3.23994">
        <ele>550</ele>
        <time>2012-11-03T12:16:43Z</time>
      </trkpt>
      <trkpt lat="45.50377" lon="3.23981">
        <ele>549</ele>
        <time>2012-11-03T12:16:46Z</time>
      </trkpt>
      <trkpt lat="45.50361" lon="3.23967">
        <ele>549</ele>
        <time>2012-11-03T12:16:49Z</time>
      </trkpt>
      <trkpt lat="45.50345" lon="3.23954">
        <ele>549</ele>
        <time>2012-11-03T12:16:52Z</time>
      </trkpt>
      <trkpt lat="45.50328" lon="3.23943">
        <ele>548</ele>
        <time>2012-11-03T12:16:55Z</time>
      </trkpt>
      <trkpt lat="45.50305" lon="3.23938">
        <ele>547</ele>
        <time>2012-11-03T12:16:59Z</time>
      </trkpt>
      <trkpt lat="45.50283" lon="3.23936">
        <ele>546</ele>
        <time>2012-11-03T12:17:03Z</time>
      </trkpt>
      <trkpt lat="45.50261" lon="3.23928">
        <ele>545</ele>
        <time>2012-11-03T12:17:08Z</time>
      </trkpt>
      <trkpt lat="45.50259" lon="3.23902">
        <ele>545</ele>
        <time>2012-11-03T12:17:12Z</time>
      </trkpt>
      <trkpt lat="45.50258" lon="3.23873">
        <ele>547</ele>
        <time>2012-11-03T12:17:16Z</time>
      </trkpt>
      <trkpt lat="45.50249" lon="3.23842">
        <ele>544</ele>
        <time>2012-11-03T12:17:20Z</time>
      </trkpt>
      <trkpt lat="45.50239" lon="3.23816">
        <ele>545</ele>
        <time>2012-11-03T12:17:23Z</time>
      </trkpt>
      <trkpt lat="45.50243" lon="3.23791">
        <ele>545</ele>
        <time>2012-11-03T12:17:26Z</time>
      </trkpt>
      <trkpt lat="45.5025" lon="3.23764">
        <ele>546</ele>
        <time>2012-11-03T12:17:30Z</time>
      </trkpt>
      <trkpt lat="45.50258" lon="3.23739">
        <ele>549</ele>
        <time>2012-11-03T12:17:34Z</time>
      </trkpt>
      <trkpt lat="45.50266" lon="3.23712">
        <ele>549</ele>
        <time>2012-11-03T12:17:38Z</time>
      </trkpt>
      <trkpt lat="45.50274" lon="3.23687">
        <ele>550</ele>
        <time>2012-11-03T12:17:42Z</time>
      </trkpt>
      <trkpt lat="45.50283" lon="3.2366">
        <ele>550</ele>
        <time>2012-11-03T12:17:46Z</time>
      </trkpt>
      <trkpt lat="45.50296" lon="3.23633">
        <ele>550</ele>
        <time>2012-11-03T12:17:50Z</time>
      </trkpt>
      <trkpt lat="45.50308" lon="3.23613">
        <ele>550</ele>
        <time>2012-11-03T12:17:53Z</time>
      </trkpt>
      <trkpt lat="45.50323" lon="3.23586">
        <ele>550</ele>
        <time>2012-11-03T12:17:57Z</time>
      </trkpt>
      <trkpt lat="45.50333" lon="3.23563">
        <ele>551</ele>
        <time>2012-11-03T12:18:00Z</time>
      </trkpt>
      <trkpt lat="45.50341" lon="3.23538">
        <ele>551</ele>
        <time>2012-11-03T12:18:03Z</time>
      </trkpt>
      <trkpt lat="45.50348" lon="3.23513">
        <ele>551</ele>
        <time>2012-11-03T12:18:06Z</time>
      </trkpt>
      <trkpt lat="45.50356" lon="3.23482">
        <ele>552</ele>
        <time>2012-11-03T12:18:10Z</time>
      </trkpt>
      <trkpt lat="45.50363" lon="3.23457">
        <ele>553</ele>
        <time>2012-11-03T12:18:13Z</time>
      </trkpt>
      <trkpt lat="45.50372" lon="3.23433">
        <ele>553</ele>
        <time>2012-11-03T12:18:16Z</time>
      </trkpt>
      <trkpt lat="45.50381" lon="3.23403">
        <ele>555</ele>
        <time>2012-11-03T12:18:20Z</time>
      </trkpt>
      <trkpt lat="45.50389" lon="3.23373">
        <ele>555</ele>
        <time>2012-11-03T12:18:24Z</time>
      </trkpt>
      <trkpt lat="45.50395" lon="3.23348">
        <ele>555</ele>
        <time>2012-11-03T12:18:27Z</time>
      </trkpt>
      <trkpt lat="45.50404" lon="3.23319">
        <ele>555</ele>
        <time>2012-11-03T12:18:31Z</time>
      </trkpt>
      <trkpt lat="45.50411" lon="3.23289">
        <ele>555</ele>
        <time>2012-11-03T12:18:35Z</time>
      </trkpt>
      <trkpt lat="45.50419" lon="3.23259">
        <ele>555</ele>
        <time>2012-11-03T12:18:39Z</time>
      </trkpt>
      <trkpt lat="45.50427" lon="3.23229">
        <ele>555</ele>
        <time>2012-11-03T12:18:43Z</time>
      </trkpt>
      <trkpt lat="45.50435" lon="3.23206">
        <ele>555</ele>
        <time>2012-11-03T12:18:46Z</time>
      </trkpt>
      <trkpt lat="45.50443" lon="3.23183">
        <ele>555</ele>
        <time>2012-11-03T12:18:49Z</time>
      </trkpt>
      <trkpt lat="45.50451" lon="3.23158">
        <ele>556</ele>
        <time>2012-11-03T12:18:52Z</time>
      </trkpt>
      <trkpt lat="45.50461" lon="3.23135">
        <ele>556</ele>
        <time>2012-11-03T12:18:55Z</time>
      </trkpt>
      <trkpt lat="45.5047" lon="3.23112">
        <ele>556</ele>
        <time>2012-11-03T12:18:58Z</time>
      </trkpt>
      <trkpt lat="45.5048" lon="3.2309">
        <ele>556</ele>
        <time>2012-11-03T12:19:01Z</time>
      </trkpt>
      <trkpt lat="45.5049" lon="3.23067">
        <ele>556</ele>
        <time>2012-11-03T12:19:04Z</time>
      </trkpt>
      <trkpt lat="45.50499" lon="3.23044">
        <ele>556</ele>
        <time>2012-11-03T12:19:07Z</time>
      </trkpt>
      <trkpt lat="45.50508" lon="3.23021">
        <ele>556</ele>
        <time>2012-11-03T12:19:10Z</time>
      </trkpt>
      <trkpt lat="45.50517" lon="3.22998">
        <ele>556</ele>
        <time>2012-11-03T12:19:13Z</time>
      </trkpt>
      <trkpt lat="45.50526" lon="3.22968">
        <ele>556</ele>
        <time>2012-11-03T12:19:17Z</time>
      </trkpt>
      <trkpt lat="45.50533" lon="3.22944">
        <ele>556</ele>
        <time>2012-11-03T12:19:21Z</time>
      </trkpt>
      <trkpt lat="45.50535" lon="3.22916">
        <ele>555</ele>
        <time>2012-11-03T12:19:26Z</time>
      </trkpt>
      <trkpt lat="45.50528" lon="3.2289">
        <ele>554</ele>
        <time>2012-11-03T12:19:33Z</time>
      </trkpt>
      <trkpt lat="45.5052" lon="3.22866">
        <ele>553</ele>
        <time>2012-11-03T12:19:42Z</time>
      </trkpt>
      <trkpt lat="45.50539" lon="3.22859">
        <ele>553</ele>
        <time>2012-11-03T12:19:47Z</time>
      </trkpt>
      <trkpt lat="45.50558" lon="3.22846">
        <ele>552</ele>
        <time>2012-11-03T12:19:53Z</time>
      </trkpt>
      <trkpt lat="45.50568" lon="3.22822">
        <ele>547</ele>
        <time>2012-11-03T12:19:57Z</time>
      </trkpt>
      <trkpt lat="45.50579" lon="3.22797">
        <ele>546</ele>
        <time>2012-11-03T12:20:00Z</time>
      </trkpt>
      <trkpt lat="45.50589" lon="3.22768">
        <ele>545</ele>
        <time>2012-11-03T12:20:03Z</time>
      </trkpt>
      <trkpt lat="45.50595" lon="3.22731">
        <ele>541</ele>
        <time>2012-11-03T12:20:06Z</time>
      </trkpt>
      <trkpt lat="45.50598" lon="3.22704">
        <ele>540</ele>
        <time>2012-11-03T12:20:08Z</time>
      </trkpt>
      <trkpt lat="45.50602" lon="3.22678">
        <ele>539</ele>
        <time>2012-11-03T12:20:10Z</time>
      </trkpt>
      <trkpt lat="45.50606" lon="3.22643">
        <ele>537</ele>
        <time>2012-11-03T12:20:13Z</time>
      </trkpt>
      <trkpt lat="45.50608" lon="3.22608">
        <ele>537</ele>
        <time>2012-11-03T12:20:16Z</time>
      </trkpt>
      <trkpt lat="45.50609" lon="3.22574">
        <ele>537</ele>
        <time>2012-11-03T12:20:19Z</time>
      </trkpt>
      <trkpt lat="45.50609" lon="3.22545">
        <ele>537</ele>
        <time>2012-11-03T12:20:22Z</time>
      </trkpt>
      <trkpt lat="45.50611" lon="3.22515">
        <ele>537</ele>
        <time>2012-11-03T12:20:26Z</time>
      </trkpt>
      <trkpt lat="45.5061" lon="3.22488">
        <ele>537</ele>
        <time>2012-11-03T12:20:30Z</time>
      </trkpt>
      <trkpt lat="45.50607" lon="3.22462">
        <ele>537</ele>
        <time>2012-11-03T12:20:34Z</time>
      </trkpt>
      <trkpt lat="45.50607" lon="3.22433">
        <ele>537</ele>
        <time>2012-11-03T12:20:39Z</time>
      </trkpt>
    </trkseg>
  </trk>
</gpx>